<?xml version="1.0" encoding="UTF-8" standalone="no" ?><gpx xmlns="http://www.topografix.com/GPX/1/1" xmlns:gpxx="http://www.garmin.com/xmlschemas/GpxExtensions/v3" xmlns:wptx1="http://www.garmin.com/xmlschemas/WaypointExtension/v1" xmlns:gpxtpx="http://www.garmin.com/xmlschemas/TrackPointExtension/v1" creator="GuideVTT.com" version="1.1" xmlns:xsi="http://www.w3.org/2001/XMLSchema-instance" xsi:schemaLocation="http://www.topografix.com/GPX/1/1 http://www.topografix.com/GPX/1/1/gpx.xsd http://www.garmin.com/xmlschemas/GpxExtensions/v3 http://www8.garmin.com/xmlschemas/GpxExtensionsv3.xsd http://www.garmin.com/xmlschemas/WaypointExtension/v1 http://www8.garmin.com/xmlschemas/WaypointExtensionv1.xsd http://www.garmin.com/xmlschemas/TrackPointExtension/v1 http://www.garmin.com/xmlschemas/TrackPointExtensionv1.xsd">
<metadata><link href="http://www.garmin.com"><text>Garmin International</text></link><time>2013-06-22T15:13:50Z</time></metadata>
<trk><name>maggia-fusio12.gpx</name><extensions><gpxx:TrackExtension><gpxx:DisplayColor>Cyan</gpxx:DisplayColor></gpxx:TrackExtension></extensions><trkseg>
<trkpt lat="46.24562836" lon="8.71063137"><ele>371.8479919896</ele><time>2009-08-12T09:26:27Z</time></trkpt>
<trkpt lat="46.24562836" lon="8.71062183"><ele>369.121002168</ele><time>2009-08-12T09:26:31Z</time></trkpt>
<trkpt lat="46.24557877" lon="8.71054745"><ele>367.1229857424</ele><time>2009-08-12T09:26:37Z</time></trkpt>
<trkpt lat="46.24559402" lon="8.71043777"><ele>365.9060059056</ele><time>2009-08-12T09:26:41Z</time></trkpt>
<trkpt lat="46.24568558" lon="8.71022511"><ele>362.79400644</ele><time>2009-08-12T09:26:46Z</time></trkpt>
<trkpt lat="46.24574661" lon="8.70983696"><ele>366.4479979128</ele><time>2009-08-12T09:26:53Z</time></trkpt>
<trkpt lat="46.24576569" lon="8.70960331"><ele>368.3250120912</ele><time>2009-08-12T09:26:57Z</time></trkpt>
<trkpt lat="46.24578476" lon="8.70919037"><ele>372.6499939416</ele><time>2009-08-12T09:27:04Z</time></trkpt>
<trkpt lat="46.24581528" lon="8.70883942"><ele>371.0199890736</ele><time>2009-08-12T09:27:10Z</time></trkpt>
<trkpt lat="46.24580383" lon="8.70862961"><ele>367.7789918472</ele><time>2009-08-12T09:27:14Z</time></trkpt>
<trkpt lat="46.24577713" lon="8.70831108"><ele>366.084991476</ele><time>2009-08-12T09:27:19Z</time></trkpt>
<trkpt lat="46.24575043" lon="8.70796585"><ele>363.8320007064</ele><time>2009-08-12T09:27:25Z</time></trkpt>
<trkpt lat="46.24564743" lon="8.70762730"><ele>363.127014156</ele><time>2009-08-12T09:27:31Z</time></trkpt>
<trkpt lat="46.24562073" lon="8.70724201"><ele>360.5409851904</ele><time>2009-08-12T09:27:37Z</time></trkpt>
<trkpt lat="46.24567795" lon="8.70684433"><ele>357.4479979296</ele><time>2009-08-12T09:27:44Z</time></trkpt>
<trkpt lat="46.24595261" lon="8.70656490"><ele>350.0639954256</ele><time>2009-08-12T09:27:51Z</time></trkpt>
<trkpt lat="46.24610519" lon="8.70631027"><ele>346.5199888992</ele><time>2009-08-12T09:27:56Z</time></trkpt>
<trkpt lat="46.24625778" lon="8.70616531"><ele>346.3649901744</ele><time>2009-08-12T09:28:01Z</time></trkpt>
<trkpt lat="46.24631882" lon="8.70615292"><ele>348.5289918408</ele><time>2009-08-12T09:28:05Z</time></trkpt>
<trkpt lat="46.24650192" lon="8.70622635"><ele>352.2669983856</ele><time>2009-08-12T09:28:27Z</time></trkpt>
<trkpt lat="46.24638748" lon="8.70621586"><ele>345.1359862824</ele><time>2009-08-12T09:28:59Z</time></trkpt>
<trkpt lat="46.24646759" lon="8.70628929"><ele>343.3280029032</ele><time>2009-08-12T09:29:11Z</time></trkpt>
<trkpt lat="46.24646378" lon="8.70646572"><ele>312.1780089168</ele><time>2009-08-12T09:29:20Z</time></trkpt>
<trkpt lat="46.24641418" lon="8.70646858"><ele>308.3810119896</ele><time>2009-08-12T09:29:28Z</time></trkpt>
<trkpt lat="46.24632263" lon="8.70634747"><ele>324.2810057928</ele><time>2009-08-12T09:29:39Z</time></trkpt>
<trkpt lat="46.24646378" lon="8.70638561"><ele>330.0169982832</ele><time>2009-08-12T09:31:26Z</time></trkpt>
<trkpt lat="46.24648666" lon="8.70637703"><ele>330.64599606</ele><time>2009-08-12T09:31:27Z</time></trkpt>
<trkpt lat="46.24661255" lon="8.70617104"><ele>332.7040099272</ele><time>2009-08-12T09:31:33Z</time></trkpt>
<trkpt lat="46.24663925" lon="8.70612621"><ele>333.0549926136</ele><time>2009-08-12T09:31:34Z</time></trkpt>
<trkpt lat="46.24693680" lon="8.70572567"><ele>335.6589965496</ele><time>2009-08-12T09:31:43Z</time></trkpt>
<trkpt lat="46.24722290" lon="8.70539474"><ele>337.4410094448</ele><time>2009-08-12T09:31:51Z</time></trkpt>
<trkpt lat="46.24750519" lon="8.70521832"><ele>339.6010130496</ele><time>2009-08-12T09:31:58Z</time></trkpt>
<trkpt lat="46.24765778" lon="8.70511341"><ele>341.0400085968</ele><time>2009-08-12T09:32:02Z</time></trkpt>
<trkpt lat="46.24777985" lon="8.70492268"><ele>341.8489990032</ele><time>2009-08-12T09:32:06Z</time></trkpt>
<trkpt lat="46.24797058" lon="8.70449448"><ele>342.3089903616</ele><time>2009-08-12T09:32:14Z</time></trkpt>
<trkpt lat="46.24819183" lon="8.70402241"><ele>343.4460144528</ele><time>2009-08-12T09:32:23Z</time></trkpt>
<trkpt lat="46.24832153" lon="8.70369530"><ele>344.51400744</ele><time>2009-08-12T09:32:30Z</time></trkpt>
<trkpt lat="46.24833298" lon="8.70365429"><ele>345.2009888448</ele><time>2009-08-12T09:32:31Z</time></trkpt>
<trkpt lat="46.24832153" lon="8.70357227"><ele>347.2929991896</ele><time>2009-08-12T09:32:36Z</time></trkpt>
<trkpt lat="46.24818420" lon="8.70337391"><ele>354.0989990904</ele><time>2009-08-12T09:33:04Z</time></trkpt>
<trkpt lat="46.24816132" lon="8.70333958"><ele>353.6270141568</ele><time>2009-08-12T09:33:05Z</time></trkpt>
<trkpt lat="46.24793243" lon="8.70314693"><ele>356.9500123368</ele><time>2009-08-12T09:33:13Z</time></trkpt>
<trkpt lat="46.24771118" lon="8.70292282"><ele>362.3940125232</ele><time>2009-08-12T09:33:21Z</time></trkpt>
<trkpt lat="46.24766159" lon="8.70266819"><ele>368.131988652</ele><time>2009-08-12T09:33:27Z</time></trkpt>
<trkpt lat="46.24775696" lon="8.70245743"><ele>365.2890013992</ele><time>2009-08-12T09:33:32Z</time></trkpt>
<trkpt lat="46.24790955" lon="8.70225334"><ele>362.5409852544</ele><time>2009-08-12T09:33:38Z</time></trkpt>
<trkpt lat="46.24811935" lon="8.70208836"><ele>361.5530089728</ele><time>2009-08-12T09:33:45Z</time></trkpt>
<trkpt lat="46.24838257" lon="8.70194626"><ele>363.0989990736</ele><time>2009-08-12T09:33:53Z</time></trkpt>
<trkpt lat="46.24873352" lon="8.70175171"><ele>364.9559936832</ele><time>2009-08-12T09:34:03Z</time></trkpt>
<trkpt lat="46.24909592" lon="8.70154190"><ele>366.1749879432</ele><time>2009-08-12T09:34:13Z</time></trkpt>
<trkpt lat="46.24950790" lon="8.70129585"><ele>366.7869873288</ele><time>2009-08-12T09:34:24Z</time></trkpt>
<trkpt lat="46.24990463" lon="8.70105934"><ele>366.2080078416</ele><time>2009-08-12T09:34:33Z</time></trkpt>
<trkpt lat="46.25029755" lon="8.70082283"><ele>365.1390074904</ele><time>2009-08-12T09:34:40Z</time></trkpt>
<trkpt lat="46.25077438" lon="8.70053196"><ele>362.9719849512</ele><time>2009-08-12T09:34:47Z</time></trkpt>
<trkpt lat="46.25139618" lon="8.70015335"><ele>358.7950133712</ele><time>2009-08-12T09:34:55Z</time></trkpt>
<trkpt lat="46.25190353" lon="8.69982529"><ele>356.2170103992</ele><time>2009-08-12T09:35:01Z</time></trkpt>
<trkpt lat="46.25245667" lon="8.69949722"><ele>353.49301158</ele><time>2009-08-12T09:35:07Z</time></trkpt>
<trkpt lat="46.25264740" lon="8.69943047"><ele>353.2390138152</ele><time>2009-08-12T09:35:09Z</time></trkpt>
<trkpt lat="46.25293732" lon="8.69916153"><ele>352.9370115744</ele><time>2009-08-12T09:35:13Z</time></trkpt>
<trkpt lat="46.25308990" lon="8.69888210"><ele>352.5480041736</ele><time>2009-08-12T09:35:16Z</time></trkpt>
<trkpt lat="46.25338364" lon="8.69837475"><ele>352.976989752</ele><time>2009-08-12T09:35:22Z</time></trkpt>
<trkpt lat="46.25349808" lon="8.69814873"><ele>353.0490112488</ele><time>2009-08-12T09:35:25Z</time></trkpt>
<trkpt lat="46.25386810" lon="8.69758701"><ele>352.934997456</ele><time>2009-08-12T09:35:33Z</time></trkpt>
<trkpt lat="46.25426865" lon="8.69698715"><ele>353.1830138256</ele><time>2009-08-12T09:35:41Z</time></trkpt>
<trkpt lat="46.25469971" lon="8.69633579"><ele>353.321014464</ele><time>2009-08-12T09:35:50Z</time></trkpt>
<trkpt lat="46.25507736" lon="8.69580555"><ele>353.0929871832</ele><time>2009-08-12T09:35:58Z</time></trkpt>
<trkpt lat="46.25552750" lon="8.69530106"><ele>353.9519958792</ele><time>2009-08-12T09:36:07Z</time></trkpt>
<trkpt lat="46.25600815" lon="8.69481468"><ele>354.342010644</ele><time>2009-08-12T09:36:17Z</time></trkpt>
<trkpt lat="46.25645065" lon="8.69434643"><ele>354.971985</ele><time>2009-08-12T09:36:27Z</time></trkpt>
<trkpt lat="46.25692749" lon="8.69385242"><ele>355.4230042656</ele><time>2009-08-12T09:36:38Z</time></trkpt>
<trkpt lat="46.25737000" lon="8.69338322"><ele>356.2919921136</ele><time>2009-08-12T09:36:49Z</time></trkpt>
<trkpt lat="46.25770950" lon="8.69302940"><ele>358.226013036</ele><time>2009-08-12T09:36:58Z</time></trkpt>
<trkpt lat="46.25802994" lon="8.69275475"><ele>360.7149964248</ele><time>2009-08-12T09:37:06Z</time></trkpt>
<trkpt lat="46.25846481" lon="8.69251728"><ele>361.7999878032</ele><time>2009-08-12T09:37:16Z</time></trkpt>
<trkpt lat="46.25889206" lon="8.69227123"><ele>362.9110106256</ele><time>2009-08-12T09:37:26Z</time></trkpt>
<trkpt lat="46.25920486" lon="8.69202709"><ele>363.1610106336</ele><time>2009-08-12T09:37:33Z</time></trkpt>
<trkpt lat="46.25954437" lon="8.69173717"><ele>363.268005492</ele><time>2009-08-12T09:37:40Z</time></trkpt>
<trkpt lat="46.25999069" lon="8.69139194"><ele>362.00201412</ele><time>2009-08-12T09:37:48Z</time></trkpt>
<trkpt lat="46.26043701" lon="8.69104290"><ele>361.617004476</ele><time>2009-08-12T09:37:56Z</time></trkpt>
<trkpt lat="46.26082230" lon="8.69083309"><ele>362.0450134752</ele><time>2009-08-12T09:38:03Z</time></trkpt>
<trkpt lat="46.26087570" lon="8.69080353"><ele>362.3519897472</ele><time>2009-08-12T09:38:04Z</time></trkpt>
<trkpt lat="46.26114273" lon="8.69051361"><ele>363.3359984472</ele><time>2009-08-12T09:38:10Z</time></trkpt>
<trkpt lat="46.26126099" lon="8.69033909"><ele>363.9620055264</ele><time>2009-08-12T09:38:13Z</time></trkpt>
<trkpt lat="46.26171494" lon="8.68991661"><ele>364.4800109928</ele><time>2009-08-12T09:38:23Z</time></trkpt>
<trkpt lat="46.26214218" lon="8.68957520"><ele>365.2239991416</ele><time>2009-08-12T09:38:32Z</time></trkpt>
<trkpt lat="46.26240158" lon="8.68948269"><ele>366.714996312</ele><time>2009-08-12T09:38:38Z</time></trkpt>
<trkpt lat="46.26272202" lon="8.68940163"><ele>368.1310120728</ele><time>2009-08-12T09:38:45Z</time></trkpt>
<trkpt lat="46.26303101" lon="8.68927574"><ele>368.8059999024</ele><time>2009-08-12T09:38:52Z</time></trkpt>
<trkpt lat="46.26329041" lon="8.68918800"><ele>366.5450133144</ele><time>2009-08-12T09:38:57Z</time></trkpt>
<trkpt lat="46.26367950" lon="8.68892097"><ele>363.6440125632</ele><time>2009-08-12T09:39:04Z</time></trkpt>
<trkpt lat="46.26403427" lon="8.68862629"><ele>360.2560118208</ele><time>2009-08-12T09:39:09Z</time></trkpt>
<trkpt lat="46.26452637" lon="8.68822384"><ele>355.304992716</ele><time>2009-08-12T09:39:15Z</time></trkpt>
<trkpt lat="46.26512909" lon="8.68767834"><ele>352.2749938992</ele><time>2009-08-12T09:39:22Z</time></trkpt>
<trkpt lat="46.26555252" lon="8.68715572"><ele>358.8139954008</ele><time>2009-08-12T09:39:28Z</time></trkpt>
<trkpt lat="46.26597977" lon="8.68682098"><ele>361.8649903656</ele><time>2009-08-12T09:39:34Z</time></trkpt>
<trkpt lat="46.26605225" lon="8.68677616"><ele>362.1700134792</ele><time>2009-08-12T09:39:35Z</time></trkpt>
<trkpt lat="46.26647949" lon="8.68667030"><ele>363.825012252</ele><time>2009-08-12T09:39:41Z</time></trkpt>
<trkpt lat="46.26685333" lon="8.68661976"><ele>366.6040040016</ele><time>2009-08-12T09:39:47Z</time></trkpt>
<trkpt lat="46.26713181" lon="8.68655109"><ele>368.6709899616</ele><time>2009-08-12T09:39:52Z</time></trkpt>
<trkpt lat="46.26746750" lon="8.68631077"><ele>369.9159851856</ele><time>2009-08-12T09:39:59Z</time></trkpt>
<trkpt lat="46.26796722" lon="8.68593788"><ele>370.9289855472</ele><time>2009-08-12T09:40:10Z</time></trkpt>
<trkpt lat="46.26831818" lon="8.68557739"><ele>371.089996452</ele><time>2009-08-12T09:40:19Z</time></trkpt>
<trkpt lat="46.26856613" lon="8.68519974"><ele>370.569000288</ele><time>2009-08-12T09:40:27Z</time></trkpt>
<trkpt lat="46.26876450" lon="8.68486118"><ele>370.3529967576</ele><time>2009-08-12T09:40:34Z</time></trkpt>
<trkpt lat="46.26896286" lon="8.68448544"><ele>370.1740111872</ele><time>2009-08-12T09:40:42Z</time></trkpt>
<trkpt lat="46.26913834" lon="8.68421745"><ele>368.9110108176</ele><time>2009-08-12T09:40:49Z</time></trkpt>
<trkpt lat="46.26940155" lon="8.68400669"><ele>366.3219908496</ele><time>2009-08-12T09:40:56Z</time></trkpt>
<trkpt lat="46.26973724" lon="8.68375397"><ele>363.5820006984</ele><time>2009-08-12T09:41:04Z</time></trkpt>
<trkpt lat="46.27010345" lon="8.68349171"><ele>362.1310118808</ele><time>2009-08-12T09:41:12Z</time></trkpt>
<trkpt lat="46.27024841" lon="8.68340969"><ele>361.8599852448</ele><time>2009-08-12T09:41:15Z</time></trkpt>
<trkpt lat="46.27066040" lon="8.68324947"><ele>360.9570006144</ele><time>2009-08-12T09:41:23Z</time></trkpt>
<trkpt lat="46.27123642" lon="8.68303490"><ele>360.105987432</ele><time>2009-08-12T09:41:34Z</time></trkpt>
<trkpt lat="46.27170181" lon="8.68284988"><ele>359.7999877392</ele><time>2009-08-12T09:41:43Z</time></trkpt>
<trkpt lat="46.27222061" lon="8.68268585"><ele>359.528015004</ele><time>2009-08-12T09:41:53Z</time></trkpt>
<trkpt lat="46.27236938" lon="8.68270588"><ele>360.4679871144</ele><time>2009-08-12T09:41:56Z</time></trkpt>
<trkpt lat="46.27246857" lon="8.68274879"><ele>360.5050047696</ele><time>2009-08-12T09:41:58Z</time></trkpt>
<trkpt lat="46.27263260" lon="8.68284893"><ele>361.6990051248</ele><time>2009-08-12T09:42:01Z</time></trkpt>
<trkpt lat="46.27285385" lon="8.68285275"><ele>362.438995212</ele><time>2009-08-12T09:42:05Z</time></trkpt>
<trkpt lat="46.27289581" lon="8.68280888"><ele>362.1659852424</ele><time>2009-08-12T09:42:06Z</time></trkpt>
<trkpt lat="46.27317810" lon="8.68248463"><ele>361.8649903656</ele><time>2009-08-12T09:42:14Z</time></trkpt>
<trkpt lat="46.27334976" lon="8.68228626"><ele>362.2980041808</ele><time>2009-08-12T09:42:21Z</time></trkpt>
<trkpt lat="46.27350616" lon="8.68210506"><ele>363.0859984392</ele><time>2009-08-12T09:42:28Z</time></trkpt>
<trkpt lat="46.27367020" lon="8.68192959"><ele>364.7850036264</ele><time>2009-08-12T09:42:35Z</time></trkpt>
<trkpt lat="46.27388382" lon="8.68167019"><ele>367.319000184</ele><time>2009-08-12T09:42:45Z</time></trkpt>
<trkpt lat="46.27408981" lon="8.68145561"><ele>368.9190063312</ele><time>2009-08-12T09:42:54Z</time></trkpt>
<trkpt lat="46.27431488" lon="8.68124962"><ele>370.4840086368</ele><time>2009-08-12T09:43:02Z</time></trkpt>
<trkpt lat="46.27452850" lon="8.68109703"><ele>371.3829955104</ele><time>2009-08-12T09:43:10Z</time></trkpt>
<trkpt lat="46.27468491" lon="8.68095779"><ele>372.5539855992</ele><time>2009-08-12T09:43:16Z</time></trkpt>
<trkpt lat="46.27489471" lon="8.68073940"><ele>374.8020020328</ele><time>2009-08-12T09:43:24Z</time></trkpt>
<trkpt lat="46.27507019" lon="8.68042088"><ele>375.1059876072</ele><time>2009-08-12T09:43:33Z</time></trkpt>
<trkpt lat="46.27508163" lon="8.68014336"><ele>375.67800912</ele><time>2009-08-12T09:43:39Z</time></trkpt>
<trkpt lat="46.27502441" lon="8.67986202"><ele>378.2909851488</ele><time>2009-08-12T09:43:45Z</time></trkpt>
<trkpt lat="46.27507782" lon="8.67952061"><ele>382.963012584</ele><time>2009-08-12T09:43:52Z</time></trkpt>
<trkpt lat="46.27517319" lon="8.67923164"><ele>383.8880004216</ele><time>2009-08-12T09:43:59Z</time></trkpt>
<trkpt lat="46.27533722" lon="8.67891216"><ele>381.453002904</ele><time>2009-08-12T09:44:08Z</time></trkpt>
<trkpt lat="46.27548981" lon="8.67860603"><ele>381.7330016328</ele><time>2009-08-12T09:44:16Z</time></trkpt>
<trkpt lat="46.27552032" lon="8.67823887"><ele>383.3410032936</ele><time>2009-08-12T09:44:24Z</time></trkpt>
<trkpt lat="46.27558136" lon="8.67794323"><ele>384.0029907936</ele><time>2009-08-12T09:44:31Z</time></trkpt>
<trkpt lat="46.27573776" lon="8.67770767"><ele>384.4729920888</ele><time>2009-08-12T09:44:38Z</time></trkpt>
<trkpt lat="46.27589417" lon="8.67740154"><ele>384.8680113648</ele><time>2009-08-12T09:44:46Z</time></trkpt>
<trkpt lat="46.27601624" lon="8.67702103"><ele>385.6409911752</ele><time>2009-08-12T09:44:55Z</time></trkpt>
<trkpt lat="46.27609253" lon="8.67664623"><ele>386.5130005056</ele><time>2009-08-12T09:45:03Z</time></trkpt>
<trkpt lat="46.27618790" lon="8.67627716"><ele>387.5910034296</ele><time>2009-08-12T09:45:11Z</time></trkpt>
<trkpt lat="46.27632141" lon="8.67573357"><ele>390.5190125088</ele><time>2009-08-12T09:45:23Z</time></trkpt>
<trkpt lat="46.27646255" lon="8.67531013"><ele>392.7109984728</ele><time>2009-08-12T09:45:33Z</time></trkpt>
<trkpt lat="46.27665710" lon="8.67498207"><ele>393.842010384</ele><time>2009-08-12T09:45:42Z</time></trkpt>
<trkpt lat="46.27681351" lon="8.67469597"><ele>393.4859924016</ele><time>2009-08-12T09:45:49Z</time></trkpt>
<trkpt lat="46.27700424" lon="8.67452335"><ele>393.957000756</ele><time>2009-08-12T09:45:55Z</time></trkpt>
<trkpt lat="46.27722168" lon="8.67445660"><ele>395.3190001656</ele><time>2009-08-12T09:46:01Z</time></trkpt>
<trkpt lat="46.27728653" lon="8.67443371"><ele>395.4320068992</ele><time>2009-08-12T09:46:03Z</time></trkpt>
<trkpt lat="46.27738953" lon="8.67438126"><ele>395.2080078552</ele><time>2009-08-12T09:46:07Z</time></trkpt>
<trkpt lat="46.27759552" lon="8.67440033"><ele>394.6830139344</ele><time>2009-08-12T09:46:12Z</time></trkpt>
<trkpt lat="46.27780533" lon="8.67439938"><ele>394.2319946688</ele><time>2009-08-12T09:46:16Z</time></trkpt>
<trkpt lat="46.27814484" lon="8.67428780"><ele>395.8299866976</ele><time>2009-08-12T09:46:22Z</time></trkpt>
<trkpt lat="46.27841568" lon="8.67417908"><ele>397.2040098576</ele><time>2009-08-12T09:46:26Z</time></trkpt>
<trkpt lat="46.27874756" lon="8.67405128"><ele>397.180999896</ele><time>2009-08-12T09:46:31Z</time></trkpt>
<trkpt lat="46.27909851" lon="8.67393112"><ele>396.200988648</ele><time>2009-08-12T09:46:36Z</time></trkpt>
<trkpt lat="46.27940750" lon="8.67382336"><ele>396.8179931544</ele><time>2009-08-12T09:46:40Z</time></trkpt>
<trkpt lat="46.27965164" lon="8.67355061"><ele>397.2470092128</ele><time>2009-08-12T09:46:44Z</time></trkpt>
<trkpt lat="46.27996826" lon="8.67308426"><ele>395.3930053008</ele><time>2009-08-12T09:46:50Z</time></trkpt>
<trkpt lat="46.28002548" lon="8.67301083"><ele>394.9949950224</ele><time>2009-08-12T09:46:51Z</time></trkpt>
<trkpt lat="46.28018188" lon="8.67263222"><ele>394.1830139184</ele><time>2009-08-12T09:46:55Z</time></trkpt>
<trkpt lat="46.28027344" lon="8.67233086"><ele>392.2290039072</ele><time>2009-08-12T09:46:58Z</time></trkpt>
<trkpt lat="46.28055573" lon="8.67189312"><ele>388.3290098784</ele><time>2009-08-12T09:47:03Z</time></trkpt>
<trkpt lat="46.28087616" lon="8.67169476"><ele>385.2739866768</ele><time>2009-08-12T09:47:07Z</time></trkpt>
<trkpt lat="46.28095627" lon="8.67170238"><ele>383.6700135576</ele><time>2009-08-12T09:47:08Z</time></trkpt>
<trkpt lat="46.28112793" lon="8.67170334"><ele>381.8469849456</ele><time>2009-08-12T09:47:10Z</time></trkpt>
<trkpt lat="46.28144836" lon="8.67149067"><ele>379.8009948288</ele><time>2009-08-12T09:47:14Z</time></trkpt>
<trkpt lat="46.28213501" lon="8.67090321"><ele>376.5719908728</ele><time>2009-08-12T09:47:22Z</time></trkpt>
<trkpt lat="46.28281784" lon="8.67038059"><ele>374.494994976</ele><time>2009-08-12T09:47:29Z</time></trkpt>
<trkpt lat="46.28347778" lon="8.66985416"><ele>376.6350097968</ele><time>2009-08-12T09:47:36Z</time></trkpt>
<trkpt lat="46.28394318" lon="8.66952705"><ele>376.8980101344</ele><time>2009-08-12T09:47:42Z</time></trkpt>
<trkpt lat="46.28417206" lon="8.66926193"><ele>378.8649903</ele><time>2009-08-12T09:47:46Z</time></trkpt>
<trkpt lat="46.28425980" lon="8.66913033"><ele>379.5199890408</ele><time>2009-08-12T09:47:48Z</time></trkpt>
<trkpt lat="46.28451157" lon="8.66882324"><ele>382.911010656</ele><time>2009-08-12T09:47:54Z</time></trkpt>
<trkpt lat="46.28479767" lon="8.66848660"><ele>380.1830137752</ele><time>2009-08-12T09:48:03Z</time></trkpt>
<trkpt lat="46.28486633" lon="8.66841984"><ele>379.3269957768</ele><time>2009-08-12T09:48:05Z</time></trkpt>
<trkpt lat="46.28512192" lon="8.66818428"><ele>378.0310059888</ele><time>2009-08-12T09:48:12Z</time></trkpt>
<trkpt lat="46.28540421" lon="8.66789246"><ele>376.7099915112</ele><time>2009-08-12T09:48:20Z</time></trkpt>
<trkpt lat="46.28564453" lon="8.66755390"><ele>378.192993168</ele><time>2009-08-12T09:48:27Z</time></trkpt>
<trkpt lat="46.28586197" lon="8.66719627"><ele>379.1860047456</ele><time>2009-08-12T09:48:35Z</time></trkpt>
<trkpt lat="46.28602600" lon="8.66695690"><ele>379.3450012272</ele><time>2009-08-12T09:48:41Z</time></trkpt>
<trkpt lat="46.28624725" lon="8.66664314"><ele>379.4509887216</ele><time>2009-08-12T09:48:49Z</time></trkpt>
<trkpt lat="46.28636932" lon="8.66645527"><ele>379.2009887136</ele><time>2009-08-12T09:48:53Z</time></trkpt>
<trkpt lat="46.28647614" lon="8.66617584"><ele>378.7019957568</ele><time>2009-08-12T09:48:57Z</time></trkpt>
<trkpt lat="46.28661346" lon="8.66544628"><ele>377.8190002152</ele><time>2009-08-12T09:49:05Z</time></trkpt>
<trkpt lat="46.28673172" lon="8.66499043"><ele>379.5299986728</ele><time>2009-08-12T09:49:11Z</time></trkpt>
<trkpt lat="46.28677368" lon="8.66481018"><ele>380.1730041432</ele><time>2009-08-12T09:49:14Z</time></trkpt>
<trkpt lat="46.28678513" lon="8.66469383"><ele>380.2160034984</ele><time>2009-08-12T09:49:16Z</time></trkpt>
<trkpt lat="46.28684998" lon="8.66439438"><ele>381.9140013216</ele><time>2009-08-12T09:49:21Z</time></trkpt>
<trkpt lat="46.28698349" lon="8.66394234"><ele>383.9590148592</ele><time>2009-08-12T09:49:29Z</time></trkpt>
<trkpt lat="46.28709412" lon="8.66346931"><ele>385.3710020784</ele><time>2009-08-12T09:49:37Z</time></trkpt>
<trkpt lat="46.28724289" lon="8.66282558"><ele>387.406005984</ele><time>2009-08-12T09:49:48Z</time></trkpt>
<trkpt lat="46.28728867" lon="8.66260719"><ele>388.0190124288</ele><time>2009-08-12T09:49:52Z</time></trkpt>
<trkpt lat="46.28741837" lon="8.66222477"><ele>388.7139893472</ele><time>2009-08-12T09:49:59Z</time></trkpt>
<trkpt lat="46.28762436" lon="8.66168308"><ele>387.2969970072</ele><time>2009-08-12T09:50:09Z</time></trkpt>
<trkpt lat="46.28764725" lon="8.66155815"><ele>386.9960021304</ele><time>2009-08-12T09:50:11Z</time></trkpt>
<trkpt lat="46.28776932" lon="8.66131020"><ele>388.5400085928</ele><time>2009-08-12T09:50:15Z</time></trkpt>
<trkpt lat="46.28784943" lon="8.66118813"><ele>389.4479980392</ele><time>2009-08-12T09:50:17Z</time></trkpt>
<trkpt lat="46.28801727" lon="8.66095161"><ele>388.6600037808</ele><time>2009-08-12T09:50:21Z</time></trkpt>
<trkpt lat="46.28810120" lon="8.66060829"><ele>387.0239867328</ele><time>2009-08-12T09:50:25Z</time></trkpt>
<trkpt lat="46.28815079" lon="8.66009998"><ele>385.217986992</ele><time>2009-08-12T09:50:30Z</time></trkpt>
<trkpt lat="46.28829956" lon="8.65937519"><ele>383.8479920688</ele><time>2009-08-12T09:50:37Z</time></trkpt>
<trkpt lat="46.28851700" lon="8.65832615"><ele>381.7000122144</ele><time>2009-08-12T09:50:47Z</time></trkpt>
<trkpt lat="46.28862000" lon="8.65791416"><ele>381.2749939128</ele><time>2009-08-12T09:50:51Z</time></trkpt>
<trkpt lat="46.28874969" lon="8.65716839"><ele>381.5180054664</ele><time>2009-08-12T09:50:58Z</time></trkpt>
<trkpt lat="46.28884125" lon="8.65651703"><ele>380.5480041552</ele><time>2009-08-12T09:51:04Z</time></trkpt>
<trkpt lat="46.28890610" lon="8.65582848"><ele>380.0169983592</ele><time>2009-08-12T09:51:10Z</time></trkpt>
<trkpt lat="46.28907013" lon="8.65463161"><ele>378.8089906152</ele><time>2009-08-12T09:51:20Z</time></trkpt>
<trkpt lat="46.28921127" lon="8.65387344"><ele>378.6499938288</ele><time>2009-08-12T09:51:27Z</time></trkpt>
<trkpt lat="46.28938675" lon="8.65320015"><ele>379.3290098952</ele><time>2009-08-12T09:51:34Z</time></trkpt>
<trkpt lat="46.28965378" lon="8.65262985"><ele>378.9289854984</ele><time>2009-08-12T09:51:41Z</time></trkpt>
<trkpt lat="46.28998184" lon="8.65209961"><ele>381.8760070872</ele><time>2009-08-12T09:51:48Z</time></trkpt>
<trkpt lat="46.29031372" lon="8.65148830"><ele>383.3320007208</ele><time>2009-08-12T09:51:56Z</time></trkpt>
<trkpt lat="46.29068756" lon="8.65093899"><ele>385.5740052792</ele><time>2009-08-12T09:52:04Z</time></trkpt>
<trkpt lat="46.29102325" lon="8.65044880"><ele>383.1889952664</ele><time>2009-08-12T09:52:12Z</time></trkpt>
<trkpt lat="46.29129791" lon="8.64996338"><ele>386.5629883152</ele><time>2009-08-12T09:52:19Z</time></trkpt>
<trkpt lat="46.29153442" lon="8.64953423"><ele>383.6789856504</ele><time>2009-08-12T09:52:26Z</time></trkpt>
<trkpt lat="46.29175186" lon="8.64906693"><ele>381.4920045024</ele><time>2009-08-12T09:52:33Z</time></trkpt>
<trkpt lat="46.29190826" lon="8.64856052"><ele>378.3779906136</ele><time>2009-08-12T09:52:40Z</time></trkpt>
<trkpt lat="46.29193115" lon="8.64794636"><ele>382.7149962144</ele><time>2009-08-12T09:52:47Z</time></trkpt>
<trkpt lat="46.29192352" lon="8.64785004"><ele>384.052002024</ele><time>2009-08-12T09:52:48Z</time></trkpt>
<trkpt lat="46.29178619" lon="8.64722824"><ele>395.4710081928</ele><time>2009-08-12T09:52:54Z</time></trkpt>
<trkpt lat="46.29184341" lon="8.64663219"><ele>398.0480041056</ele><time>2009-08-12T09:53:01Z</time></trkpt>
<trkpt lat="46.29184341" lon="8.64605331"><ele>397.8810121104</ele><time>2009-08-12T09:53:08Z</time></trkpt>
<trkpt lat="46.29209900" lon="8.64564037"><ele>391.868988168</ele><time>2009-08-12T09:53:14Z</time></trkpt>
<trkpt lat="46.29222870" lon="8.64542389"><ele>389.6799925968</ele><time>2009-08-12T09:53:17Z</time></trkpt>
<trkpt lat="46.29243469" lon="8.64500713"><ele>386.795989932</ele><time>2009-08-12T09:53:23Z</time></trkpt>
<trkpt lat="46.29271317" lon="8.64473057"><ele>386.342987028</ele><time>2009-08-12T09:53:28Z</time></trkpt>
<trkpt lat="46.29306030" lon="8.64441204"><ele>388.8309935328</ele><time>2009-08-12T09:53:34Z</time></trkpt>
<trkpt lat="46.29311371" lon="8.64435101"><ele>389.7290038272</ele><time>2009-08-12T09:53:35Z</time></trkpt>
<trkpt lat="46.29332352" lon="8.64416981"><ele>395.6600037</ele><time>2009-08-12T09:53:39Z</time></trkpt>
<trkpt lat="46.29354477" lon="8.64378166"><ele>400.148986848</ele><time>2009-08-12T09:53:46Z</time></trkpt>
<trkpt lat="46.29370117" lon="8.64337444"><ele>392.4739990992</ele><time>2009-08-12T09:53:54Z</time></trkpt>
<trkpt lat="46.29372025" lon="8.64332485"><ele>391.7500000392</ele><time>2009-08-12T09:53:55Z</time></trkpt>
<trkpt lat="46.29367828" lon="8.64284801"><ele>392.477996856</ele><time>2009-08-12T09:54:03Z</time></trkpt>
<trkpt lat="46.29362488" lon="8.64257526"><ele>394.753997892</ele><time>2009-08-12T09:54:08Z</time></trkpt>
<trkpt lat="46.29363632" lon="8.64252377"><ele>394.5060120024</ele><time>2009-08-12T09:54:09Z</time></trkpt>
<trkpt lat="46.29374695" lon="8.64216995"><ele>395.0880126672</ele><time>2009-08-12T09:54:15Z</time></trkpt>
<trkpt lat="46.29373932" lon="8.64210033"><ele>395.930999856</ele><time>2009-08-12T09:54:16Z</time></trkpt>
<trkpt lat="46.29364777" lon="8.64173031"><ele>400.3370054712</ele><time>2009-08-12T09:54:21Z</time></trkpt>
<trkpt lat="46.29353333" lon="8.64129639"><ele>403.5750123048</ele><time>2009-08-12T09:54:27Z</time></trkpt>
<trkpt lat="46.29360199" lon="8.64109135"><ele>402.273986916</ele><time>2009-08-12T09:54:32Z</time></trkpt>
<trkpt lat="46.29374313" lon="8.64093685"><ele>399.2239990104</ele><time>2009-08-12T09:54:38Z</time></trkpt>
<trkpt lat="46.29364777" lon="8.64065647"><ele>396.3469848</ele><time>2009-08-12T09:54:43Z</time></trkpt>
<trkpt lat="46.29351807" lon="8.64023018"><ele>395.5580139624</ele><time>2009-08-12T09:54:49Z</time></trkpt>
<trkpt lat="46.29346466" lon="8.63984394"><ele>395.0700072168</ele><time>2009-08-12T09:54:54Z</time></trkpt>
<trkpt lat="46.29350662" lon="8.63938904"><ele>393.3980103576</ele><time>2009-08-12T09:55:00Z</time></trkpt>
<trkpt lat="46.29362869" lon="8.63894939"><ele>391.889007432</ele><time>2009-08-12T09:55:06Z</time></trkpt>
<trkpt lat="46.29387665" lon="8.63833141"><ele>391.899993948</ele><time>2009-08-12T09:55:15Z</time></trkpt>
<trkpt lat="46.29413986" lon="8.63765335"><ele>392.5669859592</ele><time>2009-08-12T09:55:25Z</time></trkpt>
<trkpt lat="46.29433823" lon="8.63704872"><ele>391.2000122136</ele><time>2009-08-12T09:55:34Z</time></trkpt>
<trkpt lat="46.29451370" lon="8.63649559"><ele>389.9129945184</ele><time>2009-08-12T09:55:42Z</time></trkpt>
<trkpt lat="46.29478073" lon="8.63579559"><ele>390.9549865416</ele><time>2009-08-12T09:55:52Z</time></trkpt>
<trkpt lat="46.29505920" lon="8.63503361"><ele>391.9389952416</ele><time>2009-08-12T09:56:03Z</time></trkpt>
<trkpt lat="46.29531479" lon="8.63429356"><ele>391.7200013184</ele><time>2009-08-12T09:56:14Z</time></trkpt>
<trkpt lat="46.29557037" lon="8.63353443"><ele>391.0740051504</ele><time>2009-08-12T09:56:25Z</time></trkpt>
<trkpt lat="46.29576492" lon="8.63298416"><ele>391.3039855896</ele><time>2009-08-12T09:56:33Z</time></trkpt>
<trkpt lat="46.29597855" lon="8.63235378"><ele>391.8919984344</ele><time>2009-08-12T09:56:42Z</time></trkpt>
<trkpt lat="46.29618835" lon="8.63179493"><ele>391.9500122376</ele><time>2009-08-12T09:56:50Z</time></trkpt>
<trkpt lat="46.29646683" lon="8.63101864"><ele>392.6510010312</ele><time>2009-08-12T09:57:01Z</time></trkpt>
<trkpt lat="46.29667282" lon="8.63045502"><ele>393.5549927208</ele><time>2009-08-12T09:57:09Z</time></trkpt>
<trkpt lat="46.29685211" lon="8.62990284"><ele>393.087005544</ele><time>2009-08-12T09:57:17Z</time></trkpt>
<trkpt lat="46.29706573" lon="8.62928867"><ele>394.7309876256</ele><time>2009-08-12T09:57:26Z</time></trkpt>
<trkpt lat="46.29727554" lon="8.62868404"><ele>394.9710081768</ele><time>2009-08-12T09:57:35Z</time></trkpt>
<trkpt lat="46.29752731" lon="8.62797260"><ele>395.8049927928</ele><time>2009-08-12T09:57:46Z</time></trkpt>
<trkpt lat="46.29775620" lon="8.62732887"><ele>397.273986756</ele><time>2009-08-12T09:57:56Z</time></trkpt>
<trkpt lat="46.29802704" lon="8.62670898"><ele>398.5369874304</ele><time>2009-08-12T09:58:06Z</time></trkpt>
<trkpt lat="46.29838181" lon="8.62599659"><ele>398.9240111928</ele><time>2009-08-12T09:58:17Z</time></trkpt>
<trkpt lat="46.29870605" lon="8.62535763"><ele>399.6459961344</ele><time>2009-08-12T09:58:27Z</time></trkpt>
<trkpt lat="46.29897308" lon="8.62486458"><ele>399.7829894088</ele><time>2009-08-12T09:58:35Z</time></trkpt>
<trkpt lat="46.29930496" lon="8.62434006"><ele>399.4809874728</ele><time>2009-08-12T09:58:44Z</time></trkpt>
<trkpt lat="46.29964447" lon="8.62382126"><ele>399.8649903624</ele><time>2009-08-12T09:58:53Z</time></trkpt>
<trkpt lat="46.29995728" lon="8.62327290"><ele>398.9849852136</ele><time>2009-08-12T09:59:02Z</time></trkpt>
<trkpt lat="46.30026245" lon="8.62265587"><ele>397.7049864528</ele><time>2009-08-12T09:59:12Z</time></trkpt>
<trkpt lat="46.30052185" lon="8.62211323"><ele>397.1870117712</ele><time>2009-08-12T09:59:21Z</time></trkpt>
<trkpt lat="46.30088043" lon="8.62154293"><ele>397.3829957328</ele><time>2009-08-12T09:59:31Z</time></trkpt>
<trkpt lat="46.30122375" lon="8.62106895"><ele>398.0580140424</ele><time>2009-08-12T09:59:40Z</time></trkpt>
<trkpt lat="46.30140686" lon="8.62080765"><ele>398.6610108552</ele><time>2009-08-12T09:59:45Z</time></trkpt>
<trkpt lat="46.30174637" lon="8.62033653"><ele>399.5390015808</ele><time>2009-08-12T09:59:54Z</time></trkpt>
<trkpt lat="46.30207443" lon="8.61988068"><ele>401.5360106424</ele><time>2009-08-12T10:00:03Z</time></trkpt>
<trkpt lat="46.30243683" lon="8.61935520"><ele>407.1109925328</ele><time>2009-08-12T10:00:13Z</time></trkpt>
<trkpt lat="46.30276489" lon="8.61891937"><ele>411.377014176</ele><time>2009-08-12T10:00:22Z</time></trkpt>
<trkpt lat="46.30308151" lon="8.61867714"><ele>410.2349852688</ele><time>2009-08-12T10:00:30Z</time></trkpt>
<trkpt lat="46.30335999" lon="8.61853027"><ele>412.292999136</ele><time>2009-08-12T10:00:37Z</time></trkpt>
<trkpt lat="46.30369568" lon="8.61833477"><ele>412.6510010616</ele><time>2009-08-12T10:00:46Z</time></trkpt>
<trkpt lat="46.30390549" lon="8.61808681"><ele>412.6350097296</ele><time>2009-08-12T10:00:53Z</time></trkpt>
<trkpt lat="46.30414581" lon="8.61775589"><ele>411.1019897832</ele><time>2009-08-12T10:01:02Z</time></trkpt>
<trkpt lat="46.30429077" lon="8.61761570"><ele>412.2739869312</ele><time>2009-08-12T10:01:08Z</time></trkpt>
<trkpt lat="46.30430984" lon="8.61760521"><ele>412.3179930408</ele><time>2009-08-12T10:01:11Z</time></trkpt>
<trkpt lat="46.30440521" lon="8.61743641"><ele>417.855010872</ele><time>2009-08-12T10:01:28Z</time></trkpt>
<trkpt lat="46.30457687" lon="8.61724186"><ele>419.8779907224</ele><time>2009-08-12T10:01:35Z</time></trkpt>
<trkpt lat="46.30474091" lon="8.61708546"><ele>421.1650084176</ele><time>2009-08-12T10:01:41Z</time></trkpt>
<trkpt lat="46.30488968" lon="8.61696529"><ele>419.9869993944</ele><time>2009-08-12T10:01:48Z</time></trkpt>
<trkpt lat="46.30490494" lon="8.61695862"><ele>417.9100038024</ele><time>2009-08-12T10:01:52Z</time></trkpt>
<trkpt lat="46.30497360" lon="8.61679363"><ele>408.9540099288</ele><time>2009-08-12T10:02:09Z</time></trkpt>
<trkpt lat="46.30512238" lon="8.61654854"><ele>405.6719969856</ele><time>2009-08-12T10:02:16Z</time></trkpt>
<trkpt lat="46.30531311" lon="8.61620998"><ele>402.9249879</ele><time>2009-08-12T10:02:24Z</time></trkpt>
<trkpt lat="46.30546570" lon="8.61602688"><ele>401.6159971728</ele><time>2009-08-12T10:02:29Z</time></trkpt>
<trkpt lat="46.30574799" lon="8.61559963"><ele>400.0790099496</ele><time>2009-08-12T10:02:39Z</time></trkpt>
<trkpt lat="46.30603790" lon="8.61516190"><ele>399.1929932304</ele><time>2009-08-12T10:02:48Z</time></trkpt>
<trkpt lat="46.30620956" lon="8.61470222"><ele>401.0069884848</ele><time>2009-08-12T10:02:55Z</time></trkpt>
<trkpt lat="46.30626678" lon="8.61447906"><ele>403.2219847152</ele><time>2009-08-12T10:02:58Z</time></trkpt>
<trkpt lat="46.30640793" lon="8.61391354"><ele>402.8299866168</ele><time>2009-08-12T10:03:06Z</time></trkpt>
<trkpt lat="46.30651855" lon="8.61350632"><ele>421.9479981648</ele><time>2009-08-12T10:03:10Z</time></trkpt>
<trkpt lat="46.30660248" lon="8.61320591"><ele>425.0639953872</ele><time>2009-08-12T10:03:15Z</time></trkpt>
<trkpt lat="46.30662918" lon="8.61309719"><ele>423.520995984</ele><time>2009-08-12T10:03:17Z</time></trkpt>
<trkpt lat="46.30667114" lon="8.61297035"><ele>422.83898922</ele><time>2009-08-12T10:03:19Z</time></trkpt>
<trkpt lat="46.30685043" lon="8.61251545"><ele>420.0610045296</ele><time>2009-08-12T10:03:26Z</time></trkpt>
<trkpt lat="46.30711365" lon="8.61203480"><ele>417.8330076648</ele><time>2009-08-12T10:03:34Z</time></trkpt>
<trkpt lat="46.30738449" lon="8.61165905"><ele>417.4060057248</ele><time>2009-08-12T10:03:41Z</time></trkpt>
<trkpt lat="46.30763626" lon="8.61140919"><ele>416.2300111248</ele><time>2009-08-12T10:03:47Z</time></trkpt>
<trkpt lat="46.30801392" lon="8.61106777"><ele>417.574005084</ele><time>2009-08-12T10:03:55Z</time></trkpt>
<trkpt lat="46.30833054" lon="8.61075878"><ele>416.7630005592</ele><time>2009-08-12T10:04:02Z</time></trkpt>
<trkpt lat="46.30844116" lon="8.61059189"><ele>415.8699950808</ele><time>2009-08-12T10:04:05Z</time></trkpt>
<trkpt lat="46.30858994" lon="8.61048794"><ele>416.647003128</ele><time>2009-08-12T10:04:09Z</time></trkpt>
<trkpt lat="46.30889130" lon="8.61054039"><ele>415.6130066184</ele><time>2009-08-12T10:04:16Z</time></trkpt>
<trkpt lat="46.30892944" lon="8.61055088"><ele>415.287994416</ele><time>2009-08-12T10:04:17Z</time></trkpt>
<trkpt lat="46.30908203" lon="8.61050320"><ele>413.5339966032</ele><time>2009-08-12T10:04:21Z</time></trkpt>
<trkpt lat="46.30911255" lon="8.61032391"><ele>411.63198852</ele><time>2009-08-12T10:04:24Z</time></trkpt>
<trkpt lat="46.30910873" lon="8.60960579"><ele>404.33599854</ele><time>2009-08-12T10:04:34Z</time></trkpt>
<trkpt lat="46.30910492" lon="8.60945225"><ele>402.8800049064</ele><time>2009-08-12T10:04:36Z</time></trkpt>
<trkpt lat="46.30920410" lon="8.60905838"><ele>399.1140137592</ele><time>2009-08-12T10:04:41Z</time></trkpt>
<trkpt lat="46.30924606" lon="8.60898685"><ele>398.4270018744</ele><time>2009-08-12T10:04:42Z</time></trkpt>
<trkpt lat="46.30953979" lon="8.60846138"><ele>394.2319946688</ele><time>2009-08-12T10:04:49Z</time></trkpt>
<trkpt lat="46.30978775" lon="8.60812187"><ele>392.7300109824</ele><time>2009-08-12T10:04:54Z</time></trkpt>
<trkpt lat="46.31013489" lon="8.60785294"><ele>396.9419860992</ele><time>2009-08-12T10:05:00Z</time></trkpt>
<trkpt lat="46.31050491" lon="8.60749245"><ele>408.0079954632</ele><time>2009-08-12T10:05:07Z</time></trkpt>
<trkpt lat="46.31079102" lon="8.60707283"><ele>420.324005172</ele><time>2009-08-12T10:05:14Z</time></trkpt>
<trkpt lat="46.31116867" lon="8.60680580"><ele>419.1749878104</ele><time>2009-08-12T10:05:21Z</time></trkpt>
<trkpt lat="46.31168365" lon="8.60646915"><ele>412.9679869656</ele><time>2009-08-12T10:05:31Z</time></trkpt>
<trkpt lat="46.31334686" lon="8.60506821"><ele>414.4899902208</ele><time>2009-08-12T10:06:06Z</time></trkpt>
<trkpt lat="46.31379700" lon="8.60468960"><ele>412.4360045904</ele><time>2009-08-12T10:06:15Z</time></trkpt>
<trkpt lat="46.31431198" lon="8.60425186"><ele>410.773010304</ele><time>2009-08-12T10:06:24Z</time></trkpt>
<trkpt lat="46.31487274" lon="8.60377979"><ele>409.690002564</ele><time>2009-08-12T10:06:33Z</time></trkpt>
<trkpt lat="46.31550980" lon="8.60328102"><ele>409.03900158</ele><time>2009-08-12T10:06:43Z</time></trkpt>
<trkpt lat="46.31611633" lon="8.60293961"><ele>408.7330015824</ele><time>2009-08-12T10:06:52Z</time></trkpt>
<trkpt lat="46.31664658" lon="8.60272884"><ele>409.157989404</ele><time>2009-08-12T10:07:00Z</time></trkpt>
<trkpt lat="46.31708145" lon="8.60258007"><ele>409.5880128264</ele><time>2009-08-12T10:07:07Z</time></trkpt>
<trkpt lat="46.31766891" lon="8.60238361"><ele>408.9590147448</ele><time>2009-08-12T10:07:16Z</time></trkpt>
<trkpt lat="46.31819916" lon="8.60227299"><ele>408.0180054</ele><time>2009-08-12T10:07:23Z</time></trkpt>
<trkpt lat="46.31874084" lon="8.60229111"><ele>407.9880066792</ele><time>2009-08-12T10:07:30Z</time></trkpt>
<trkpt lat="46.31947327" lon="8.60236835"><ele>408.2250060528</ele><time>2009-08-12T10:07:40Z</time></trkpt>
<trkpt lat="46.32012558" lon="8.60243130"><ele>408.7919922696</ele><time>2009-08-12T10:07:49Z</time></trkpt>
<trkpt lat="46.32079697" lon="8.60247326"><ele>409.8840025824</ele><time>2009-08-12T10:07:59Z</time></trkpt>
<trkpt lat="46.32135773" lon="8.60254002"><ele>411.8429869296</ele><time>2009-08-12T10:08:08Z</time></trkpt>
<trkpt lat="46.32192612" lon="8.60268784"><ele>411.5570068056</ele><time>2009-08-12T10:08:17Z</time></trkpt>
<trkpt lat="46.32259369" lon="8.60289764"><ele>406.7430114552</ele><time>2009-08-12T10:08:27Z</time></trkpt>
<trkpt lat="46.32288742" lon="8.60311508"><ele>403.0750122888</ele><time>2009-08-12T10:08:32Z</time></trkpt>
<trkpt lat="46.32346344" lon="8.60357857"><ele>409.976013168</ele><time>2009-08-12T10:08:42Z</time></trkpt>
<trkpt lat="46.32401276" lon="8.60403919"><ele>410.9429933016</ele><time>2009-08-12T10:08:53Z</time></trkpt>
<trkpt lat="46.32453918" lon="8.60446262"><ele>415.329986712</ele><time>2009-08-12T10:09:04Z</time></trkpt>
<trkpt lat="46.32513046" lon="8.60496140"><ele>417.4410095664</ele><time>2009-08-12T10:09:17Z</time></trkpt>
<trkpt lat="46.32554245" lon="8.60531902"><ele>413.959991484</ele><time>2009-08-12T10:09:27Z</time></trkpt>
<trkpt lat="46.32584000" lon="8.60555267"><ele>414.1340027184</ele><time>2009-08-12T10:09:34Z</time></trkpt>
<trkpt lat="46.32606506" lon="8.60561562"><ele>414.1090088136</ele><time>2009-08-12T10:09:39Z</time></trkpt>
<trkpt lat="46.32611847" lon="8.60562515"><ele>414.8099976072</ele><time>2009-08-12T10:09:40Z</time></trkpt>
<trkpt lat="46.32646942" lon="8.60567284"><ele>415.9450072752</ele><time>2009-08-12T10:09:47Z</time></trkpt>
<trkpt lat="46.32689285" lon="8.60571957"><ele>418.407012816</ele><time>2009-08-12T10:09:56Z</time></trkpt>
<trkpt lat="46.32711029" lon="8.60577774"><ele>418.6870118496</ele><time>2009-08-12T10:10:01Z</time></trkpt>
<trkpt lat="46.32765961" lon="8.60608578"><ele>419.3869932792</ele><time>2009-08-12T10:10:13Z</time></trkpt>
<trkpt lat="46.32820892" lon="8.60640717"><ele>421.7850036216</ele><time>2009-08-12T10:10:25Z</time></trkpt>
<trkpt lat="46.32855606" lon="8.60656166"><ele>423.5750123352</ele><time>2009-08-12T10:10:33Z</time></trkpt>
<trkpt lat="46.32894516" lon="8.60664845"><ele>423.6289979016</ele><time>2009-08-12T10:10:41Z</time></trkpt>
<trkpt lat="46.32941818" lon="8.60673523"><ele>423.0639953232</ele><time>2009-08-12T10:10:49Z</time></trkpt>
<trkpt lat="46.33001328" lon="8.60678101"><ele>422.489990172</ele><time>2009-08-12T10:10:58Z</time></trkpt>
<trkpt lat="46.33069229" lon="8.60672855"><ele>427.3500060552</ele><time>2009-08-12T10:11:08Z</time></trkpt>
<trkpt lat="46.33131027" lon="8.60666847"><ele>430.4400023136</ele><time>2009-08-12T10:11:18Z</time></trkpt>
<trkpt lat="46.33204651" lon="8.60657978"><ele>433.6619873352</ele><time>2009-08-12T10:11:30Z</time></trkpt>
<trkpt lat="46.33267975" lon="8.60651112"><ele>436.3840028208</ele><time>2009-08-12T10:11:41Z</time></trkpt>
<trkpt lat="46.33312225" lon="8.60644245"><ele>430.9920042576</ele><time>2009-08-12T10:11:50Z</time></trkpt>
<trkpt lat="46.33366776" lon="8.60641098"><ele>435.5889893232</ele><time>2009-08-12T10:12:00Z</time></trkpt>
<trkpt lat="46.33407211" lon="8.60640430"><ele>436.2839967216</ele><time>2009-08-12T10:12:08Z</time></trkpt>
<trkpt lat="46.33460236" lon="8.60641670"><ele>438.852996816</ele><time>2009-08-12T10:12:19Z</time></trkpt>
<trkpt lat="46.33492661" lon="8.60642242"><ele>442.1969908392</ele><time>2009-08-12T10:12:26Z</time></trkpt>
<trkpt lat="46.33532715" lon="8.60642910"><ele>443.9649963456</ele><time>2009-08-12T10:12:35Z</time></trkpt>
<trkpt lat="46.33569336" lon="8.60647488"><ele>444.6220092048</ele><time>2009-08-12T10:12:43Z</time></trkpt>
<trkpt lat="46.33613205" lon="8.60651302"><ele>444.285003732</ele><time>2009-08-12T10:12:52Z</time></trkpt>
<trkpt lat="46.33659363" lon="8.60659599"><ele>446.3439941784</ele><time>2009-08-12T10:13:01Z</time></trkpt>
<trkpt lat="46.33708191" lon="8.60670757"><ele>448.9809875328</ele><time>2009-08-12T10:13:11Z</time></trkpt>
<trkpt lat="46.33752823" lon="8.60678196"><ele>448.493011572</ele><time>2009-08-12T10:13:20Z</time></trkpt>
<trkpt lat="46.33789825" lon="8.60694027"><ele>449.7279968592</ele><time>2009-08-12T10:13:27Z</time></trkpt>
<trkpt lat="46.33844757" lon="8.60722828"><ele>447.5159913264</ele><time>2009-08-12T10:13:37Z</time></trkpt>
<trkpt lat="46.33888245" lon="8.60743237"><ele>446.4190063728</ele><time>2009-08-12T10:13:45Z</time></trkpt>
<trkpt lat="46.33932114" lon="8.60758877"><ele>447.1789855488</ele><time>2009-08-12T10:13:53Z</time></trkpt>
<trkpt lat="46.33972168" lon="8.60765553"><ele>446.9679871392</ele><time>2009-08-12T10:14:00Z</time></trkpt>
<trkpt lat="46.34011078" lon="8.60764694"><ele>445.842010524</ele><time>2009-08-12T10:14:07Z</time></trkpt>
<trkpt lat="46.34037781" lon="8.60768604"><ele>446.7909852072</ele><time>2009-08-12T10:14:13Z</time></trkpt>
<trkpt lat="46.34046936" lon="8.60783195"><ele>448.6919862312</ele><time>2009-08-12T10:14:17Z</time></trkpt>
<trkpt lat="46.34058380" lon="8.60822392"><ele>449.26300038</ele><time>2009-08-12T10:14:25Z</time></trkpt>
<trkpt lat="46.34067535" lon="8.60851383"><ele>453.9899902656</ele><time>2009-08-12T10:14:31Z</time></trkpt>
<trkpt lat="46.34080887" lon="8.60886478"><ele>455.5769957784</ele><time>2009-08-12T10:14:39Z</time></trkpt>
<trkpt lat="46.34098434" lon="8.60904312"><ele>458.7200013288</ele><time>2009-08-12T10:14:45Z</time></trkpt>
<trkpt lat="46.34116745" lon="8.60926437"><ele>456.950012184</ele><time>2009-08-12T10:14:53Z</time></trkpt>
<trkpt lat="46.34143066" lon="8.60947609"><ele>459.6359862888</ele><time>2009-08-12T10:15:01Z</time></trkpt>
<trkpt lat="46.34171295" lon="8.60961246"><ele>457.4230041768</ele><time>2009-08-12T10:15:10Z</time></trkpt>
<trkpt lat="46.34196472" lon="8.60964870"><ele>458.0429993808</ele><time>2009-08-12T10:15:18Z</time></trkpt>
<trkpt lat="46.34221649" lon="8.60966587"><ele>460.0000000896</ele><time>2009-08-12T10:15:26Z</time></trkpt>
<trkpt lat="46.34248734" lon="8.60970497"><ele>460.4869994712</ele><time>2009-08-12T10:15:35Z</time></trkpt>
<trkpt lat="46.34278107" lon="8.60980225"><ele>461.028015204</ele><time>2009-08-12T10:15:44Z</time></trkpt>
<trkpt lat="46.34303665" lon="8.60990429"><ele>463.9159851456</ele><time>2009-08-12T10:15:51Z</time></trkpt>
<trkpt lat="46.34326553" lon="8.61001301"><ele>468.135986256</ele><time>2009-08-12T10:15:58Z</time></trkpt>
<trkpt lat="46.34348679" lon="8.61016941"><ele>467.0989990488</ele><time>2009-08-12T10:16:08Z</time></trkpt>
<trkpt lat="46.34367371" lon="8.61031914"><ele>466.8359984064</ele><time>2009-08-12T10:16:17Z</time></trkpt>
<trkpt lat="46.34381866" lon="8.61043167"><ele>467.1300048288</ele><time>2009-08-12T10:16:25Z</time></trkpt>
<trkpt lat="46.34383011" lon="8.61043644"><ele>467.6119993944</ele><time>2009-08-12T10:16:27Z</time></trkpt>
<trkpt lat="46.34383011" lon="8.61046696"><ele>464.5440063432</ele><time>2009-08-12T10:18:40Z</time></trkpt>
<trkpt lat="46.34398270" lon="8.61054420"><ele>467.194000332</ele><time>2009-08-12T10:18:46Z</time></trkpt>
<trkpt lat="46.34419632" lon="8.61066914"><ele>469.5079956024</ele><time>2009-08-12T10:18:54Z</time></trkpt>
<trkpt lat="46.34450150" lon="8.61085033"><ele>471.9400024224</ele><time>2009-08-12T10:19:05Z</time></trkpt>
<trkpt lat="46.34470367" lon="8.61098766"><ele>470.3320007616</ele><time>2009-08-12T10:19:13Z</time></trkpt>
<trkpt lat="46.34493637" lon="8.61114597"><ele>469.5969850104</ele><time>2009-08-12T10:19:22Z</time></trkpt>
<trkpt lat="46.34513855" lon="8.61127281"><ele>470.6860046256</ele><time>2009-08-12T10:19:30Z</time></trkpt>
<trkpt lat="46.34538269" lon="8.61143112"><ele>472.1900024304</ele><time>2009-08-12T10:19:40Z</time></trkpt>
<trkpt lat="46.34561920" lon="8.61159229"><ele>472.1940001872</ele><time>2009-08-12T10:19:50Z</time></trkpt>
<trkpt lat="46.34580231" lon="8.61169815"><ele>475.45800768</ele><time>2009-08-12T10:19:58Z</time></trkpt>
<trkpt lat="46.34597015" lon="8.61180687"><ele>476.8299865464</ele><time>2009-08-12T10:20:06Z</time></trkpt>
<trkpt lat="46.34620285" lon="8.61195374"><ele>476.1730041672</ele><time>2009-08-12T10:20:15Z</time></trkpt>
<trkpt lat="46.34648514" lon="8.61213875"><ele>476.60900868</ele><time>2009-08-12T10:20:25Z</time></trkpt>
<trkpt lat="46.34682083" lon="8.61236286"><ele>478.6679991264</ele><time>2009-08-12T10:20:37Z</time></trkpt>
<trkpt lat="46.34710312" lon="8.61254597"><ele>481.894988964</ele><time>2009-08-12T10:20:48Z</time></trkpt>
<trkpt lat="46.34726715" lon="8.61265278"><ele>485.5339964688</ele><time>2009-08-12T10:20:57Z</time></trkpt>
<trkpt lat="46.34737778" lon="8.61276531"><ele>485.9200134768</ele><time>2009-08-12T10:21:04Z</time></trkpt>
<trkpt lat="46.34749985" lon="8.61290932"><ele>486.1719971232</ele><time>2009-08-12T10:21:11Z</time></trkpt>
<trkpt lat="46.34774017" lon="8.61320972"><ele>492.6260069736</ele><time>2009-08-12T10:21:24Z</time></trkpt>
<trkpt lat="46.34786224" lon="8.61344910"><ele>494.8320006312</ele><time>2009-08-12T10:21:33Z</time></trkpt>
<trkpt lat="46.34792709" lon="8.61366367"><ele>496.414001328</ele><time>2009-08-12T10:21:41Z</time></trkpt>
<trkpt lat="46.34801865" lon="8.61392593"><ele>502.7869874136</ele><time>2009-08-12T10:21:49Z</time></trkpt>
<trkpt lat="46.34812164" lon="8.61410904"><ele>504.6990051288</ele><time>2009-08-12T10:21:56Z</time></trkpt>
<trkpt lat="46.34825897" lon="8.61435795"><ele>503.867004456</ele><time>2009-08-12T10:22:06Z</time></trkpt>
<trkpt lat="46.34838104" lon="8.61456871"><ele>502.5690002448</ele><time>2009-08-12T10:22:15Z</time></trkpt>
<trkpt lat="46.34849548" lon="8.61478806"><ele>501.8439941256</ele><time>2009-08-12T10:22:24Z</time></trkpt>
<trkpt lat="46.34838104" lon="8.61505222"><ele>481.0220030544</ele><time>2009-08-12T10:22:40Z</time></trkpt>
<trkpt lat="46.34830856" lon="8.61526775"><ele>478.7520141984</ele><time>2009-08-12T10:22:48Z</time></trkpt>
<trkpt lat="46.34825134" lon="8.61547184"><ele>480.9280091352</ele><time>2009-08-12T10:22:55Z</time></trkpt>
<trkpt lat="46.34833145" lon="8.61581898"><ele>497.4689942904</ele><time>2009-08-12T10:23:04Z</time></trkpt>
<trkpt lat="46.34846115" lon="8.61603069"><ele>503.4349977</ele><time>2009-08-12T10:23:11Z</time></trkpt>
<trkpt lat="46.34859848" lon="8.61616421"><ele>507.9320068416</ele><time>2009-08-12T10:23:18Z</time></trkpt>
<trkpt lat="46.34876633" lon="8.61633492"><ele>511.2009886704</ele><time>2009-08-12T10:23:28Z</time></trkpt>
<trkpt lat="46.34894943" lon="8.61652374"><ele>512.9639893608</ele><time>2009-08-12T10:23:40Z</time></trkpt>
<trkpt lat="46.34911346" lon="8.61671352"><ele>521.2910156328</ele><time>2009-08-12T10:23:50Z</time></trkpt>
<trkpt lat="46.34925461" lon="8.61682510"><ele>522.1290281808</ele><time>2009-08-12T10:23:59Z</time></trkpt>
<trkpt lat="46.34944153" lon="8.61699009"><ele>534.5070189696</ele><time>2009-08-12T10:24:10Z</time></trkpt>
<trkpt lat="46.34955215" lon="8.61706257"><ele>533.723022468</ele><time>2009-08-12T10:24:19Z</time></trkpt>
<trkpt lat="46.34962082" lon="8.61707783"><ele>528.567016524</ele><time>2009-08-12T10:24:27Z</time></trkpt>
<trkpt lat="46.34968567" lon="8.61710644"><ele>528.4169921352</ele><time>2009-08-12T10:24:32Z</time></trkpt>
<trkpt lat="46.34978104" lon="8.61716843"><ele>527.7100219464</ele><time>2009-08-12T10:24:39Z</time></trkpt>
<trkpt lat="46.34985733" lon="8.61719036"><ele>527.921020356</ele><time>2009-08-12T10:24:43Z</time></trkpt>
<trkpt lat="46.34990311" lon="8.61710644"><ele>532.5050047872</ele><time>2009-08-12T10:24:49Z</time></trkpt>
<trkpt lat="46.34981537" lon="8.61703873"><ele>533.4400025616</ele><time>2009-08-12T10:24:55Z</time></trkpt>
<trkpt lat="46.34980011" lon="8.61702824"><ele>533.9530029072</ele><time>2009-08-12T10:24:56Z</time></trkpt>
<trkpt lat="46.34964371" lon="8.61688805"><ele>534.4860228216</ele><time>2009-08-12T10:25:06Z</time></trkpt>
<trkpt lat="46.34956360" lon="8.61681080"><ele>537.74902356</ele><time>2009-08-12T10:25:12Z</time></trkpt>
<trkpt lat="46.34957123" lon="8.61672306"><ele>534.414977904</ele><time>2009-08-12T10:25:16Z</time></trkpt>
<trkpt lat="46.34962463" lon="8.61677837"><ele>533.5130006376</ele><time>2009-08-12T10:25:20Z</time></trkpt>
<trkpt lat="46.34965515" lon="8.61680984"><ele>533.2160035176</ele><time>2009-08-12T10:25:22Z</time></trkpt>
<trkpt lat="46.34981918" lon="8.61691093"><ele>529.9539793584</ele><time>2009-08-12T10:25:32Z</time></trkpt>
<trkpt lat="46.35000992" lon="8.61705685"><ele>529.6979979552</ele><time>2009-08-12T10:25:44Z</time></trkpt>
<trkpt lat="46.35007858" lon="8.61710835"><ele>529.5390014736</ele><time>2009-08-12T10:25:49Z</time></trkpt>
<trkpt lat="46.35015488" lon="8.61716461"><ele>530.5789793784</ele><time>2009-08-12T10:25:55Z</time></trkpt>
<trkpt lat="46.35026550" lon="8.61726856"><ele>531.1290284688</ele><time>2009-08-12T10:26:04Z</time></trkpt>
<trkpt lat="46.35034180" lon="8.61734104"><ele>531.1959838848</ele><time>2009-08-12T10:26:11Z</time></trkpt>
<trkpt lat="46.35047531" lon="8.61745930"><ele>531.6749877528</ele><time>2009-08-12T10:26:20Z</time></trkpt>
<trkpt lat="46.35060501" lon="8.61758041"><ele>531.9240111816</ele><time>2009-08-12T10:26:29Z</time></trkpt>
<trkpt lat="46.35076141" lon="8.61773205"><ele>533.2089842784</ele><time>2009-08-12T10:26:40Z</time></trkpt>
<trkpt lat="46.35086441" lon="8.61783600"><ele>535.3189695936</ele><time>2009-08-12T10:26:47Z</time></trkpt>
<trkpt lat="46.35099411" lon="8.61801243"><ele>540.0079957248</ele><time>2009-08-12T10:26:57Z</time></trkpt>
<trkpt lat="46.35105515" lon="8.61813068"><ele>540.4609986288</ele><time>2009-08-12T10:27:03Z</time></trkpt>
<trkpt lat="46.35114288" lon="8.61827755"><ele>539.9920043928</ele><time>2009-08-12T10:27:10Z</time></trkpt>
<trkpt lat="46.35126495" lon="8.61849022"><ele>539.763977112</ele><time>2009-08-12T10:27:19Z</time></trkpt>
<trkpt lat="46.35139465" lon="8.61861324"><ele>538.8939819</ele><time>2009-08-12T10:27:26Z</time></trkpt>
<trkpt lat="46.35159683" lon="8.61870193"><ele>537.4760132856</ele><time>2009-08-12T10:27:35Z</time></trkpt>
<trkpt lat="46.35168457" lon="8.61885929"><ele>539.1359863944</ele><time>2009-08-12T10:27:41Z</time></trkpt>
<trkpt lat="46.35177612" lon="8.61903667"><ele>533.7429810768</ele><time>2009-08-12T10:27:49Z</time></trkpt>
<trkpt lat="46.35190582" lon="8.61926937"><ele>535.6840209336</ele><time>2009-08-12T10:27:58Z</time></trkpt>
<trkpt lat="46.35193253" lon="8.61952019"><ele>534.1270141416</ele><time>2009-08-12T10:28:06Z</time></trkpt>
<trkpt lat="46.35198212" lon="8.61980343"><ele>532.6149903432</ele><time>2009-08-12T10:28:15Z</time></trkpt>
<trkpt lat="46.35209274" lon="8.62001801"><ele>531.4229736264</ele><time>2009-08-12T10:28:24Z</time></trkpt>
<trkpt lat="46.35224915" lon="8.62023354"><ele>535.1140135392</ele><time>2009-08-12T10:28:34Z</time></trkpt>
<trkpt lat="46.35240555" lon="8.62047482"><ele>537.7709959824</ele><time>2009-08-12T10:28:45Z</time></trkpt>
<trkpt lat="46.35252380" lon="8.62079334"><ele>540.0670165872</ele><time>2009-08-12T10:28:57Z</time></trkpt>
<trkpt lat="46.35255051" lon="8.62092876"><ele>540.6510008904</ele><time>2009-08-12T10:29:03Z</time></trkpt>
<trkpt lat="46.35251617" lon="8.62114525"><ele>536.046020616</ele><time>2009-08-12T10:29:12Z</time></trkpt>
<trkpt lat="46.35248184" lon="8.62129402"><ele>529.2280274448</ele><time>2009-08-12T10:29:20Z</time></trkpt>
<trkpt lat="46.35247040" lon="8.62131882"><ele>528.5159911752</ele><time>2009-08-12T10:29:22Z</time></trkpt>
<trkpt lat="46.35251617" lon="8.62147617"><ele>524.7440186328</ele><time>2009-08-12T10:29:31Z</time></trkpt>
<trkpt lat="46.35257339" lon="8.62159538"><ele>522.963989376</ele><time>2009-08-12T10:29:37Z</time></trkpt>
<trkpt lat="46.35258865" lon="8.62162876"><ele>522.3729858336</ele><time>2009-08-12T10:29:39Z</time></trkpt>
<trkpt lat="46.35260391" lon="8.62172413"><ele>519.3150024144</ele><time>2009-08-12T10:29:46Z</time></trkpt>
<trkpt lat="46.35264587" lon="8.62185955"><ele>519.2119751376</ele><time>2009-08-12T10:29:52Z</time></trkpt>
<trkpt lat="46.35271072" lon="8.62199497"><ele>519.0460203768</ele><time>2009-08-12T10:29:58Z</time></trkpt>
<trkpt lat="46.35279083" lon="8.62216759"><ele>520.890991236</ele><time>2009-08-12T10:30:06Z</time></trkpt>
<trkpt lat="46.35284805" lon="8.62235069"><ele>520.2960204168</ele><time>2009-08-12T10:30:16Z</time></trkpt>
<trkpt lat="46.35288620" lon="8.62247944"><ele>519.8359985784</ele><time>2009-08-12T10:30:24Z</time></trkpt>
<trkpt lat="46.35289764" lon="8.62259483"><ele>519.0759886176</ele><time>2009-08-12T10:30:31Z</time></trkpt>
<trkpt lat="46.35287857" lon="8.62270641"><ele>521.9929810056</ele><time>2009-08-12T10:30:37Z</time></trkpt>
<trkpt lat="46.35279465" lon="8.62283039"><ele>526.1259766512</ele><time>2009-08-12T10:30:45Z</time></trkpt>
<trkpt lat="46.35269928" lon="8.62298870"><ele>531.0499877328</ele><time>2009-08-12T10:30:54Z</time></trkpt>
<trkpt lat="46.35265350" lon="8.62317944"><ele>532.1770018872</ele><time>2009-08-12T10:31:02Z</time></trkpt>
<trkpt lat="46.35259628" lon="8.62339973"><ele>532.9769897208</ele><time>2009-08-12T10:31:12Z</time></trkpt>
<trkpt lat="46.35257721" lon="8.62354279"><ele>534.9180298824</ele><time>2009-08-12T10:31:19Z</time></trkpt>
<trkpt lat="46.35258102" lon="8.62358093"><ele>534.9630125712</ele><time>2009-08-12T10:31:21Z</time></trkpt>
<trkpt lat="46.35267258" lon="8.62381554"><ele>529.5300293808</ele><time>2009-08-12T10:31:31Z</time></trkpt>
<trkpt lat="46.35274124" lon="8.62398624"><ele>527.9240113584</ele><time>2009-08-12T10:31:40Z</time></trkpt>
<trkpt lat="46.35280991" lon="8.62417889"><ele>535.322021556</ele><time>2009-08-12T10:31:49Z</time></trkpt>
<trkpt lat="46.35284042" lon="8.62431622"><ele>537.1820068632</ele><time>2009-08-12T10:31:56Z</time></trkpt>
<trkpt lat="46.35281372" lon="8.62450981"><ele>537.7789918008</ele><time>2009-08-12T10:32:05Z</time></trkpt>
<trkpt lat="46.35276413" lon="8.62471581"><ele>538.909973232</ele><time>2009-08-12T10:32:14Z</time></trkpt>
<trkpt lat="46.35269165" lon="8.62493324"><ele>540.3319700832</ele><time>2009-08-12T10:32:24Z</time></trkpt>
<trkpt lat="46.35264206" lon="8.62509918"><ele>541.6090089312</ele><time>2009-08-12T10:32:32Z</time></trkpt>
<trkpt lat="46.35267258" lon="8.62515354"><ele>547.0109863416</ele><time>2009-08-12T10:32:37Z</time></trkpt>
<trkpt lat="46.35269165" lon="8.62515926"><ele>559.854980364</ele><time>2009-08-12T10:32:45Z</time></trkpt>
<trkpt lat="46.35269165" lon="8.62515926"><ele>561.8690186016</ele><time>2009-08-12T10:32:46Z</time></trkpt>
<trkpt lat="46.35288620" lon="8.62521744"><ele>620.6400148008</ele><time>2009-08-12T10:34:09Z</time></trkpt>
<trkpt lat="46.35285187" lon="8.62541199"><ele>611.7440186736</ele><time>2009-08-12T10:34:16Z</time></trkpt>
<trkpt lat="46.35280228" lon="8.62568665"><ele>607.0750121112</ele><time>2009-08-12T10:34:24Z</time></trkpt>
<trkpt lat="46.35281372" lon="8.62604427"><ele>604.2550049496</ele><time>2009-08-12T10:34:34Z</time></trkpt>
<trkpt lat="46.35285187" lon="8.62627125"><ele>602.2600097016</ele><time>2009-08-12T10:34:41Z</time></trkpt>
<trkpt lat="46.35290146" lon="8.62645435"><ele>602.0349731184</ele><time>2009-08-12T10:34:48Z</time></trkpt>
<trkpt lat="46.35290146" lon="8.62646198"><ele>602.693969616</ele><time>2009-08-12T10:34:49Z</time></trkpt>
<trkpt lat="46.35293961" lon="8.62660217"><ele>602.1160279728</ele><time>2009-08-12T10:35:16Z</time></trkpt>
<trkpt lat="46.35298920" lon="8.62681007"><ele>602.4420164496</ele><time>2009-08-12T10:35:23Z</time></trkpt>
<trkpt lat="46.35302353" lon="8.62701035"><ele>602.0939942856</ele><time>2009-08-12T10:35:28Z</time></trkpt>
<trkpt lat="46.35308838" lon="8.62728310"><ele>601.8629760024</ele><time>2009-08-12T10:35:33Z</time></trkpt>
<trkpt lat="46.35308075" lon="8.62755871"><ele>602.2969971816</ele><time>2009-08-12T10:35:37Z</time></trkpt>
<trkpt lat="46.35301971" lon="8.62777424"><ele>600.940002588</ele><time>2009-08-12T10:35:40Z</time></trkpt>
<trkpt lat="46.35299683" lon="8.62821770"><ele>598.861999632</ele><time>2009-08-12T10:35:45Z</time></trkpt>
<trkpt lat="46.35303497" lon="8.62843132"><ele>597.8579710584</ele><time>2009-08-12T10:35:47Z</time></trkpt>
<trkpt lat="46.35323715" lon="8.62922668"><ele>597.4979857992</ele><time>2009-08-12T10:35:54Z</time></trkpt>
<trkpt lat="46.35345078" lon="8.62964535"><ele>593.8489991424</ele><time>2009-08-12T10:35:58Z</time></trkpt>
<trkpt lat="46.35355377" lon="8.62988186"><ele>591.752990736</ele><time>2009-08-12T10:36:00Z</time></trkpt>
<trkpt lat="46.35371017" lon="8.63040733"><ele>590.5780028904</ele><time>2009-08-12T10:36:04Z</time></trkpt>
<trkpt lat="46.35374832" lon="8.63096333"><ele>591.5419923264</ele><time>2009-08-12T10:36:08Z</time></trkpt>
<trkpt lat="46.35373688" lon="8.63175297"><ele>593.7360228888</ele><time>2009-08-12T10:36:14Z</time></trkpt>
<trkpt lat="46.35377884" lon="8.63211155"><ele>595.7880248808</ele><time>2009-08-12T10:36:17Z</time></trkpt>
<trkpt lat="46.35396576" lon="8.63255978"><ele>597.5200194864</ele><time>2009-08-12T10:36:22Z</time></trkpt>
<trkpt lat="46.35419083" lon="8.63301373"><ele>599.0830076736</ele><time>2009-08-12T10:36:29Z</time></trkpt>
<trkpt lat="46.35437775" lon="8.63340664"><ele>593.6469725208</ele><time>2009-08-12T10:36:37Z</time></trkpt>
<trkpt lat="46.35454941" lon="8.63377285"><ele>593.0789795496</ele><time>2009-08-12T10:36:45Z</time></trkpt>
<trkpt lat="46.35474396" lon="8.63418293"><ele>592.101989784</ele><time>2009-08-12T10:36:54Z</time></trkpt>
<trkpt lat="46.35489273" lon="8.63460636"><ele>592.3369750392</ele><time>2009-08-12T10:37:03Z</time></trkpt>
<trkpt lat="46.35497284" lon="8.63500214"><ele>595.0989988776</ele><time>2009-08-12T10:37:11Z</time></trkpt>
<trkpt lat="46.35511017" lon="8.63541603"><ele>597.6459960696</ele><time>2009-08-12T10:37:20Z</time></trkpt>
<trkpt lat="46.35524368" lon="8.63579369"><ele>600.002014116</ele><time>2009-08-12T10:37:29Z</time></trkpt>
<trkpt lat="46.35536575" lon="8.63616657"><ele>600.6489868632</ele><time>2009-08-12T10:37:38Z</time></trkpt>
<trkpt lat="46.35553360" lon="8.63652420"><ele>600.8549804568</ele><time>2009-08-12T10:37:47Z</time></trkpt>
<trkpt lat="46.35575104" lon="8.63681698"><ele>602.7639769944</ele><time>2009-08-12T10:37:55Z</time></trkpt>
<trkpt lat="46.35602570" lon="8.63718796"><ele>604.4349975792</ele><time>2009-08-12T10:38:05Z</time></trkpt>
<trkpt lat="46.35624313" lon="8.63750744"><ele>603.9270020496</ele><time>2009-08-12T10:38:13Z</time></trkpt>
<trkpt lat="46.35661316" lon="8.63801003"><ele>606.3640136856</ele><time>2009-08-12T10:38:25Z</time></trkpt>
<trkpt lat="46.35686874" lon="8.63830566"><ele>607.6030272096</ele><time>2009-08-12T10:38:32Z</time></trkpt>
<trkpt lat="46.35705948" lon="8.63867855"><ele>605.7499998768</ele><time>2009-08-12T10:38:39Z</time></trkpt>
<trkpt lat="46.35725021" lon="8.63929081"><ele>604.111022916</ele><time>2009-08-12T10:38:49Z</time></trkpt>
<trkpt lat="46.35746002" lon="8.63965511"><ele>605.719970676</ele><time>2009-08-12T10:38:56Z</time></trkpt>
<trkpt lat="46.35779572" lon="8.64016342"><ele>609.8439942288</ele><time>2009-08-12T10:39:07Z</time></trkpt>
<trkpt lat="46.35807419" lon="8.64062119"><ele>609.094970784</ele><time>2009-08-12T10:39:18Z</time></trkpt>
<trkpt lat="46.35824585" lon="8.64092922"><ele>608.7730102392</ele><time>2009-08-12T10:39:26Z</time></trkpt>
<trkpt lat="46.35836029" lon="8.64118576"><ele>609.637024056</ele><time>2009-08-12T10:39:33Z</time></trkpt>
<trkpt lat="46.35848999" lon="8.64150620"><ele>611.6859740856</ele><time>2009-08-12T10:39:41Z</time></trkpt>
<trkpt lat="46.35862350" lon="8.64186764"><ele>617.2039794072</ele><time>2009-08-12T10:39:50Z</time></trkpt>
<trkpt lat="46.35866165" lon="8.64208984"><ele>616.140991236</ele><time>2009-08-12T10:39:57Z</time></trkpt>
<trkpt lat="46.35867691" lon="8.64247417"><ele>618.0609739848</ele><time>2009-08-12T10:40:08Z</time></trkpt>
<trkpt lat="46.35863876" lon="8.64283085"><ele>621.0549926856</ele><time>2009-08-12T10:40:18Z</time></trkpt>
<trkpt lat="46.35858536" lon="8.64311695"><ele>623.1430052736</ele><time>2009-08-12T10:40:27Z</time></trkpt>
<trkpt lat="46.35863113" lon="8.64337635"><ele>625.9970092176</ele><time>2009-08-12T10:40:34Z</time></trkpt>
<trkpt lat="46.35877228" lon="8.64363670"><ele>628.1569823424</ele><time>2009-08-12T10:40:41Z</time></trkpt>
<trkpt lat="46.35893250" lon="8.64389420"><ele>627.2550047712</ele><time>2009-08-12T10:40:48Z</time></trkpt>
<trkpt lat="46.35912323" lon="8.64424038"><ele>623.4619751208</ele><time>2009-08-12T10:40:57Z</time></trkpt>
<trkpt lat="46.35932159" lon="8.64466667"><ele>618.0410156808</ele><time>2009-08-12T10:41:07Z</time></trkpt>
<trkpt lat="46.35939026" lon="8.64505100"><ele>618.2949829656</ele><time>2009-08-12T10:41:14Z</time></trkpt>
<trkpt lat="46.35936356" lon="8.64545059"><ele>622.2830199984</ele><time>2009-08-12T10:41:21Z</time></trkpt>
<trkpt lat="46.35933685" lon="8.64592266"><ele>625.5939941232</ele><time>2009-08-12T10:41:30Z</time></trkpt>
<trkpt lat="46.35935211" lon="8.64625740"><ele>626.2990111536</ele><time>2009-08-12T10:41:38Z</time></trkpt>
<trkpt lat="46.35939026" lon="8.64663029"><ele>627.155029152</ele><time>2009-08-12T10:41:48Z</time></trkpt>
<trkpt lat="46.35945129" lon="8.64699364"><ele>629.3120115792</ele><time>2009-08-12T10:41:58Z</time></trkpt>
<trkpt lat="46.35953522" lon="8.64729786"><ele>631.5020142096</ele><time>2009-08-12T10:42:07Z</time></trkpt>
<trkpt lat="46.35962677" lon="8.64757061"><ele>631.296020616</ele><time>2009-08-12T10:42:16Z</time></trkpt>
<trkpt lat="46.35982513" lon="8.64789200"><ele>631.2500000832</ele><time>2009-08-12T10:42:28Z</time></trkpt>
<trkpt lat="46.35995483" lon="8.64809418"><ele>633.8870239176</ele><time>2009-08-12T10:42:36Z</time></trkpt>
<trkpt lat="46.36012268" lon="8.64833069"><ele>635.1510008664</ele><time>2009-08-12T10:42:45Z</time></trkpt>
<trkpt lat="46.36022949" lon="8.64848804"><ele>634.70697036</ele><time>2009-08-12T10:42:51Z</time></trkpt>
<trkpt lat="46.36040115" lon="8.64868641"><ele>635.7680053728</ele><time>2009-08-12T10:42:58Z</time></trkpt>
<trkpt lat="46.36067200" lon="8.64893627"><ele>635.716980024</ele><time>2009-08-12T10:43:06Z</time></trkpt>
<trkpt lat="46.36096954" lon="8.64915466"><ele>636.8220214512</ele><time>2009-08-12T10:43:14Z</time></trkpt>
<trkpt lat="46.36129761" lon="8.64934444"><ele>637.8319701552</ele><time>2009-08-12T10:43:22Z</time></trkpt>
<trkpt lat="46.36167526" lon="8.64956760"><ele>639.1290282672</ele><time>2009-08-12T10:43:31Z</time></trkpt>
<trkpt lat="46.36209488" lon="8.64986515"><ele>638.5399778832</ele><time>2009-08-12T10:43:41Z</time></trkpt>
<trkpt lat="46.36249924" lon="8.65021229"><ele>638.6209717776</ele><time>2009-08-12T10:43:51Z</time></trkpt>
<trkpt lat="46.36294937" lon="8.65067005"><ele>640.6439818032</ele><time>2009-08-12T10:44:02Z</time></trkpt>
<trkpt lat="46.36329269" lon="8.65111542"><ele>639.6110228328</ele><time>2009-08-12T10:44:12Z</time></trkpt>
<trkpt lat="46.36367798" lon="8.65162373"><ele>640.0020141768</ele><time>2009-08-12T10:44:23Z</time></trkpt>
<trkpt lat="46.36404419" lon="8.65217876"><ele>641.6179808712</ele><time>2009-08-12T10:44:34Z</time></trkpt>
<trkpt lat="46.36437225" lon="8.65268326"><ele>641.9539795896</ele><time>2009-08-12T10:44:44Z</time></trkpt>
<trkpt lat="46.36476898" lon="8.65329266"><ele>643.8159790152</ele><time>2009-08-12T10:44:56Z</time></trkpt>
<trkpt lat="46.36510468" lon="8.65379810"><ele>645.3270262344</ele><time>2009-08-12T10:45:06Z</time></trkpt>
<trkpt lat="46.36537933" lon="8.65411758"><ele>645.9340211088</ele><time>2009-08-12T10:45:14Z</time></trkpt>
<trkpt lat="46.36563492" lon="8.65433884"><ele>647.372009292</ele><time>2009-08-12T10:45:21Z</time></trkpt>
<trkpt lat="46.36598969" lon="8.65465069"><ele>648.2030029056</ele><time>2009-08-12T10:45:32Z</time></trkpt>
<trkpt lat="46.36627579" lon="8.65488434"><ele>649.3859862648</ele><time>2009-08-12T10:45:41Z</time></trkpt>
<trkpt lat="46.36652756" lon="8.65506077"><ele>650.7960206304</ele><time>2009-08-12T10:45:49Z</time></trkpt>
<trkpt lat="46.36676407" lon="8.65522480"><ele>653.9050293984</ele><time>2009-08-12T10:45:57Z</time></trkpt>
<trkpt lat="46.36697769" lon="8.65537262"><ele>656.2269897024</ele><time>2009-08-12T10:46:04Z</time></trkpt>
<trkpt lat="46.36723709" lon="8.65555286"><ele>657.3330077088</ele><time>2009-08-12T10:46:12Z</time></trkpt>
<trkpt lat="46.36751556" lon="8.65575504"><ele>665.8560179424</ele><time>2009-08-12T10:46:20Z</time></trkpt>
<trkpt lat="46.36783981" lon="8.65596008"><ele>668.3430176928</ele><time>2009-08-12T10:46:30Z</time></trkpt>
<trkpt lat="46.36813354" lon="8.65612698"><ele>664.9580079528</ele><time>2009-08-12T10:46:39Z</time></trkpt>
<trkpt lat="46.36842728" lon="8.65630054"><ele>668.8829955816</ele><time>2009-08-12T10:46:48Z</time></trkpt>
<trkpt lat="46.36860275" lon="8.65641594"><ele>673.7000121096</ele><time>2009-08-12T10:46:55Z</time></trkpt>
<trkpt lat="46.36879730" lon="8.65652657"><ele>681.6359863824</ele><time>2009-08-12T10:47:03Z</time></trkpt>
<trkpt lat="46.36897278" lon="8.65663147"><ele>682.9699707096</ele><time>2009-08-12T10:47:10Z</time></trkpt>
<trkpt lat="46.36911011" lon="8.65672588"><ele>681.456970332</ele><time>2009-08-12T10:47:16Z</time></trkpt>
<trkpt lat="46.36930466" lon="8.65690422"><ele>677.9229737424</ele><time>2009-08-12T10:47:24Z</time></trkpt>
<trkpt lat="46.36952209" lon="8.65709400"><ele>678.3920289384</ele><time>2009-08-12T10:47:33Z</time></trkpt>
<trkpt lat="46.36969376" lon="8.65723324"><ele>680.301025476</ele><time>2009-08-12T10:47:41Z</time></trkpt>
<trkpt lat="46.36984253" lon="8.65734196"><ele>685.0670166552</ele><time>2009-08-12T10:47:48Z</time></trkpt>
<trkpt lat="46.37000275" lon="8.65743732"><ele>680.6199950184</ele><time>2009-08-12T10:47:56Z</time></trkpt>
<trkpt lat="46.37010574" lon="8.65748310"><ele>676.2819823584</ele><time>2009-08-12T10:48:00Z</time></trkpt>
<trkpt lat="46.37026596" lon="8.65758228"><ele>676.3140259824</ele><time>2009-08-12T10:48:06Z</time></trkpt>
<trkpt lat="46.37047577" lon="8.65772820"><ele>689.320007184</ele><time>2009-08-12T10:48:14Z</time></trkpt>
<trkpt lat="46.37062836" lon="8.65783882"><ele>699.2680052712</ele><time>2009-08-12T10:48:21Z</time></trkpt>
<trkpt lat="46.37080383" lon="8.65794086"><ele>697.6380004032</ele><time>2009-08-12T10:48:29Z</time></trkpt>
<trkpt lat="46.37092209" lon="8.65800858"><ele>695.5419923016</ele><time>2009-08-12T10:48:35Z</time></trkpt>
<trkpt lat="46.37106705" lon="8.65806675"><ele>692.88299574</ele><time>2009-08-12T10:48:42Z</time></trkpt>
<trkpt lat="46.37122726" lon="8.65813637"><ele>690.08599854</ele><time>2009-08-12T10:48:49Z</time></trkpt>
<trkpt lat="46.37147141" lon="8.65825367"><ele>690.9730223184</ele><time>2009-08-12T10:48:59Z</time></trkpt>
<trkpt lat="46.37163925" lon="8.65833282"><ele>692.1259764768</ele><time>2009-08-12T10:49:06Z</time></trkpt>
<trkpt lat="46.37182236" lon="8.65842342"><ele>693.9509887272</ele><time>2009-08-12T10:49:14Z</time></trkpt>
<trkpt lat="46.37208557" lon="8.65856361"><ele>701.568969732</ele><time>2009-08-12T10:49:25Z</time></trkpt>
<trkpt lat="46.37235260" lon="8.65869236"><ele>700.17297354</ele><time>2009-08-12T10:49:37Z</time></trkpt>
<trkpt lat="46.37252808" lon="8.65880871"><ele>696.26202378</ele><time>2009-08-12T10:49:46Z</time></trkpt>
<trkpt lat="46.37273788" lon="8.65896702"><ele>690.6469725768</ele><time>2009-08-12T10:49:57Z</time></trkpt>
<trkpt lat="46.37294388" lon="8.65911102"><ele>688.4619750672</ele><time>2009-08-12T10:50:07Z</time></trkpt>
<trkpt lat="46.37317657" lon="8.65921307"><ele>689.3690184144</ele><time>2009-08-12T10:50:17Z</time></trkpt>
<trkpt lat="46.37340927" lon="8.65931225"><ele>694.3049925912</ele><time>2009-08-12T10:50:27Z</time></trkpt>
<trkpt lat="46.37356949" lon="8.65936375"><ele>696.981018024</ele><time>2009-08-12T10:50:34Z</time></trkpt>
<trkpt lat="46.37370300" lon="8.65941238"><ele>700.9949950608</ele><time>2009-08-12T10:50:40Z</time></trkpt>
<trkpt lat="46.37396622" lon="8.65953541"><ele>709.41198732</ele><time>2009-08-12T10:50:51Z</time></trkpt>
<trkpt lat="46.37417984" lon="8.65959930"><ele>709.1290283736</ele><time>2009-08-12T10:51:00Z</time></trkpt>
<trkpt lat="46.37440872" lon="8.65965080"><ele>714.4140015984</ele><time>2009-08-12T10:51:09Z</time></trkpt>
<trkpt lat="46.37460709" lon="8.65969181"><ele>710.1259764432</ele><time>2009-08-12T10:51:17Z</time></trkpt>
<trkpt lat="46.37480545" lon="8.65974045"><ele>711.1270140144</ele><time>2009-08-12T10:51:25Z</time></trkpt>
<trkpt lat="46.37509155" lon="8.65980530"><ele>714.0930176328</ele><time>2009-08-12T10:51:36Z</time></trkpt>
<trkpt lat="46.37528229" lon="8.65980339"><ele>714.0689698272</ele><time>2009-08-12T10:51:44Z</time></trkpt>
<trkpt lat="46.37549973" lon="8.65983582"><ele>723.1259765544</ele><time>2009-08-12T10:51:53Z</time></trkpt>
<trkpt lat="46.37568283" lon="8.65985298"><ele>725.1140135232</ele><time>2009-08-12T10:52:01Z</time></trkpt>
<trkpt lat="46.37589264" lon="8.65983200"><ele>714.4630128288</ele><time>2009-08-12T10:52:10Z</time></trkpt>
<trkpt lat="46.37612152" lon="8.65988159"><ele>716.7559814712</ele><time>2009-08-12T10:52:19Z</time></trkpt>
<trkpt lat="46.37639618" lon="8.66001034"><ele>718.1640014136</ele><time>2009-08-12T10:52:30Z</time></trkpt>
<trkpt lat="46.37655258" lon="8.66007614"><ele>715.6129759848</ele><time>2009-08-12T10:52:37Z</time></trkpt>
<trkpt lat="46.37669754" lon="8.66009235"><ele>717.5139770088</ele><time>2009-08-12T10:52:44Z</time></trkpt>
<trkpt lat="46.37686539" lon="8.66016006"><ele>717.7529908056</ele><time>2009-08-12T10:52:50Z</time></trkpt>
<trkpt lat="46.37709045" lon="8.66028118"><ele>716.2960205928</ele><time>2009-08-12T10:52:54Z</time></trkpt>
<trkpt lat="46.37715912" lon="8.66032219"><ele>715.0399778928</ele><time>2009-08-12T10:52:55Z</time></trkpt>
<trkpt lat="46.37759399" lon="8.66051483"><ele>709.260986352</ele><time>2009-08-12T10:53:00Z</time></trkpt>
<trkpt lat="46.37820435" lon="8.66077518"><ele>703.3150025112</ele><time>2009-08-12T10:53:07Z</time></trkpt>
<trkpt lat="46.37870789" lon="8.66098213"><ele>701.2160034072</ele><time>2009-08-12T10:53:14Z</time></trkpt>
<trkpt lat="46.37922668" lon="8.66118813"><ele>698.179016136</ele><time>2009-08-12T10:53:22Z</time></trkpt>
<trkpt lat="46.37959290" lon="8.66133499"><ele>695.7849730704</ele><time>2009-08-12T10:53:28Z</time></trkpt>
<trkpt lat="46.37997437" lon="8.66148663"><ele>695.2080077016</ele><time>2009-08-12T10:53:34Z</time></trkpt>
<trkpt lat="46.38048935" lon="8.66168308"><ele>698.3540039496</ele><time>2009-08-12T10:53:42Z</time></trkpt>
<trkpt lat="46.38084793" lon="8.66182327"><ele>704.1749877864</ele><time>2009-08-12T10:53:48Z</time></trkpt>
<trkpt lat="46.38125229" lon="8.66197205"><ele>705.6229859064</ele><time>2009-08-12T10:53:56Z</time></trkpt>
<trkpt lat="46.38177490" lon="8.66217709"><ele>706.2260131992</ele><time>2009-08-12T10:54:06Z</time></trkpt>
<trkpt lat="46.38208771" lon="8.66230869"><ele>711.5440063224</ele><time>2009-08-12T10:54:12Z</time></trkpt>
<trkpt lat="46.38233185" lon="8.66240025"><ele>708.479980548</ele><time>2009-08-12T10:54:16Z</time></trkpt>
<trkpt lat="46.38265610" lon="8.66252518"><ele>704.2960205136</ele><time>2009-08-12T10:54:20Z</time></trkpt>
<trkpt lat="46.38327789" lon="8.66276073"><ele>699.5360107296</ele><time>2009-08-12T10:54:28Z</time></trkpt>
<trkpt lat="46.38391876" lon="8.66296673"><ele>699.7639770504</ele><time>2009-08-12T10:54:37Z</time></trkpt>
<trkpt lat="46.38444138" lon="8.66303444"><ele>699.64697256</ele><time>2009-08-12T10:54:45Z</time></trkpt>
<trkpt lat="46.38489151" lon="8.66305447"><ele>701.9879761584</ele><time>2009-08-12T10:54:53Z</time></trkpt>
<trkpt lat="46.38522720" lon="8.66313267"><ele>700.8950194416</ele><time>2009-08-12T10:55:00Z</time></trkpt>
<trkpt lat="46.38557053" lon="8.66319275"><ele>700.5490110912</ele><time>2009-08-12T10:55:09Z</time></trkpt>
<trkpt lat="46.38584518" lon="8.66318321"><ele>702.1799925384</ele><time>2009-08-12T10:55:17Z</time></trkpt>
<trkpt lat="46.38606644" lon="8.66312122"><ele>704.5150147416</ele><time>2009-08-12T10:55:24Z</time></trkpt>
<trkpt lat="46.38631821" lon="8.66299534"><ele>711.3070069488</ele><time>2009-08-12T10:55:32Z</time></trkpt>
<trkpt lat="46.38662338" lon="8.66276932"><ele>720.7680053496</ele><time>2009-08-12T10:55:42Z</time></trkpt>
<trkpt lat="46.38688660" lon="8.66252708"><ele>722.0949707424</ele><time>2009-08-12T10:55:51Z</time></trkpt>
<trkpt lat="46.38712692" lon="8.66231632"><ele>721.2219848328</ele><time>2009-08-12T10:55:59Z</time></trkpt>
<trkpt lat="46.38742065" lon="8.66213417"><ele>720.567016572</ele><time>2009-08-12T10:56:07Z</time></trkpt>
<trkpt lat="46.38772583" lon="8.66197300"><ele>718.588012656</ele><time>2009-08-12T10:56:15Z</time></trkpt>
<trkpt lat="46.38791656" lon="8.66186237"><ele>719.2780152384</ele><time>2009-08-12T10:56:20Z</time></trkpt>
<trkpt lat="46.38807678" lon="8.66178513"><ele>718.1900023776</ele><time>2009-08-12T10:56:24Z</time></trkpt>
<trkpt lat="46.38840866" lon="8.66163826"><ele>718.6719969432</ele><time>2009-08-12T10:56:33Z</time></trkpt>
<trkpt lat="46.38863373" lon="8.66157532"><ele>716.8129882152</ele><time>2009-08-12T10:56:39Z</time></trkpt>
<trkpt lat="46.38888168" lon="8.66148186"><ele>720.775024284</ele><time>2009-08-12T10:56:46Z</time></trkpt>
<trkpt lat="46.38909531" lon="8.66142368"><ele>719.7800293728</ele><time>2009-08-12T10:56:52Z</time></trkpt>
<trkpt lat="46.38930130" lon="8.66135979"><ele>721.4769896568</ele><time>2009-08-12T10:56:58Z</time></trkpt>
<trkpt lat="46.38949966" lon="8.66122532"><ele>722.3880005856</ele><time>2009-08-12T10:57:04Z</time></trkpt>
<trkpt lat="46.38980865" lon="8.66095161"><ele>726.810974112</ele><time>2009-08-12T10:57:14Z</time></trkpt>
<trkpt lat="46.39007187" lon="8.66075134"><ele>725.9379882024</ele><time>2009-08-12T10:57:22Z</time></trkpt>
<trkpt lat="46.39030075" lon="8.66056728"><ele>723.2089842624</ele><time>2009-08-12T10:57:29Z</time></trkpt>
<trkpt lat="46.39047623" lon="8.66039562"><ele>722.1459960912</ele><time>2009-08-12T10:57:35Z</time></trkpt>
<trkpt lat="46.39067078" lon="8.66017246"><ele>723.0490112016</ele><time>2009-08-12T10:57:42Z</time></trkpt>
<trkpt lat="46.39089203" lon="8.65991783"><ele>722.312011812</ele><time>2009-08-12T10:57:50Z</time></trkpt>
<trkpt lat="46.39113617" lon="8.65960312"><ele>720.9920043936</ele><time>2009-08-12T10:57:59Z</time></trkpt>
<trkpt lat="46.39132690" lon="8.65935135"><ele>720.0390014736</ele><time>2009-08-12T10:58:06Z</time></trkpt>
<trkpt lat="46.39149094" lon="8.65915012"><ele>718.598999172</ele><time>2009-08-12T10:58:12Z</time></trkpt>
<trkpt lat="46.39170074" lon="8.65896893"><ele>718.1279908176</ele><time>2009-08-12T10:58:19Z</time></trkpt>
<trkpt lat="46.39189529" lon="8.65882301"><ele>721.6160278344</ele><time>2009-08-12T10:58:26Z</time></trkpt>
<trkpt lat="46.39225006" lon="8.65853500"><ele>721.494018528</ele><time>2009-08-12T10:58:39Z</time></trkpt>
<trkpt lat="46.39250946" lon="8.65832710"><ele>721.520019492</ele><time>2009-08-12T10:58:48Z</time></trkpt>
<trkpt lat="46.39284134" lon="8.65802670"><ele>722.831970132</ele><time>2009-08-12T10:59:00Z</time></trkpt>
<trkpt lat="46.39317322" lon="8.65767479"><ele>728.6630248656</ele><time>2009-08-12T10:59:13Z</time></trkpt>
<trkpt lat="46.39340973" lon="8.65737343"><ele>730.7199707136</ele><time>2009-08-12T10:59:23Z</time></trkpt>
<trkpt lat="46.39356613" lon="8.65710354"><ele>732.3610230576</ele><time>2009-08-12T10:59:32Z</time></trkpt>
<trkpt lat="46.39368439" lon="8.65688610"><ele>733.5219727296</ele><time>2009-08-12T10:59:41Z</time></trkpt>
<trkpt lat="46.39384079" lon="8.65659714"><ele>734.9439695808</ele><time>2009-08-12T10:59:53Z</time></trkpt>
<trkpt lat="46.39397812" lon="8.65634632"><ele>736.3540039464</ele><time>2009-08-12T11:00:03Z</time></trkpt>
<trkpt lat="46.39411163" lon="8.65608311"><ele>738.0360107424</ele><time>2009-08-12T11:00:13Z</time></trkpt>
<trkpt lat="46.39426804" lon="8.65576839"><ele>739.8330079104</ele><time>2009-08-12T11:00:25Z</time></trkpt>
<trkpt lat="46.39431381" lon="8.65567780"><ele>739.9310303712</ele><time>2009-08-12T11:00:31Z</time></trkpt>
<trkpt lat="46.39430618" lon="8.65565014"><ele>740.554015968</ele><time>2009-08-12T11:00:44Z</time></trkpt>
<trkpt lat="46.39431381" lon="8.65554047"><ele>734.638000368</ele><time>2009-08-12T11:01:10Z</time></trkpt>
<trkpt lat="46.39450073" lon="8.65515232"><ele>737.200988892</ele><time>2009-08-12T11:01:28Z</time></trkpt>
<trkpt lat="46.39451981" lon="8.65513706"><ele>737.5770264432</ele><time>2009-08-12T11:01:29Z</time></trkpt>
<trkpt lat="46.39460373" lon="8.65514469"><ele>737.7280274112</ele><time>2009-08-12T11:01:33Z</time></trkpt>
<trkpt lat="46.39484406" lon="8.65530109"><ele>737.7039796056</ele><time>2009-08-12T11:01:43Z</time></trkpt>
<trkpt lat="46.39500809" lon="8.65530300"><ele>737.9619751272</ele><time>2009-08-12T11:01:48Z</time></trkpt>
<trkpt lat="46.39518356" lon="8.65511131"><ele>738.8060303352</ele><time>2009-08-12T11:01:54Z</time></trkpt>
<trkpt lat="46.39531708" lon="8.65486717"><ele>740.7609864456</ele><time>2009-08-12T11:02:00Z</time></trkpt>
<trkpt lat="46.39543533" lon="8.65475464"><ele>741.0050047536</ele><time>2009-08-12T11:02:04Z</time></trkpt>
<trkpt lat="46.39560318" lon="8.65458584"><ele>741.2410278528</ele><time>2009-08-12T11:02:10Z</time></trkpt>
<trkpt lat="46.39588547" lon="8.65436172"><ele>743.0930176464</ele><time>2009-08-12T11:02:19Z</time></trkpt>
<trkpt lat="46.39612198" lon="8.65423584"><ele>743.8660279368</ele><time>2009-08-12T11:02:26Z</time></trkpt>
<trkpt lat="46.39629364" lon="8.65423203"><ele>743.377014132</ele><time>2009-08-12T11:02:30Z</time></trkpt>
<trkpt lat="46.39638519" lon="8.65425205"><ele>743.3989868592</ele><time>2009-08-12T11:02:32Z</time></trkpt>
<trkpt lat="46.39656448" lon="8.65424442"><ele>743.3870240688</ele><time>2009-08-12T11:02:36Z</time></trkpt>
<trkpt lat="46.39701462" lon="8.65406322"><ele>744.627014172</ele><time>2009-08-12T11:02:47Z</time></trkpt>
<trkpt lat="46.39725876" lon="8.65393639"><ele>748.4310303384</ele><time>2009-08-12T11:02:54Z</time></trkpt>
<trkpt lat="46.39757156" lon="8.65385818"><ele>750.3309935184</ele><time>2009-08-12T11:03:03Z</time></trkpt>
<trkpt lat="46.39787674" lon="8.65378761"><ele>751.434021132</ele><time>2009-08-12T11:03:12Z</time></trkpt>
<trkpt lat="46.39818573" lon="8.65364456"><ele>753.2999878344</ele><time>2009-08-12T11:03:21Z</time></trkpt>
<trkpt lat="46.39855576" lon="8.65347672"><ele>754.4249878704</ele><time>2009-08-12T11:03:32Z</time></trkpt>
<trkpt lat="46.39886475" lon="8.65334415"><ele>755.3419798896</ele><time>2009-08-12T11:03:41Z</time></trkpt>
<trkpt lat="46.39924240" lon="8.65318108"><ele>756.6439818576</ele><time>2009-08-12T11:03:52Z</time></trkpt>
<trkpt lat="46.39954758" lon="8.65297031"><ele>757.8900146208</ele><time>2009-08-12T11:04:01Z</time></trkpt>
<trkpt lat="46.39981079" lon="8.65275288"><ele>758.6060181672</ele><time>2009-08-12T11:04:09Z</time></trkpt>
<trkpt lat="46.39999008" lon="8.65254021"><ele>758.901000864</ele><time>2009-08-12T11:04:16Z</time></trkpt>
<trkpt lat="46.40014648" lon="8.65230656"><ele>759.3699951</ele><time>2009-08-12T11:04:24Z</time></trkpt>
<trkpt lat="46.40038681" lon="8.65195465"><ele>760.572998028</ele><time>2009-08-12T11:04:37Z</time></trkpt>
<trkpt lat="46.40061188" lon="8.65163040"><ele>761.729003844</ele><time>2009-08-12T11:04:49Z</time></trkpt>
<trkpt lat="46.40077591" lon="8.65143681"><ele>762.833007732</ele><time>2009-08-12T11:04:57Z</time></trkpt>
<trkpt lat="46.40090942" lon="8.65130234"><ele>762.6339721128</ele><time>2009-08-12T11:05:03Z</time></trkpt>
<trkpt lat="46.40113449" lon="8.65103054"><ele>765.494018412</ele><time>2009-08-12T11:05:14Z</time></trkpt>
<trkpt lat="46.40134430" lon="8.65085125"><ele>767.4689940912</ele><time>2009-08-12T11:05:24Z</time></trkpt>
<trkpt lat="46.40149689" lon="8.65075493"><ele>771.5490112296</ele><time>2009-08-12T11:05:32Z</time></trkpt>
<trkpt lat="46.40163040" lon="8.65070343"><ele>772.6690064496</ele><time>2009-08-12T11:05:39Z</time></trkpt>
<trkpt lat="46.40182114" lon="8.65062141"><ele>775.2990113496</ele><time>2009-08-12T11:05:49Z</time></trkpt>
<trkpt lat="46.40206146" lon="8.65052795"><ele>775.8439940544</ele><time>2009-08-12T11:06:01Z</time></trkpt>
<trkpt lat="46.40219116" lon="8.65043259"><ele>775.648986672</ele><time>2009-08-12T11:06:08Z</time></trkpt>
<trkpt lat="46.40232086" lon="8.65027905"><ele>774.9680174472</ele><time>2009-08-12T11:06:17Z</time></trkpt>
<trkpt lat="46.40247345" lon="8.65005684"><ele>774.1569824424</ele><time>2009-08-12T11:06:29Z</time></trkpt>
<trkpt lat="46.40256882" lon="8.64992809"><ele>773.6400145152</ele><time>2009-08-12T11:06:36Z</time></trkpt>
<trkpt lat="46.40271378" lon="8.64972210"><ele>775.1459959584</ele><time>2009-08-12T11:06:47Z</time></trkpt>
<trkpt lat="46.40280151" lon="8.64961624"><ele>774.94598376</ele><time>2009-08-12T11:06:54Z</time></trkpt>
<trkpt lat="46.40291595" lon="8.64947128"><ele>777.4420165632</ele><time>2009-08-12T11:07:04Z</time></trkpt>
<trkpt lat="46.40300751" lon="8.64935589"><ele>779.9849852136</ele><time>2009-08-12T11:07:12Z</time></trkpt>
<trkpt lat="46.40312576" lon="8.64920616"><ele>787.9899902856</ele><time>2009-08-12T11:07:22Z</time></trkpt>
<trkpt lat="46.40325928" lon="8.64911079"><ele>792.1329955632</ele><time>2009-08-12T11:07:32Z</time></trkpt>
<trkpt lat="46.40338898" lon="8.64906120"><ele>792.8049926952</ele><time>2009-08-12T11:07:40Z</time></trkpt>
<trkpt lat="46.40357590" lon="8.64899635"><ele>795.8989867104</ele><time>2009-08-12T11:07:52Z</time></trkpt>
<trkpt lat="46.40371704" lon="8.64897919"><ele>798.314025924</ele><time>2009-08-12T11:08:01Z</time></trkpt>
<trkpt lat="46.40383148" lon="8.64896107"><ele>800.2260131592</ele><time>2009-08-12T11:08:08Z</time></trkpt>
<trkpt lat="46.40398026" lon="8.64892960"><ele>804.9710081904</ele><time>2009-08-12T11:08:18Z</time></trkpt>
<trkpt lat="46.40414047" lon="8.64891434"><ele>806.4650268432</ele><time>2009-08-12T11:08:27Z</time></trkpt>
<trkpt lat="46.40433884" lon="8.64892006"><ele>807.7750243248</ele><time>2009-08-12T11:08:38Z</time></trkpt>
<trkpt lat="46.40447235" lon="8.64899826"><ele>805.9970091864</ele><time>2009-08-12T11:08:46Z</time></trkpt>
<trkpt lat="46.40461349" lon="8.64904976"><ele>804.6469725672</ele><time>2009-08-12T11:08:54Z</time></trkpt>
<trkpt lat="46.40470505" lon="8.64907646"><ele>803.7949828056</ele><time>2009-08-12T11:09:01Z</time></trkpt>
<trkpt lat="46.40471268" lon="8.64907455"><ele>803.6170042944</ele><time>2009-08-12T11:09:03Z</time></trkpt>
<trkpt lat="46.40481186" lon="8.64899826"><ele>801.4039917024</ele><time>2009-08-12T11:09:31Z</time></trkpt>
<trkpt lat="46.40489197" lon="8.64888763"><ele>801.668029884</ele><time>2009-08-12T11:09:39Z</time></trkpt>
<trkpt lat="46.40489960" lon="8.64887428"><ele>801.6480103152</ele><time>2009-08-12T11:09:40Z</time></trkpt>
<trkpt lat="46.40494156" lon="8.64874077"><ele>805.765991208</ele><time>2009-08-12T11:09:47Z</time></trkpt>
<trkpt lat="46.40501785" lon="8.64856815"><ele>807.9569701128</ele><time>2009-08-12T11:09:55Z</time></trkpt>
<trkpt lat="46.40511703" lon="8.64835358"><ele>809.7379759488</ele><time>2009-08-12T11:10:05Z</time></trkpt>
<trkpt lat="46.40523148" lon="8.64823914"><ele>810.3339843072</ele><time>2009-08-12T11:10:13Z</time></trkpt>
<trkpt lat="46.40539932" lon="8.64813709"><ele>810.0980224728</ele><time>2009-08-12T11:10:24Z</time></trkpt>
<trkpt lat="46.40555954" lon="8.64802647"><ele>809.8670044944</ele><time>2009-08-12T11:10:35Z</time></trkpt>
<trkpt lat="46.40569305" lon="8.64794540"><ele>811.4979859416</ele><time>2009-08-12T11:10:45Z</time></trkpt>
<trkpt lat="46.40580750" lon="8.64788342"><ele>813.979003992</ele><time>2009-08-12T11:10:54Z</time></trkpt>
<trkpt lat="46.40592194" lon="8.64793682"><ele>814.7319947136</ele><time>2009-08-12T11:11:03Z</time></trkpt>
<trkpt lat="46.40604401" lon="8.64799213"><ele>816.8969726544</ele><time>2009-08-12T11:11:13Z</time></trkpt>
<trkpt lat="46.40604401" lon="8.64799309"><ele>817.0579832544</ele><time>2009-08-12T11:11:14Z</time></trkpt>
<trkpt lat="46.40619659" lon="8.64795971"><ele>825.544982892</ele><time>2009-08-12T11:12:52Z</time></trkpt>
<trkpt lat="46.40630722" lon="8.64799976"><ele>823.9910277576</ele><time>2009-08-12T11:13:01Z</time></trkpt>
<trkpt lat="46.40643692" lon="8.64798546"><ele>822.999023544</ele><time>2009-08-12T11:13:11Z</time></trkpt>
<trkpt lat="46.40653229" lon="8.64790154"><ele>822.0009766704</ele><time>2009-08-12T11:13:20Z</time></trkpt>
<trkpt lat="46.40661240" lon="8.64781666"><ele>822.9630126432</ele><time>2009-08-12T11:13:28Z</time></trkpt>
<trkpt lat="46.40667343" lon="8.64768791"><ele>828.2470092888</ele><time>2009-08-12T11:13:35Z</time></trkpt>
<trkpt lat="46.40679932" lon="8.64757061"><ele>830.79498306</ele><time>2009-08-12T11:13:46Z</time></trkpt>
<trkpt lat="46.40691757" lon="8.64751053"><ele>829.627990728</ele><time>2009-08-12T11:13:56Z</time></trkpt>
<trkpt lat="46.40702438" lon="8.64743614"><ele>831.101989812</ele><time>2009-08-12T11:14:05Z</time></trkpt>
<trkpt lat="46.40714645" lon="8.64734554"><ele>831.9000244872</ele><time>2009-08-12T11:14:16Z</time></trkpt>
<trkpt lat="46.40727615" lon="8.64726830"><ele>833.0609741592</ele><time>2009-08-12T11:14:27Z</time></trkpt>
<trkpt lat="46.40737534" lon="8.64726257"><ele>834.3270264912</ele><time>2009-08-12T11:14:35Z</time></trkpt>
<trkpt lat="46.40748596" lon="8.64728928"><ele>835.7949829152</ele><time>2009-08-12T11:14:44Z</time></trkpt>
<trkpt lat="46.40756226" lon="8.64731598"><ele>838.8369750024</ele><time>2009-08-12T11:14:51Z</time></trkpt>
<trkpt lat="46.40760803" lon="8.64736462"><ele>840.559020936</ele><time>2009-08-12T11:14:56Z</time></trkpt>
<trkpt lat="46.40758514" lon="8.64748383"><ele>846.0310057248</ele><time>2009-08-12T11:15:04Z</time></trkpt>
<trkpt lat="46.40753937" lon="8.64762497"><ele>849.7009888344</ele><time>2009-08-12T11:15:12Z</time></trkpt>
<trkpt lat="46.40753174" lon="8.64781857"><ele>847.3989868344</ele><time>2009-08-12T11:15:20Z</time></trkpt>
<trkpt lat="46.40748596" lon="8.64795780"><ele>848.0139769176</ele><time>2009-08-12T11:15:27Z</time></trkpt>
<trkpt lat="46.40746307" lon="8.64803314"><ele>848.0360106048</ele><time>2009-08-12T11:15:31Z</time></trkpt>
<trkpt lat="46.40739822" lon="8.64813137"><ele>849.8740234896</ele><time>2009-08-12T11:15:37Z</time></trkpt>
<trkpt lat="46.40742493" lon="8.64825630"><ele>848.911987212</ele><time>2009-08-12T11:15:42Z</time></trkpt>
<trkpt lat="46.40746689" lon="8.64825726"><ele>848.1979980888</ele><time>2009-08-12T11:15:44Z</time></trkpt>
<trkpt lat="46.40761566" lon="8.64814186"><ele>847.3649903568</ele><time>2009-08-12T11:15:53Z</time></trkpt>
<trkpt lat="46.40773010" lon="8.64805222"><ele>847.59002694</ele><time>2009-08-12T11:16:00Z</time></trkpt>
<trkpt lat="46.40790939" lon="8.64800072"><ele>846.8309935584</ele><time>2009-08-12T11:16:10Z</time></trkpt>
<trkpt lat="46.40801239" lon="8.64798355"><ele>847.2329711136</ele><time>2009-08-12T11:16:16Z</time></trkpt>
<trkpt lat="46.40819931" lon="8.64795589"><ele>847.547973684</ele><time>2009-08-12T11:16:27Z</time></trkpt>
<trkpt lat="46.40840912" lon="8.64794731"><ele>848.5919801304</ele><time>2009-08-12T11:16:39Z</time></trkpt>
<trkpt lat="46.40848160" lon="8.64799976"><ele>849.0880125648</ele><time>2009-08-12T11:16:44Z</time></trkpt>
<trkpt lat="46.40844345" lon="8.64809608"><ele>850.4390257632</ele><time>2009-08-12T11:16:49Z</time></trkpt>
<trkpt lat="46.40838242" lon="8.64822102"><ele>851.1069946584</ele><time>2009-08-12T11:16:56Z</time></trkpt>
<trkpt lat="46.40832520" lon="8.64833832"><ele>851.9879760816</ele><time>2009-08-12T11:17:03Z</time></trkpt>
<trkpt lat="46.40823364" lon="8.64847946"><ele>856.0380249792</ele><time>2009-08-12T11:17:13Z</time></trkpt>
<trkpt lat="46.40816879" lon="8.64862442"><ele>858.1950074064</ele><time>2009-08-12T11:17:22Z</time></trkpt>
<trkpt lat="46.40811157" lon="8.64876556"><ele>860.3040161424</ele><time>2009-08-12T11:17:30Z</time></trkpt>
<trkpt lat="46.40803146" lon="8.64891815"><ele>863.43200694</ele><time>2009-08-12T11:17:40Z</time></trkpt>
<trkpt lat="46.40798569" lon="8.64900875"><ele>864.4439697624</ele><time>2009-08-12T11:17:46Z</time></trkpt>
<trkpt lat="46.40790558" lon="8.64912987"><ele>863.635009836</ele><time>2009-08-12T11:17:54Z</time></trkpt>
<trkpt lat="46.40779114" lon="8.64916992"><ele>866.2109983848</ele><time>2009-08-12T11:18:02Z</time></trkpt>
<trkpt lat="46.40769958" lon="8.64922237"><ele>869.1749878848</ele><time>2009-08-12T11:18:09Z</time></trkpt>
<trkpt lat="46.40769196" lon="8.64931583"><ele>869.4580077912</ele><time>2009-08-12T11:18:13Z</time></trkpt>
<trkpt lat="46.40775299" lon="8.64936447"><ele>870.3410033328</ele><time>2009-08-12T11:18:18Z</time></trkpt>
<trkpt lat="46.40788651" lon="8.64942074"><ele>870.5079956328</ele><time>2009-08-12T11:18:27Z</time></trkpt>
<trkpt lat="46.40797424" lon="8.64948463"><ele>870.7890014208</ele><time>2009-08-12T11:18:34Z</time></trkpt>
<trkpt lat="46.40807343" lon="8.64949417"><ele>871.5540161976</ele><time>2009-08-12T11:18:41Z</time></trkpt>
<trkpt lat="46.40819550" lon="8.64947033"><ele>871.2139892424</ele><time>2009-08-12T11:18:50Z</time></trkpt>
<trkpt lat="46.40831375" lon="8.64936829"><ele>875.3909913024</ele><time>2009-08-12T11:18:59Z</time></trkpt>
<trkpt lat="46.40843201" lon="8.64929008"><ele>877.5469971504</ele><time>2009-08-12T11:19:08Z</time></trkpt>
<trkpt lat="46.40858841" lon="8.64919090"><ele>879.5000001024</ele><time>2009-08-12T11:19:20Z</time></trkpt>
<trkpt lat="46.40874481" lon="8.64909267"><ele>880.9990235712</ele><time>2009-08-12T11:19:32Z</time></trkpt>
<trkpt lat="46.40885544" lon="8.64900017"><ele>882.4409790312</ele><time>2009-08-12T11:19:41Z</time></trkpt>
<trkpt lat="46.40889740" lon="8.64897823"><ele>882.8239745568</ele><time>2009-08-12T11:19:44Z</time></trkpt>
<trkpt lat="46.40892029" lon="8.64904308"><ele>884.575012152</ele><time>2009-08-12T11:19:49Z</time></trkpt>
<trkpt lat="46.40877151" lon="8.64917374"><ele>887.3359984512</ele><time>2009-08-12T11:20:00Z</time></trkpt>
<trkpt lat="46.40869522" lon="8.64927292"><ele>888.5089721784</ele><time>2009-08-12T11:20:07Z</time></trkpt>
<trkpt lat="46.40864944" lon="8.64941692"><ele>886.2390138024</ele><time>2009-08-12T11:20:14Z</time></trkpt>
<trkpt lat="46.40858459" lon="8.64960098"><ele>886.9589843208</ele><time>2009-08-12T11:20:23Z</time></trkpt>
<trkpt lat="46.40848541" lon="8.64974689"><ele>887.2769775888</ele><time>2009-08-12T11:20:32Z</time></trkpt>
<trkpt lat="46.40835953" lon="8.64982510"><ele>891.9609985992</ele><time>2009-08-12T11:20:41Z</time></trkpt>
<trkpt lat="46.40825272" lon="8.64993286"><ele>891.2139892728</ele><time>2009-08-12T11:20:50Z</time></trkpt>
<trkpt lat="46.40809250" lon="8.64996433"><ele>893.7310179192</ele><time>2009-08-12T11:21:01Z</time></trkpt>
<trkpt lat="46.40794754" lon="8.64996243"><ele>895.3670044872</ele><time>2009-08-12T11:21:11Z</time></trkpt>
<trkpt lat="46.40784836" lon="8.64994240"><ele>895.9110106128</ele><time>2009-08-12T11:21:18Z</time></trkpt>
<trkpt lat="46.40771866" lon="8.64983177"><ele>898.3629760416</ele><time>2009-08-12T11:21:28Z</time></trkpt>
<trkpt lat="46.40762711" lon="8.64984131"><ele>898.5180052464</ele><time>2009-08-12T11:21:34Z</time></trkpt>
<trkpt lat="46.40762711" lon="8.64997959"><ele>899.4359741496</ele><time>2009-08-12T11:21:40Z</time></trkpt>
<trkpt lat="46.40768814" lon="8.65001583"><ele>900.9669799776</ele><time>2009-08-12T11:21:45Z</time></trkpt>
<trkpt lat="46.40771866" lon="8.65001488"><ele>902.1660156288</ele><time>2009-08-12T11:21:47Z</time></trkpt>
<trkpt lat="46.40783310" lon="8.65005589"><ele>904.6489868376</ele><time>2009-08-12T11:21:55Z</time></trkpt>
<trkpt lat="46.40797043" lon="8.65008163"><ele>908.0579834232</ele><time>2009-08-12T11:22:04Z</time></trkpt>
<trkpt lat="46.40810013" lon="8.65012074"><ele>906.3649901112</ele><time>2009-08-12T11:22:13Z</time></trkpt>
<trkpt lat="46.40825272" lon="8.65012455"><ele>907.7839965696</ele><time>2009-08-12T11:22:23Z</time></trkpt>
<trkpt lat="46.40845871" lon="8.65011120"><ele>912.4509887088</ele><time>2009-08-12T11:22:37Z</time></trkpt>
<trkpt lat="46.40857697" lon="8.65015316"><ele>912.890014704</ele><time>2009-08-12T11:22:45Z</time></trkpt>
<trkpt lat="46.40866852" lon="8.65019417"><ele>913.6309813704</ele><time>2009-08-12T11:22:52Z</time></trkpt>
<trkpt lat="46.40881348" lon="8.65021515"><ele>916.3800048792</ele><time>2009-08-12T11:23:02Z</time></trkpt>
<trkpt lat="46.40894318" lon="8.65018559"><ele>917.206970256</ele><time>2009-08-12T11:23:11Z</time></trkpt>
<trkpt lat="46.40905762" lon="8.65014362"><ele>917.5650023568</ele><time>2009-08-12T11:23:19Z</time></trkpt>
<trkpt lat="46.40920258" lon="8.65006733"><ele>918.1119994848</ele><time>2009-08-12T11:23:30Z</time></trkpt>
<trkpt lat="46.40933228" lon="8.64999962"><ele>919.3449706536</ele><time>2009-08-12T11:23:40Z</time></trkpt>
<trkpt lat="46.40945053" lon="8.64993000"><ele>920.4190063008</ele><time>2009-08-12T11:23:49Z</time></trkpt>
<trkpt lat="46.40957260" lon="8.64980793"><ele>923.3930054328</ele><time>2009-08-12T11:23:59Z</time></trkpt>
<trkpt lat="46.40958405" lon="8.64986801"><ele>925.1420289096</ele><time>2009-08-12T11:24:04Z</time></trkpt>
<trkpt lat="46.40956879" lon="8.64987946"><ele>925.9760132208</ele><time>2009-08-12T11:24:05Z</time></trkpt>
<trkpt lat="46.40940857" lon="8.65000439"><ele>935.6339721624</ele><time>2009-08-12T11:24:16Z</time></trkpt>
<trkpt lat="46.40932846" lon="8.65014553"><ele>936.351013248</ele><time>2009-08-12T11:24:25Z</time></trkpt>
<trkpt lat="46.40929794" lon="8.65021992"><ele>937.210021944</ele><time>2009-08-12T11:24:30Z</time></trkpt>
<trkpt lat="46.40922546" lon="8.65034676"><ele>936.038024796</ele><time>2009-08-12T11:24:39Z</time></trkpt>
<trkpt lat="46.40920639" lon="8.65038967"><ele>933.617004492</ele><time>2009-08-12T11:24:42Z</time></trkpt>
<trkpt lat="46.40914917" lon="8.65043640"><ele>930.5949707088</ele><time>2009-08-12T11:24:47Z</time></trkpt>
<trkpt lat="46.40906525" lon="8.65043926"><ele>929.4589844616</ele><time>2009-08-12T11:24:54Z</time></trkpt>
<trkpt lat="46.40895462" lon="8.65044022"><ele>929.236999536</ele><time>2009-08-12T11:25:03Z</time></trkpt>
<trkpt lat="46.40892792" lon="8.65053082"><ele>931.9749755688</ele><time>2009-08-12T11:25:09Z</time></trkpt>
<trkpt lat="46.40900040" lon="8.65058327"><ele>932.4899903376</ele><time>2009-08-12T11:25:14Z</time></trkpt>
<trkpt lat="46.40917206" lon="8.65055656"><ele>934.5239868792</ele><time>2009-08-12T11:25:25Z</time></trkpt>
<trkpt lat="46.40927887" lon="8.65052128"><ele>940.543029756</ele><time>2009-08-12T11:25:32Z</time></trkpt>
<trkpt lat="46.40941238" lon="8.65050602"><ele>939.6389771064</ele><time>2009-08-12T11:25:42Z</time></trkpt>
<trkpt lat="46.40950775" lon="8.65044689"><ele>939.580017204</ele><time>2009-08-12T11:25:50Z</time></trkpt>
<trkpt lat="46.40962601" lon="8.65034008"><ele>942.5670166656</ele><time>2009-08-12T11:26:00Z</time></trkpt>
<trkpt lat="46.40975189" lon="8.65019035"><ele>944.1199952208</ele><time>2009-08-12T11:26:12Z</time></trkpt>
<trkpt lat="46.40982819" lon="8.65004826"><ele>944.4010010088</ele><time>2009-08-12T11:26:21Z</time></trkpt>
<trkpt lat="46.40991592" lon="8.64987469"><ele>944.682983376</ele><time>2009-08-12T11:26:32Z</time></trkpt>
<trkpt lat="46.40993118" lon="8.64984035"><ele>945.1300048848</ele><time>2009-08-12T11:26:34Z</time></trkpt>
<trkpt lat="46.40995789" lon="8.64986515"><ele>945.515991108</ele><time>2009-08-12T11:26:38Z</time></trkpt>
<trkpt lat="46.40994263" lon="8.64988422"><ele>945.4500122712</ele><time>2009-08-12T11:26:39Z</time></trkpt>
<trkpt lat="46.40985107" lon="8.65005589"><ele>949.9000243008</ele><time>2009-08-12T11:26:48Z</time></trkpt>
<trkpt lat="46.40981674" lon="8.65023232"><ele>949.3709716632</ele><time>2009-08-12T11:26:56Z</time></trkpt>
<trkpt lat="46.40975952" lon="8.65043163"><ele>952.9290160584</ele><time>2009-08-12T11:27:06Z</time></trkpt>
<trkpt lat="46.40970230" lon="8.65053368"><ele>956.2940062296</ele><time>2009-08-12T11:27:12Z</time></trkpt>
<trkpt lat="46.40960693" lon="8.65073872"><ele>955.9609985136</ele><time>2009-08-12T11:27:23Z</time></trkpt>
<trkpt lat="46.40955353" lon="8.65091038"><ele>951.5089720608</ele><time>2009-08-12T11:27:31Z</time></trkpt>
<trkpt lat="46.40946579" lon="8.65098572"><ele>953.25500484</ele><time>2009-08-12T11:27:38Z</time></trkpt>
<trkpt lat="46.40931320" lon="8.65096855"><ele>954.760009704</ele><time>2009-08-12T11:27:48Z</time></trkpt>
<trkpt lat="46.40917206" lon="8.65093899"><ele>956.3309937096</ele><time>2009-08-12T11:27:58Z</time></trkpt>
<trkpt lat="46.40902710" lon="8.65087318"><ele>962.26501476</ele><time>2009-08-12T11:28:07Z</time></trkpt>
<trkpt lat="46.40895081" lon="8.65088177"><ele>963.931030224</ele><time>2009-08-12T11:28:12Z</time></trkpt>
<trkpt lat="46.40894318" lon="8.65101624"><ele>964.572021576</ele><time>2009-08-12T11:28:19Z</time></trkpt>
<trkpt lat="46.40901947" lon="8.65105343"><ele>964.379028312</ele><time>2009-08-12T11:28:25Z</time></trkpt>
<trkpt lat="46.40906906" lon="8.65102768"><ele>966.1719969384</ele><time>2009-08-12T11:28:28Z</time></trkpt>
<trkpt lat="46.40919876" lon="8.65101147"><ele>968.3809812936</ele><time>2009-08-12T11:28:37Z</time></trkpt>
<trkpt lat="46.40922546" lon="8.65100670"><ele>970.1820066984</ele><time>2009-08-12T11:28:39Z</time></trkpt>
<trkpt lat="46.40930557" lon="8.65104103"><ele>971.5520019264</ele><time>2009-08-12T11:28:46Z</time></trkpt>
<trkpt lat="46.40939331" lon="8.65102482"><ele>980.6019897192</ele><time>2009-08-12T11:28:54Z</time></trkpt>
<trkpt lat="46.40946960" lon="8.65104580"><ele>985.2239991696</ele><time>2009-08-12T11:29:01Z</time></trkpt>
<trkpt lat="46.40956497" lon="8.65105724"><ele>988.7340089136</ele><time>2009-08-12T11:29:08Z</time></trkpt>
<trkpt lat="46.40960312" lon="8.65107727"><ele>987.4050294024</ele><time>2009-08-12T11:29:11Z</time></trkpt>
<trkpt lat="46.40975571" lon="8.65107536"><ele>982.2750244224</ele><time>2009-08-12T11:29:22Z</time></trkpt>
<trkpt lat="46.40986252" lon="8.65102577"><ele>978.8619996</ele><time>2009-08-12T11:29:31Z</time></trkpt>
<trkpt lat="46.40997314" lon="8.65091324"><ele>979.0410156504</ele><time>2009-08-12T11:29:41Z</time></trkpt>
<trkpt lat="46.41008759" lon="8.65080261"><ele>976.5430296888</ele><time>2009-08-12T11:29:52Z</time></trkpt>
<trkpt lat="46.41016388" lon="8.65068245"><ele>977.84100342</ele><time>2009-08-12T11:30:00Z</time></trkpt>
<trkpt lat="46.41027451" lon="8.65055466"><ele>978.3129883536</ele><time>2009-08-12T11:30:10Z</time></trkpt>
<trkpt lat="46.41028976" lon="8.65054893"><ele>978.5170287888</ele><time>2009-08-12T11:30:11Z</time></trkpt>
<trkpt lat="46.41030502" lon="8.65060329"><ele>980.2459717368</ele><time>2009-08-12T11:30:16Z</time></trkpt>
<trkpt lat="46.41029358" lon="8.65061474"><ele>980.3989868232</ele><time>2009-08-12T11:30:17Z</time></trkpt>
<trkpt lat="46.41019821" lon="8.65073109"><ele>981.8690186304</ele><time>2009-08-12T11:30:25Z</time></trkpt>
<trkpt lat="46.41013336" lon="8.65086746"><ele>983.2479859512</ele><time>2009-08-12T11:30:33Z</time></trkpt>
<trkpt lat="46.41006088" lon="8.65101528"><ele>984.8649901848</ele><time>2009-08-12T11:30:42Z</time></trkpt>
<trkpt lat="46.40998459" lon="8.65117741"><ele>987.4050294024</ele><time>2009-08-12T11:30:51Z</time></trkpt>
<trkpt lat="46.40991974" lon="8.65129375"><ele>989.189025936</ele><time>2009-08-12T11:30:58Z</time></trkpt>
<trkpt lat="46.40982056" lon="8.65137672"><ele>990.9080199072</ele><time>2009-08-12T11:31:06Z</time></trkpt>
<trkpt lat="46.40975571" lon="8.65148258"><ele>988.6209717</ele><time>2009-08-12T11:31:13Z</time></trkpt>
<trkpt lat="46.40977478" lon="8.65155125"><ele>989.5880127936</ele><time>2009-08-12T11:31:16Z</time></trkpt>
<trkpt lat="46.40987396" lon="8.65155888"><ele>988.5570069816</ele><time>2009-08-12T11:31:21Z</time></trkpt>
<trkpt lat="46.40997314" lon="8.65145493"><ele>988.6610108376</ele><time>2009-08-12T11:31:27Z</time></trkpt>
<trkpt lat="46.41011810" lon="8.65131187"><ele>989.578979436</ele><time>2009-08-12T11:31:37Z</time></trkpt>
<trkpt lat="46.41026688" lon="8.65117645"><ele>989.0250243336</ele><time>2009-08-12T11:31:48Z</time></trkpt>
<trkpt lat="46.41040039" lon="8.65104389"><ele>989.4149781384</ele><time>2009-08-12T11:31:58Z</time></trkpt>
<trkpt lat="46.41053009" lon="8.65096569"><ele>992.1179808096</ele><time>2009-08-12T11:32:06Z</time></trkpt>
<trkpt lat="46.41072464" lon="8.65085411"><ele>996.3209838336</ele><time>2009-08-12T11:32:17Z</time></trkpt>
<trkpt lat="46.41085052" lon="8.65073681"><ele>997.0960082424</ele><time>2009-08-12T11:32:26Z</time></trkpt>
<trkpt lat="46.41094971" lon="8.65063763"><ele>997.2789915696</ele><time>2009-08-12T11:32:35Z</time></trkpt>
<trkpt lat="46.41102982" lon="8.65061283"><ele>998.4979858296</ele><time>2009-08-12T11:32:41Z</time></trkpt>
<trkpt lat="46.41112518" lon="8.65065861"><ele>999.2440185768</ele><time>2009-08-12T11:32:49Z</time></trkpt>
<trkpt lat="46.41122437" lon="8.65071964"><ele>1000.2869871792</ele><time>2009-08-12T11:32:57Z</time></trkpt>
<trkpt lat="46.41134644" lon="8.65078640"><ele>1002.2210084064</ele><time>2009-08-12T11:33:07Z</time></trkpt>
<trkpt lat="46.41146469" lon="8.65078259"><ele>1011.5000000592</ele><time>2009-08-12T11:33:17Z</time></trkpt>
<trkpt lat="46.41146469" lon="8.65078735"><ele>1011.1829833704</ele><time>2009-08-12T11:33:18Z</time></trkpt>
<trkpt lat="46.41152573" lon="8.65075016"><ele>1020.5900269896</ele><time>2009-08-12T11:33:29Z</time></trkpt>
<trkpt lat="46.41161346" lon="8.65082359"><ele>1020.1680298656</ele><time>2009-08-12T11:33:37Z</time></trkpt>
<trkpt lat="46.41172409" lon="8.65088558"><ele>1019.9429932824</ele><time>2009-08-12T11:33:45Z</time></trkpt>
<trkpt lat="46.41186142" lon="8.65087891"><ele>1020.2880250536</ele><time>2009-08-12T11:33:54Z</time></trkpt>
<trkpt lat="46.41195679" lon="8.65086842"><ele>1019.497985892</ele><time>2009-08-12T11:34:02Z</time></trkpt>
<trkpt lat="46.41196823" lon="8.65087318"><ele>1019.3460083448</ele><time>2009-08-12T11:34:03Z</time></trkpt>
<trkpt lat="46.41196442" lon="8.65094852"><ele>1018.7030028744</ele><time>2009-08-12T11:34:08Z</time></trkpt>
<trkpt lat="46.41193771" lon="8.65096760"><ele>1018.4119874544</ele><time>2009-08-12T11:34:10Z</time></trkpt>
<trkpt lat="46.41181564" lon="8.65105343"><ele>1017.3670044288</ele><time>2009-08-12T11:34:20Z</time></trkpt>
<trkpt lat="46.41170120" lon="8.65106773"><ele>1017.487976196</ele><time>2009-08-12T11:34:29Z</time></trkpt>
<trkpt lat="46.41156387" lon="8.65102482"><ele>1017.3950195112</ele><time>2009-08-12T11:34:40Z</time></trkpt>
<trkpt lat="46.41146469" lon="8.65098858"><ele>1018.2189941904</ele><time>2009-08-12T11:34:48Z</time></trkpt>
<trkpt lat="46.41131973" lon="8.65094280"><ele>1021.070984016</ele><time>2009-08-12T11:34:59Z</time></trkpt>
<trkpt lat="46.41129303" lon="8.65095997"><ele>1021.1259766416</ele><time>2009-08-12T11:35:01Z</time></trkpt>
<trkpt lat="46.41128922" lon="8.65108681"><ele>1022.0440062</ele><time>2009-08-12T11:35:07Z</time></trkpt>
<trkpt lat="46.41135025" lon="8.65111446"><ele>1022.6420286768</ele><time>2009-08-12T11:35:10Z</time></trkpt>
<trkpt lat="46.41152954" lon="8.65111542"><ele>1029.136962804</ele><time>2009-08-12T11:35:19Z</time></trkpt>
<trkpt lat="46.41163635" lon="8.65118122"><ele>1030.8249513</ele><time>2009-08-12T11:35:26Z</time></trkpt>
<trkpt lat="46.41178513" lon="8.65127277"><ele>1031.3699949648</ele><time>2009-08-12T11:35:36Z</time></trkpt>
<trkpt lat="46.41192627" lon="8.65130615"><ele>1028.7180176424</ele><time>2009-08-12T11:35:45Z</time></trkpt>
<trkpt lat="46.41208267" lon="8.65129757"><ele>1029.3830564952</ele><time>2009-08-12T11:35:55Z</time></trkpt>
<trkpt lat="46.41223907" lon="8.65126896"><ele>1032.4670408784</ele><time>2009-08-12T11:36:05Z</time></trkpt>
<trkpt lat="46.41242218" lon="8.65127182"><ele>1035.2530518672</ele><time>2009-08-12T11:36:18Z</time></trkpt>
<trkpt lat="46.41253281" lon="8.65132046"><ele>1036.469970744</ele><time>2009-08-12T11:36:27Z</time></trkpt>
<trkpt lat="46.41266251" lon="8.65138817"><ele>1038.8509522152</ele><time>2009-08-12T11:36:38Z</time></trkpt>
<trkpt lat="46.41276169" lon="8.65143681"><ele>1039.4570311656</ele><time>2009-08-12T11:36:46Z</time></trkpt>
<trkpt lat="46.41283417" lon="8.65147209"><ele>1039.9339599552</ele><time>2009-08-12T11:36:52Z</time></trkpt>
<trkpt lat="46.41292953" lon="8.65146828"><ele>1041.916992108</ele><time>2009-08-12T11:36:59Z</time></trkpt>
<trkpt lat="46.41305161" lon="8.65143394"><ele>1046.057006688</ele><time>2009-08-12T11:37:09Z</time></trkpt>
<trkpt lat="46.41313553" lon="8.65140724"><ele>1047.1479492864</ele><time>2009-08-12T11:37:16Z</time></trkpt>
<trkpt lat="46.41324615" lon="8.65137672"><ele>1048.3050536016</ele><time>2009-08-12T11:37:25Z</time></trkpt>
<trkpt lat="46.41333008" lon="8.65135479"><ele>1048.3029785232</ele><time>2009-08-12T11:37:33Z</time></trkpt>
<trkpt lat="46.41344452" lon="8.65127468"><ele>1049.7110594256</ele><time>2009-08-12T11:37:44Z</time></trkpt>
<trkpt lat="46.41352844" lon="8.65120506"><ele>1050.9079590384</ele><time>2009-08-12T11:37:52Z</time></trkpt>
<trkpt lat="46.41356659" lon="8.65116787"><ele>1050.9090575376</ele><time>2009-08-12T11:37:56Z</time></trkpt>
<trkpt lat="46.41367340" lon="8.65105343"><ele>1052.1719969472</ele><time>2009-08-12T11:38:07Z</time></trkpt>
<trkpt lat="46.41373444" lon="8.65094090"><ele>1052.7580566336</ele><time>2009-08-12T11:38:15Z</time></trkpt>
<trkpt lat="46.41381073" lon="8.65081692"><ele>1052.8010255088</ele><time>2009-08-12T11:38:24Z</time></trkpt>
<trkpt lat="46.41388702" lon="8.65070629"><ele>1053.7270508856</ele><time>2009-08-12T11:38:32Z</time></trkpt>
<trkpt lat="46.41397095" lon="8.65058517"><ele>1055.3599854912</ele><time>2009-08-12T11:38:41Z</time></trkpt>
<trkpt lat="46.41407394" lon="8.65048313"><ele>1056.3520506648</ele><time>2009-08-12T11:38:51Z</time></trkpt>
<trkpt lat="46.41419601" lon="8.65039539"><ele>1063.5679931544</ele><time>2009-08-12T11:39:00Z</time></trkpt>
<trkpt lat="46.41427994" lon="8.65035820"><ele>1063.8749999064</ele><time>2009-08-12T11:39:08Z</time></trkpt>
<trkpt lat="46.41440964" lon="8.65032101"><ele>1060.6610107032</ele><time>2009-08-12T11:39:17Z</time></trkpt>
<trkpt lat="46.41444397" lon="8.65030384"><ele>1061.1049805544</ele><time>2009-08-12T11:39:20Z</time></trkpt>
<trkpt lat="46.41455078" lon="8.65024757"><ele>1063.613037108</ele><time>2009-08-12T11:39:29Z</time></trkpt>
<trkpt lat="46.41456985" lon="8.65032768"><ele>1060.5030517608</ele><time>2009-08-12T11:39:33Z</time></trkpt>
<trkpt lat="46.41455078" lon="8.65036106"><ele>1059.3830565408</ele><time>2009-08-12T11:39:35Z</time></trkpt>
<trkpt lat="46.41448212" lon="8.65038395"><ele>1058.4959718024</ele><time>2009-08-12T11:39:40Z</time></trkpt>
<trkpt lat="46.41439438" lon="8.65042019"><ele>1058.2380372408</ele><time>2009-08-12T11:39:47Z</time></trkpt>
<trkpt lat="46.41428757" lon="8.65048790"><ele>1058.9060058312</ele><time>2009-08-12T11:39:56Z</time></trkpt>
<trkpt lat="46.41415405" lon="8.65050030"><ele>1068.6140135424</ele><time>2009-08-12T11:40:05Z</time></trkpt>
<trkpt lat="46.41406250" lon="8.65056419"><ele>1070.060058504</ele><time>2009-08-12T11:40:12Z</time></trkpt>
<trkpt lat="46.41404343" lon="8.65063763"><ele>1071.6629639088</ele><time>2009-08-12T11:40:15Z</time></trkpt>
<trkpt lat="46.41410065" lon="8.65070915"><ele>1071.2149658208</ele><time>2009-08-12T11:40:19Z</time></trkpt>
<trkpt lat="46.41419983" lon="8.65065861"><ele>1069.5329590248</ele><time>2009-08-12T11:40:24Z</time></trkpt>
<trkpt lat="46.41427231" lon="8.65057564"><ele>1069.6550292912</ele><time>2009-08-12T11:40:29Z</time></trkpt>
<trkpt lat="46.41445160" lon="8.65051270"><ele>1070.048950068</ele><time>2009-08-12T11:40:39Z</time></trkpt>
<trkpt lat="46.41463852" lon="8.65044308"><ele>1074.1490477352</ele><time>2009-08-12T11:40:49Z</time></trkpt>
<trkpt lat="46.41483688" lon="8.65038586"><ele>1078.589965752</ele><time>2009-08-12T11:40:59Z</time></trkpt>
<trkpt lat="46.41504288" lon="8.65036297"><ele>1082.6500242816</ele><time>2009-08-12T11:41:10Z</time></trkpt>
<trkpt lat="46.41515732" lon="8.65035057"><ele>1087.8850096968</ele><time>2009-08-12T11:41:17Z</time></trkpt>
<trkpt lat="46.41526794" lon="8.65036678"><ele>1088.6040039408</ele><time>2009-08-12T11:41:25Z</time></trkpt>
<trkpt lat="46.41540146" lon="8.65040207"><ele>1088.9639892</ele><time>2009-08-12T11:41:36Z</time></trkpt>
<trkpt lat="46.41550827" lon="8.65043736"><ele>1089.5100097488</ele><time>2009-08-12T11:41:45Z</time></trkpt>
<trkpt lat="46.41560745" lon="8.65046501"><ele>1092.6999511464</ele><time>2009-08-12T11:41:52Z</time></trkpt>
<trkpt lat="46.41570663" lon="8.65054226"><ele>1094.6949463944</ele><time>2009-08-12T11:42:01Z</time></trkpt>
<trkpt lat="46.41581726" lon="8.65063763"><ele>1094.48999034</ele><time>2009-08-12T11:42:09Z</time></trkpt>
<trkpt lat="46.41596985" lon="8.65072441"><ele>1093.1920166088</ele><time>2009-08-12T11:42:18Z</time></trkpt>
<trkpt lat="46.41611862" lon="8.65066242"><ele>1094.1369627504</ele><time>2009-08-12T11:42:26Z</time></trkpt>
<trkpt lat="46.41627884" lon="8.65052509"><ele>1090.6679687232</ele><time>2009-08-12T11:42:36Z</time></trkpt>
<trkpt lat="46.41641235" lon="8.65043545"><ele>1089.7960206576</ele><time>2009-08-12T11:42:44Z</time></trkpt>
<trkpt lat="46.41654968" lon="8.65040207"><ele>1093.1230467696</ele><time>2009-08-12T11:42:52Z</time></trkpt>
<trkpt lat="46.41667938" lon="8.65040779"><ele>1097.38000488</ele><time>2009-08-12T11:42:59Z</time></trkpt>
<trkpt lat="46.41681671" lon="8.65039921"><ele>1103.8020018912</ele><time>2009-08-12T11:43:06Z</time></trkpt>
<trkpt lat="46.41697311" lon="8.65050030"><ele>1097.4649657464</ele><time>2009-08-12T11:43:14Z</time></trkpt>
<trkpt lat="46.41708755" lon="8.65060616"><ele>1095.47399904</ele><time>2009-08-12T11:43:21Z</time></trkpt>
<trkpt lat="46.41719818" lon="8.65082073"><ele>1092.1760252448</ele><time>2009-08-12T11:43:31Z</time></trkpt>
<trkpt lat="46.41727066" lon="8.65094185"><ele>1092.67700184</ele><time>2009-08-12T11:43:37Z</time></trkpt>
<trkpt lat="46.41735458" lon="8.65107727"><ele>1094.0999755752</ele><time>2009-08-12T11:43:44Z</time></trkpt>
<trkpt lat="46.41747284" lon="8.65122128"><ele>1094.3969726952</ele><time>2009-08-12T11:43:51Z</time></trkpt>
<trkpt lat="46.41757202" lon="8.65131378"><ele>1097.7929686464</ele><time>2009-08-12T11:43:57Z</time></trkpt>
<trkpt lat="46.41766357" lon="8.65137672"><ele>1100.0300293488</ele><time>2009-08-12T11:44:02Z</time></trkpt>
<trkpt lat="46.41779327" lon="8.65144730"><ele>1098.6610107</ele><time>2009-08-12T11:44:08Z</time></trkpt>
<trkpt lat="46.41792297" lon="8.65148258"><ele>1099.677002064</ele><time>2009-08-12T11:44:14Z</time></trkpt>
<trkpt lat="46.41803741" lon="8.65152359"><ele>1099.5949706304</ele><time>2009-08-12T11:44:20Z</time></trkpt>
<trkpt lat="46.41827393" lon="8.65157890"><ele>1110.3649902384</ele><time>2009-08-12T11:44:32Z</time></trkpt>
<trkpt lat="46.41840363" lon="8.65170956"><ele>1107.3179930304</ele><time>2009-08-12T11:44:39Z</time></trkpt>
<trkpt lat="46.41850662" lon="8.65183640"><ele>1106.8969727904</ele><time>2009-08-12T11:44:45Z</time></trkpt>
<trkpt lat="46.41859436" lon="8.65195370"><ele>1105.6719971352</ele><time>2009-08-12T11:44:50Z</time></trkpt>
<trkpt lat="46.41871643" lon="8.65211487"><ele>1105.2110596776</ele><time>2009-08-12T11:44:57Z</time></trkpt>
<trkpt lat="46.41883469" lon="8.65224743"><ele>1110.5159912064</ele><time>2009-08-12T11:45:04Z</time></trkpt>
<trkpt lat="46.41897202" lon="8.65226269"><ele>1119.7380370752</ele><time>2009-08-12T11:45:09Z</time></trkpt>
<trkpt lat="46.41915512" lon="8.65221596"><ele>1124.8260497592</ele><time>2009-08-12T11:45:16Z</time></trkpt>
<trkpt lat="46.41925812" lon="8.65229416"><ele>1122.2399903136</ele><time>2009-08-12T11:45:22Z</time></trkpt>
<trkpt lat="46.41935730" lon="8.65244102"><ele>1114.8120115704</ele><time>2009-08-12T11:45:27Z</time></trkpt>
<trkpt lat="46.41946411" lon="8.65261269"><ele>1111.3509520968</ele><time>2009-08-12T11:45:34Z</time></trkpt>
<trkpt lat="46.41957474" lon="8.65275192"><ele>1110.6359863944</ele><time>2009-08-12T11:45:40Z</time></trkpt>
<trkpt lat="46.41969299" lon="8.65287971"><ele>1114.488037212</ele><time>2009-08-12T11:45:47Z</time></trkpt>
<trkpt lat="46.41982651" lon="8.65298080"><ele>1122.0560304072</ele><time>2009-08-12T11:45:54Z</time></trkpt>
<trkpt lat="46.41993332" lon="8.65301991"><ele>1130.6920165896</ele><time>2009-08-12T11:45:59Z</time></trkpt>
<trkpt lat="46.42008591" lon="8.65304756"><ele>1140.7270509264</ele><time>2009-08-12T11:46:05Z</time></trkpt>
<trkpt lat="46.42029190" lon="8.65307045"><ele>1151.2659912912</ele><time>2009-08-12T11:46:13Z</time></trkpt>
<trkpt lat="46.42043304" lon="8.65320396"><ele>1137.546996936</ele><time>2009-08-12T11:46:20Z</time></trkpt>
<trkpt lat="46.42057037" lon="8.65329456"><ele>1131.6569823</ele><time>2009-08-12T11:46:27Z</time></trkpt>
<trkpt lat="46.42079926" lon="8.65331268"><ele>1134.6400147896</ele><time>2009-08-12T11:46:37Z</time></trkpt>
<trkpt lat="46.42097092" lon="8.65332317"><ele>1131.8879393184</ele><time>2009-08-12T11:46:45Z</time></trkpt>
<trkpt lat="46.42113876" lon="8.65342426"><ele>1125.7650145056</ele><time>2009-08-12T11:46:52Z</time></trkpt>
<trkpt lat="46.42129517" lon="8.65364170"><ele>1122.860961792</ele><time>2009-08-12T11:46:58Z</time></trkpt>
<trkpt lat="46.42145538" lon="8.65388775"><ele>1120.5689697288</ele><time>2009-08-12T11:47:03Z</time></trkpt>
<trkpt lat="46.42162704" lon="8.65414047"><ele>1119.40405278</ele><time>2009-08-12T11:47:08Z</time></trkpt>
<trkpt lat="46.42184830" lon="8.65447140"><ele>1118.0639648328</ele><time>2009-08-12T11:47:15Z</time></trkpt>
<trkpt lat="46.42202377" lon="8.65474319"><ele>1116.7760010384</ele><time>2009-08-12T11:47:20Z</time></trkpt>
<trkpt lat="46.42226028" lon="8.65512371"><ele>1115.774047848</ele><time>2009-08-12T11:47:27Z</time></trkpt>
<trkpt lat="46.42237091" lon="8.65528488"><ele>1116.4940186712</ele><time>2009-08-12T11:47:30Z</time></trkpt>
<trkpt lat="46.42258072" lon="8.65546322"><ele>1119.3239745048</ele><time>2009-08-12T11:47:35Z</time></trkpt>
<trkpt lat="46.42302704" lon="8.65558910"><ele>1125.0649413312</ele><time>2009-08-12T11:47:44Z</time></trkpt>
<trkpt lat="46.42327881" lon="8.65564632"><ele>1124.586059688</ele><time>2009-08-12T11:47:50Z</time></trkpt>
<trkpt lat="46.42363739" lon="8.65577316"><ele>1121.9210204664</ele><time>2009-08-12T11:48:00Z</time></trkpt>
<trkpt lat="46.42395782" lon="8.65581226"><ele>1123.9169922936</ele><time>2009-08-12T11:48:09Z</time></trkpt>
<trkpt lat="46.42423630" lon="8.65573311"><ele>1131.0019530792</ele><time>2009-08-12T11:48:18Z</time></trkpt>
<trkpt lat="46.42451477" lon="8.65568924"><ele>1135.1250000528</ele><time>2009-08-12T11:48:28Z</time></trkpt>
<trkpt lat="46.42471313" lon="8.65579319"><ele>1131.5310057168</ele><time>2009-08-12T11:48:36Z</time></trkpt>
<trkpt lat="46.42491531" lon="8.65590858"><ele>1129.7969969928</ele><time>2009-08-12T11:48:44Z</time></trkpt>
<trkpt lat="46.42509079" lon="8.65595341"><ele>1132.60998522</ele><time>2009-08-12T11:48:52Z</time></trkpt>
<trkpt lat="46.42527771" lon="8.65596771"><ele>1139.6020508904</ele><time>2009-08-12T11:49:02Z</time></trkpt>
<trkpt lat="46.42546082" lon="8.65604115"><ele>1136.7419433264</ele><time>2009-08-12T11:49:12Z</time></trkpt>
<trkpt lat="46.42562485" lon="8.65608692"><ele>1138.281982512</ele><time>2009-08-12T11:49:21Z</time></trkpt>
<trkpt lat="46.42574310" lon="8.65613461"><ele>1136.9040527304</ele><time>2009-08-12T11:49:28Z</time></trkpt>
<trkpt lat="46.42598343" lon="8.65618706"><ele>1138.3480223088</ele><time>2009-08-12T11:49:41Z</time></trkpt>
<trkpt lat="46.42613602" lon="8.65609837"><ele>1150.3620605616</ele><time>2009-08-12T11:49:49Z</time></trkpt>
<trkpt lat="46.42622375" lon="8.65603447"><ele>1153.7810058192</ele><time>2009-08-12T11:49:55Z</time></trkpt>
<trkpt lat="46.42635727" lon="8.65599346"><ele>1161.1569823296</ele><time>2009-08-12T11:50:05Z</time></trkpt>
<trkpt lat="46.42644882" lon="8.65598202"><ele>1153.973022504</ele><time>2009-08-12T11:50:13Z</time></trkpt>
<trkpt lat="46.42653275" lon="8.65596199"><ele>1150.5520018632</ele><time>2009-08-12T11:50:20Z</time></trkpt>
<trkpt lat="46.42665863" lon="8.65590763"><ele>1149.020019456</ele><time>2009-08-12T11:50:30Z</time></trkpt>
<trkpt lat="46.42678833" lon="8.65584469"><ele>1150.0479736104</ele><time>2009-08-12T11:50:40Z</time></trkpt>
<trkpt lat="46.42691040" lon="8.65580177"><ele>1150.9040528736</ele><time>2009-08-12T11:50:50Z</time></trkpt>
<trkpt lat="46.42705917" lon="8.65575600"><ele>1155.7569580776</ele><time>2009-08-12T11:51:02Z</time></trkpt>
<trkpt lat="46.42710876" lon="8.65573883"><ele>1166.3919677448</ele><time>2009-08-12T11:51:09Z</time></trkpt>
<trkpt lat="46.42724228" lon="8.65581036"><ele>1168.2030027816</ele><time>2009-08-12T11:51:19Z</time></trkpt>
<trkpt lat="46.42731857" lon="8.65595245"><ele>1161.6030272592</ele><time>2009-08-12T11:51:26Z</time></trkpt>
<trkpt lat="46.42735672" lon="8.65612984"><ele>1158.1479491808</ele><time>2009-08-12T11:51:34Z</time></trkpt>
<trkpt lat="46.42737961" lon="8.65626240"><ele>1160.0360108352</ele><time>2009-08-12T11:51:40Z</time></trkpt>
<trkpt lat="46.42740250" lon="8.65643597"><ele>1161.0679932264</ele><time>2009-08-12T11:51:47Z</time></trkpt>
<trkpt lat="46.42744064" lon="8.65657711"><ele>1160.0379639936</ele><time>2009-08-12T11:51:54Z</time></trkpt>
<trkpt lat="46.42749405" lon="8.65675831"><ele>1161.3869627688</ele><time>2009-08-12T11:52:05Z</time></trkpt>
<trkpt lat="46.42752838" lon="8.65678406"><ele>1168.1440428792</ele><time>2009-08-12T11:52:09Z</time></trkpt>
<trkpt lat="46.42763901" lon="8.65682602"><ele>1174.6280517552</ele><time>2009-08-12T11:52:18Z</time></trkpt>
<trkpt lat="46.42768860" lon="8.65703106"><ele>1164.1159667088</ele><time>2009-08-12T11:52:26Z</time></trkpt>
<trkpt lat="46.42779160" lon="8.65723896"><ele>1162.998046872</ele><time>2009-08-12T11:52:36Z</time></trkpt>
<trkpt lat="46.42790985" lon="8.65723991"><ele>1162.436035296</ele><time>2009-08-12T11:52:43Z</time></trkpt>
<trkpt lat="46.42800903" lon="8.65718269"><ele>1161.1839598728</ele><time>2009-08-12T11:52:51Z</time></trkpt>
<trkpt lat="46.42800903" lon="8.65718269"><ele>1160.9439698016</ele><time>2009-08-12T11:52:52Z</time></trkpt>
<trkpt lat="46.42810822" lon="8.65715027"><ele>1154.9160154872</ele><time>2009-08-12T11:54:26Z</time></trkpt>
<trkpt lat="46.42815781" lon="8.65716171"><ele>1154.8869628656</ele><time>2009-08-12T11:54:29Z</time></trkpt>
<trkpt lat="46.42830276" lon="8.65728664"><ele>1159.9210204632</ele><time>2009-08-12T11:54:39Z</time></trkpt>
<trkpt lat="46.42837524" lon="8.65736961"><ele>1160.9969483088</ele><time>2009-08-12T11:54:44Z</time></trkpt>
<trkpt lat="46.42852020" lon="8.65753746"><ele>1161.6009521808</ele><time>2009-08-12T11:54:53Z</time></trkpt>
<trkpt lat="46.42865753" lon="8.65775776"><ele>1162.503051672</ele><time>2009-08-12T11:55:03Z</time></trkpt>
<trkpt lat="46.42873764" lon="8.65792370"><ele>1163.7409666968</ele><time>2009-08-12T11:55:10Z</time></trkpt>
<trkpt lat="46.42878723" lon="8.65817165"><ele>1164.9410398872</ele><time>2009-08-12T11:55:20Z</time></trkpt>
<trkpt lat="46.42884445" lon="8.65840435"><ele>1165.5880126344</ele><time>2009-08-12T11:55:29Z</time></trkpt>
<trkpt lat="46.42895889" lon="8.65854836"><ele>1165.5460206432</ele><time>2009-08-12T11:55:35Z</time></trkpt>
<trkpt lat="46.42914963" lon="8.65871525"><ele>1164.7800292872</ele><time>2009-08-12T11:55:40Z</time></trkpt>
<trkpt lat="46.42929459" lon="8.65882397"><ele>1163.9959718256</ele><time>2009-08-12T11:55:43Z</time></trkpt>
<trkpt lat="46.42953110" lon="8.65888309"><ele>1163.0129394</ele><time>2009-08-12T11:55:47Z</time></trkpt>
<trkpt lat="46.42988205" lon="8.65888214"><ele>1161.5429688576</ele><time>2009-08-12T11:55:52Z</time></trkpt>
<trkpt lat="46.43015289" lon="8.65904522"><ele>1160.7729492648</ele><time>2009-08-12T11:55:56Z</time></trkpt>
<trkpt lat="46.43057632" lon="8.65951347"><ele>1160.4389649696</ele><time>2009-08-12T11:56:04Z</time></trkpt>
<trkpt lat="46.43092728" lon="8.65991879"><ele>1160.1450195072</ele><time>2009-08-12T11:56:12Z</time></trkpt>
<trkpt lat="46.43121338" lon="8.66022682"><ele>1160.155029444</ele><time>2009-08-12T11:56:20Z</time></trkpt>
<trkpt lat="46.43134689" lon="8.66038418"><ele>1160.3380127712</ele><time>2009-08-12T11:56:25Z</time></trkpt>
<trkpt lat="46.43143845" lon="8.66050339"><ele>1160.535034272</ele><time>2009-08-12T11:56:31Z</time></trkpt>
<trkpt lat="46.43143845" lon="8.66050339"><ele>1160.5739746056</ele><time>2009-08-12T11:56:32Z</time></trkpt>
<trkpt lat="46.43150711" lon="8.66059208"><ele>1159.092040968</ele><time>2009-08-12T11:57:05Z</time></trkpt>
<trkpt lat="46.43153381" lon="8.66062546"><ele>1159.123046748</ele><time>2009-08-12T11:57:06Z</time></trkpt>
<trkpt lat="46.43167496" lon="8.66073036"><ele>1159.4959716816</ele><time>2009-08-12T11:57:10Z</time></trkpt>
<trkpt lat="46.43176270" lon="8.66075420"><ele>1159.9790037864</ele><time>2009-08-12T11:57:12Z</time></trkpt>
<trkpt lat="46.43212891" lon="8.66073895"><ele>1163.7700196232</ele><time>2009-08-12T11:57:20Z</time></trkpt>
<trkpt lat="46.43236542" lon="8.66077900"><ele>1164.8320312152</ele><time>2009-08-12T11:57:26Z</time></trkpt>
<trkpt lat="46.43260956" lon="8.66095543"><ele>1166.449951068</ele><time>2009-08-12T11:57:34Z</time></trkpt>
<trkpt lat="46.43290329" lon="8.66125488"><ele>1165.8630370272</ele><time>2009-08-12T11:57:43Z</time></trkpt>
<trkpt lat="46.43309021" lon="8.66148090"><ele>1165.7390136024</ele><time>2009-08-12T11:57:49Z</time></trkpt>
<trkpt lat="46.43321609" lon="8.66169357"><ele>1165.9310302872</ele><time>2009-08-12T11:57:54Z</time></trkpt>
<trkpt lat="46.43321609" lon="8.66197300"><ele>1165.5739744608</ele><time>2009-08-12T11:57:59Z</time></trkpt>
<trkpt lat="46.43310165" lon="8.66241264"><ele>1166.6519776896</ele><time>2009-08-12T11:58:07Z</time></trkpt>
<trkpt lat="46.43314743" lon="8.66259575"><ele>1168.2650146464</ele><time>2009-08-12T11:58:11Z</time></trkpt>
<trkpt lat="46.43332291" lon="8.66282368"><ele>1172.9350584432</ele><time>2009-08-12T11:58:19Z</time></trkpt>
<trkpt lat="46.43340683" lon="8.66294956"><ele>1173.1090087176</ele><time>2009-08-12T11:58:25Z</time></trkpt>
<trkpt lat="46.43358994" lon="8.66316605"><ele>1175.8229979048</ele><time>2009-08-12T11:58:36Z</time></trkpt>
<trkpt lat="46.43374634" lon="8.66335106"><ele>1176.3220213416</ele><time>2009-08-12T11:58:46Z</time></trkpt>
<trkpt lat="46.43390274" lon="8.66344547"><ele>1179.3819579192</ele><time>2009-08-12T11:58:55Z</time></trkpt>
<trkpt lat="46.43407822" lon="8.66341782"><ele>1187.0589600912</ele><time>2009-08-12T11:59:03Z</time></trkpt>
<trkpt lat="46.43429565" lon="8.66334248"><ele>1200.4010009712</ele><time>2009-08-12T11:59:13Z</time></trkpt>
<trkpt lat="46.43444824" lon="8.66333771"><ele>1200.1280516568</ele><time>2009-08-12T11:59:22Z</time></trkpt>
<trkpt lat="46.43462372" lon="8.66332436"><ele>1215.0710447832</ele><time>2009-08-12T11:59:31Z</time></trkpt>
<trkpt lat="46.43477631" lon="8.66334057"><ele>1218.9310301544</ele><time>2009-08-12T11:59:40Z</time></trkpt>
<trkpt lat="46.43487167" lon="8.66324329"><ele>1255.2559813296</ele><time>2009-08-12T11:59:49Z</time></trkpt>
<trkpt lat="46.43501663" lon="8.66319942"><ele>1272.9940184976</ele><time>2009-08-12T11:59:59Z</time></trkpt>
<trkpt lat="46.43513489" lon="8.66320133"><ele>1254.186035184</ele><time>2009-08-12T12:00:07Z</time></trkpt>
<trkpt lat="46.43527222" lon="8.66312218"><ele>1230.5460205896</ele><time>2009-08-12T12:00:16Z</time></trkpt>
<trkpt lat="46.43544388" lon="8.66300964"><ele>1215.626953044</ele><time>2009-08-12T12:00:25Z</time></trkpt>
<trkpt lat="46.43560791" lon="8.66299534"><ele>1208.2099608168</ele><time>2009-08-12T12:00:31Z</time></trkpt>
<trkpt lat="46.43573761" lon="8.66309643"><ele>1205.321044776</ele><time>2009-08-12T12:00:36Z</time></trkpt>
<trkpt lat="46.43587112" lon="8.66324234"><ele>1209.3089598888</ele><time>2009-08-12T12:00:42Z</time></trkpt>
<trkpt lat="46.43607330" lon="8.66343784"><ele>1213.5959472</ele><time>2009-08-12T12:00:50Z</time></trkpt>
<trkpt lat="46.43625641" lon="8.66349125"><ele>1215.4010008416</ele><time>2009-08-12T12:00:56Z</time></trkpt>
<trkpt lat="46.43655014" lon="8.66348362"><ele>1217.4210204744</ele><time>2009-08-12T12:01:05Z</time></trkpt>
<trkpt lat="46.43682861" lon="8.66348553"><ele>1218.8229980616</ele><time>2009-08-12T12:01:14Z</time></trkpt>
<trkpt lat="46.43704224" lon="8.66343021"><ele>1218.7769775288</ele><time>2009-08-12T12:01:22Z</time></trkpt>
<trkpt lat="46.43723297" lon="8.66335392"><ele>1206.5150146512</ele><time>2009-08-12T12:01:30Z</time></trkpt>
<trkpt lat="46.43740845" lon="8.66327667"><ele>1198.4270018712</ele><time>2009-08-12T12:01:38Z</time></trkpt>
<trkpt lat="46.43754959" lon="8.66320133"><ele>1193.9980469496</ele><time>2009-08-12T12:01:45Z</time></trkpt>
<trkpt lat="46.43769455" lon="8.66304111"><ele>1192.4930420856</ele><time>2009-08-12T12:01:54Z</time></trkpt>
<trkpt lat="46.43779755" lon="8.66286659"><ele>1190.6970214968</ele><time>2009-08-12T12:02:02Z</time></trkpt>
<trkpt lat="46.43791580" lon="8.66267109"><ele>1189.6080323616</ele><time>2009-08-12T12:02:12Z</time></trkpt>
<trkpt lat="46.43802261" lon="8.66249943"><ele>1189.562988408</ele><time>2009-08-12T12:02:21Z</time></trkpt>
<trkpt lat="46.43814850" lon="8.66228104"><ele>1191.671997144</ele><time>2009-08-12T12:02:32Z</time></trkpt>
<trkpt lat="46.43820190" lon="8.66206932"><ele>1195.8139648824</ele><time>2009-08-12T12:02:41Z</time></trkpt>
<trkpt lat="46.43818665" lon="8.66200924"><ele>1199.2619627616</ele><time>2009-08-12T12:02:43Z</time></trkpt>
<trkpt lat="46.43810654" lon="8.66188812"><ele>1208.5789794336</ele><time>2009-08-12T12:02:48Z</time></trkpt>
<trkpt lat="46.43801117" lon="8.66177273"><ele>1210.482055536</ele><time>2009-08-12T12:02:57Z</time></trkpt>
<trkpt lat="46.43797302" lon="8.66167831"><ele>1211.2719727776</ele><time>2009-08-12T12:03:04Z</time></trkpt>
<trkpt lat="46.43795013" lon="8.66153908"><ele>1213.0200196752</ele><time>2009-08-12T12:03:12Z</time></trkpt>
<trkpt lat="46.43793869" lon="8.66133118"><ele>1215.7440184944</ele><time>2009-08-12T12:03:23Z</time></trkpt>
<trkpt lat="46.43797302" lon="8.66132736"><ele>1217.0350342512</ele><time>2009-08-12T12:03:28Z</time></trkpt>
<trkpt lat="46.43795013" lon="8.66138935"><ele>1220.8210449672</ele><time>2009-08-12T12:03:32Z</time></trkpt>
<trkpt lat="46.43798447" lon="8.66158867"><ele>1217.9790038136</ele><time>2009-08-12T12:03:41Z</time></trkpt>
<trkpt lat="46.43806458" lon="8.66175461"><ele>1217.1199951176</ele><time>2009-08-12T12:03:51Z</time></trkpt>
<trkpt lat="46.43819046" lon="8.66176891"><ele>1218.7919922816</ele><time>2009-08-12T12:03:59Z</time></trkpt>
<trkpt lat="46.43829727" lon="8.66170597"><ele>1219.9899900888</ele><time>2009-08-12T12:04:07Z</time></trkpt>
<trkpt lat="46.43839645" lon="8.66164207"><ele>1222.1250000936</ele><time>2009-08-12T12:04:15Z</time></trkpt>
<trkpt lat="46.43849564" lon="8.66158962"><ele>1224.2480470032</ele><time>2009-08-12T12:04:23Z</time></trkpt>
<trkpt lat="46.43860245" lon="8.66154385"><ele>1223.9630126736</ele><time>2009-08-12T12:04:32Z</time></trkpt>
<trkpt lat="46.43870926" lon="8.66149807"><ele>1225.0240479912</ele><time>2009-08-12T12:04:39Z</time></trkpt>
<trkpt lat="46.43884277" lon="8.66146183"><ele>1227.021972672</ele><time>2009-08-12T12:04:48Z</time></trkpt>
<trkpt lat="46.43897629" lon="8.66142273"><ele>1227.6999511992</ele><time>2009-08-12T12:04:58Z</time></trkpt>
<trkpt lat="46.43904877" lon="8.66139889"><ele>1229.0560301736</ele><time>2009-08-12T12:05:03Z</time></trkpt>
<trkpt lat="46.43916702" lon="8.66137600"><ele>1231.2700196496</ele><time>2009-08-12T12:05:11Z</time></trkpt>
<trkpt lat="46.43923569" lon="8.66130543"><ele>1233.4709472264</ele><time>2009-08-12T12:05:18Z</time></trkpt>
<trkpt lat="46.43923187" lon="8.66125679"><ele>1234.9659424584</ele><time>2009-08-12T12:05:20Z</time></trkpt>
<trkpt lat="46.43912888" lon="8.66118336"><ele>1240.3969727952</ele><time>2009-08-12T12:05:25Z</time></trkpt>
<trkpt lat="46.43905258" lon="8.66122627"><ele>1236.5860596144</ele><time>2009-08-12T12:05:30Z</time></trkpt>
<trkpt lat="46.43903351" lon="8.66123104"><ele>1236.3470458176</ele><time>2009-08-12T12:05:31Z</time></trkpt>
<trkpt lat="46.43888092" lon="8.66126156"><ele>1235.1560059848</ele><time>2009-08-12T12:05:40Z</time></trkpt>
<trkpt lat="46.43873978" lon="8.66126156"><ele>1234.8780518544</ele><time>2009-08-12T12:05:49Z</time></trkpt>
<trkpt lat="46.43861008" lon="8.66126537"><ele>1236.2430419616</ele><time>2009-08-12T12:05:58Z</time></trkpt>
<trkpt lat="46.43849564" lon="8.66121769"><ele>1236.8170166328</ele><time>2009-08-12T12:06:06Z</time></trkpt>
<trkpt lat="46.43839645" lon="8.66114426"><ele>1236.468994164</ele><time>2009-08-12T12:06:13Z</time></trkpt>
<trkpt lat="46.43833160" lon="8.66107655"><ele>1236.7359617784</ele><time>2009-08-12T12:06:18Z</time></trkpt>
<trkpt lat="46.43837357" lon="8.66106129"><ele>1236.4620361896</ele><time>2009-08-12T12:06:22Z</time></trkpt>
<trkpt lat="46.43849182" lon="8.66118717"><ele>1236.9129640152</ele><time>2009-08-12T12:06:29Z</time></trkpt>
<trkpt lat="46.43860245" lon="8.66118813"><ele>1238.4029541264</ele><time>2009-08-12T12:06:36Z</time></trkpt>
<trkpt lat="46.43872070" lon="8.66111565"><ele>1241.2729490976</ele><time>2009-08-12T12:06:44Z</time></trkpt>
<trkpt lat="46.43880844" lon="8.66104984"><ele>1241.5080565776</ele><time>2009-08-12T12:06:49Z</time></trkpt>
<trkpt lat="46.43889618" lon="8.66097260"><ele>1243.5159911952</ele><time>2009-08-12T12:06:56Z</time></trkpt>
<trkpt lat="46.43899155" lon="8.66092587"><ele>1245.7690429248</ele><time>2009-08-12T12:07:03Z</time></trkpt>
<trkpt lat="46.43910980" lon="8.66084957"><ele>1250.9720459808</ele><time>2009-08-12T12:07:09Z</time></trkpt>
<trkpt lat="46.43921280" lon="8.66074562"><ele>1257.9239502888</ele><time>2009-08-12T12:07:16Z</time></trkpt>
<trkpt lat="46.43931961" lon="8.66067314"><ele>1262.2979735448</ele><time>2009-08-12T12:07:23Z</time></trkpt>
<trkpt lat="46.43942261" lon="8.66060638"><ele>1269.3890379504</ele><time>2009-08-12T12:07:32Z</time></trkpt>
<trkpt lat="46.43945313" lon="8.66058445"><ele>1278.5860594344</ele><time>2009-08-12T12:07:38Z</time></trkpt>
<trkpt lat="46.43952942" lon="8.66056442"><ele>1292.0240480016</ele><time>2009-08-12T12:07:46Z</time></trkpt>
<trkpt lat="46.43963242" lon="8.66056824"><ele>1297.4439695976</ele><time>2009-08-12T12:07:53Z</time></trkpt>
<trkpt lat="46.43974686" lon="8.66058064"><ele>1292.4289549896</ele><time>2009-08-12T12:08:00Z</time></trkpt>
<trkpt lat="46.43988800" lon="8.66055679"><ele>1287.9079590024</ele><time>2009-08-12T12:08:09Z</time></trkpt>
<trkpt lat="46.44004059" lon="8.66051388"><ele>1280.9270020728</ele><time>2009-08-12T12:08:18Z</time></trkpt>
<trkpt lat="46.44017792" lon="8.66046906"><ele>1270.7709959688</ele><time>2009-08-12T12:08:26Z</time></trkpt>
<trkpt lat="46.44029236" lon="8.66043854"><ele>1265.4069823128</ele><time>2009-08-12T12:08:33Z</time></trkpt>
<trkpt lat="46.44043732" lon="8.66043758"><ele>1266.8950195704</ele><time>2009-08-12T12:08:42Z</time></trkpt>
<trkpt lat="46.44057465" lon="8.66041565"><ele>1265.9069823288</ele><time>2009-08-12T12:08:50Z</time></trkpt>
<trkpt lat="46.44076538" lon="8.66048908"><ele>1263.3659668368</ele><time>2009-08-12T12:08:59Z</time></trkpt>
<trkpt lat="46.44084930" lon="8.66055965"><ele>1264.133056692</ele><time>2009-08-12T12:09:05Z</time></trkpt>
<trkpt lat="46.44094086" lon="8.66070938"><ele>1259.8750000824</ele><time>2009-08-12T12:09:13Z</time></trkpt>
<trkpt lat="46.44098663" lon="8.66085529"><ele>1257.8540038704</ele><time>2009-08-12T12:09:20Z</time></trkpt>
<trkpt lat="46.44099808" lon="8.66106510"><ele>1256.6829833016</ele><time>2009-08-12T12:09:28Z</time></trkpt>
<trkpt lat="46.44100952" lon="8.66134262"><ele>1254.6850586208</ele><time>2009-08-12T12:09:37Z</time></trkpt>
<trkpt lat="46.44106293" lon="8.66162968"><ele>1254.4160156232</ele><time>2009-08-12T12:09:45Z</time></trkpt>
<trkpt lat="46.44112778" lon="8.66184139"><ele>1253.1569825304</ele><time>2009-08-12T12:09:51Z</time></trkpt>
<trkpt lat="46.44121933" lon="8.66201019"><ele>1253.6970213792</ele><time>2009-08-12T12:09:57Z</time></trkpt>
<trkpt lat="46.44137573" lon="8.66221905"><ele>1259.706054624</ele><time>2009-08-12T12:10:04Z</time></trkpt>
<trkpt lat="46.44149780" lon="8.66234493"><ele>1263.1719969936</ele><time>2009-08-12T12:10:09Z</time></trkpt>
<trkpt lat="46.44168091" lon="8.66238022"><ele>1266.5400391272</ele><time>2009-08-12T12:10:15Z</time></trkpt>
<trkpt lat="46.44190979" lon="8.66238213"><ele>1271.7290040096</ele><time>2009-08-12T12:10:23Z</time></trkpt>
<trkpt lat="46.44208527" lon="8.66236782"><ele>1274.9949951408</ele><time>2009-08-12T12:10:30Z</time></trkpt>
<trkpt lat="46.44225311" lon="8.66239452"><ele>1278.630981468</ele><time>2009-08-12T12:10:37Z</time></trkpt>
<trkpt lat="46.44227982" lon="8.66238594"><ele>1281.7540284096</ele><time>2009-08-12T12:10:41Z</time></trkpt>
<trkpt lat="46.44227600" lon="8.66244698"><ele>1281.843994092</ele><time>2009-08-12T12:11:43Z</time></trkpt>
<trkpt lat="46.44238663" lon="8.66250801"><ele>1287.2829589824</ele><time>2009-08-12T12:11:56Z</time></trkpt>
<trkpt lat="46.44242477" lon="8.66252232"><ele>1289.3879394816</ele><time>2009-08-12T12:11:58Z</time></trkpt>
<trkpt lat="46.44253540" lon="8.66259861"><ele>1299.7060546848</ele><time>2009-08-12T12:12:06Z</time></trkpt>
<trkpt lat="46.44269180" lon="8.66278839"><ele>1291.9980467328</ele><time>2009-08-12T12:12:13Z</time></trkpt>
<trkpt lat="46.44285965" lon="8.66300297"><ele>1288.1810302368</ele><time>2009-08-12T12:12:22Z</time></trkpt>
<trkpt lat="46.44304276" lon="8.66307545"><ele>1288.3620604056</ele><time>2009-08-12T12:12:30Z</time></trkpt>
<trkpt lat="46.44319916" lon="8.66310215"><ele>1287.3339843312</ele><time>2009-08-12T12:12:36Z</time></trkpt>
<trkpt lat="46.44340897" lon="8.66308689"><ele>1286.4160157328</ele><time>2009-08-12T12:12:45Z</time></trkpt>
<trkpt lat="46.44358444" lon="8.66311264"><ele>1285.4940185928</ele><time>2009-08-12T12:12:53Z</time></trkpt>
<trkpt lat="46.44363785" lon="8.66324425"><ele>1284.703002852</ele><time>2009-08-12T12:12:58Z</time></trkpt>
<trkpt lat="46.44362640" lon="8.66344547"><ele>1283.8399659192</ele><time>2009-08-12T12:13:04Z</time></trkpt>
<trkpt lat="46.44356918" lon="8.66347790"><ele>1284.8380127928</ele><time>2009-08-12T12:13:08Z</time></trkpt>
<trkpt lat="46.44357300" lon="8.66343117"><ele>1285.4649659712</ele><time>2009-08-12T12:13:10Z</time></trkpt>
<trkpt lat="46.44358826" lon="8.66324902"><ele>1287.0379637904</ele><time>2009-08-12T12:13:17Z</time></trkpt>
<trkpt lat="46.44358826" lon="8.66322517"><ele>1286.9239503024</ele><time>2009-08-12T12:13:18Z</time></trkpt>
<trkpt lat="46.44353104" lon="8.66320324"><ele>1286.5689698592</ele><time>2009-08-12T12:13:23Z</time></trkpt>
<trkpt lat="46.44353867" lon="8.66324425"><ele>1286.2039794792</ele><time>2009-08-12T12:13:27Z</time></trkpt>
<trkpt lat="46.44357300" lon="8.66337109"><ele>1285.1910400776</ele><time>2009-08-12T12:13:31Z</time></trkpt>
<trkpt lat="46.44357300" lon="8.66368198"><ele>1284.5959473384</ele><time>2009-08-12T12:13:37Z</time></trkpt>
<trkpt lat="46.44358826" lon="8.66377354"><ele>1285.2309569904</ele><time>2009-08-12T12:13:41Z</time></trkpt>
<trkpt lat="46.44362640" lon="8.66376209"><ele>1285.302001908</ele><time>2009-08-12T12:13:46Z</time></trkpt>
<trkpt lat="46.44363022" lon="8.66365337"><ele>1284.510986472</ele><time>2009-08-12T12:13:50Z</time></trkpt>
<trkpt lat="46.44363403" lon="8.66340542"><ele>1282.9110108048</ele><time>2009-08-12T12:13:57Z</time></trkpt>
<trkpt lat="46.44366074" lon="8.66321182"><ele>1281.9229735632</ele><time>2009-08-12T12:14:03Z</time></trkpt>
<trkpt lat="46.44366455" lon="8.66307163"><ele>1280.9649658272</ele><time>2009-08-12T12:14:09Z</time></trkpt>
<trkpt lat="46.44363785" lon="8.66307068"><ele>1280.734985388</ele><time>2009-08-12T12:14:12Z</time></trkpt>
<trkpt lat="46.44358826" lon="8.66307735"><ele>1279.2290039448</ele><time>2009-08-12T12:15:26Z</time></trkpt>
<trkpt lat="46.44355011" lon="8.66306496"><ele>1279.3959962448</ele><time>2009-08-12T12:15:31Z</time></trkpt>
<trkpt lat="46.44343948" lon="8.66305447"><ele>1282.39099122</ele><time>2009-08-12T12:19:23Z</time></trkpt>
<trkpt lat="46.44333267" lon="8.66306782"><ele>1281.8139648912</ele><time>2009-08-12T12:19:26Z</time></trkpt>
<trkpt lat="46.44308472" lon="8.66309166"><ele>1280.7409667832</ele><time>2009-08-12T12:19:31Z</time></trkpt>
<trkpt lat="46.44297409" lon="8.66306686"><ele>1280.6300049528</ele><time>2009-08-12T12:19:33Z</time></trkpt>
<trkpt lat="46.44273376" lon="8.66283226"><ele>1280.2380370296</ele><time>2009-08-12T12:19:38Z</time></trkpt>
<trkpt lat="46.44258881" lon="8.66263294"><ele>1281.2700194208</ele><time>2009-08-12T12:19:41Z</time></trkpt>
<trkpt lat="46.44228745" lon="8.66244507"><ele>1281.083984436</ele><time>2009-08-12T12:19:46Z</time></trkpt>
<trkpt lat="46.44190979" lon="8.66234398"><ele>1278.5729981448</ele><time>2009-08-12T12:19:51Z</time></trkpt>
<trkpt lat="46.44164658" lon="8.66232109"><ele>1277.4420167136</ele><time>2009-08-12T12:19:54Z</time></trkpt>
<trkpt lat="46.44140244" lon="8.66214466"><ele>1277.8399657272</ele><time>2009-08-12T12:19:57Z</time></trkpt>
<trkpt lat="46.44116974" lon="8.66173077"><ele>1277.3740234536</ele><time>2009-08-12T12:20:01Z</time></trkpt>
<trkpt lat="46.44102859" lon="8.66108990"><ele>1277.1390381984</ele><time>2009-08-12T12:20:06Z</time></trkpt>
<trkpt lat="46.44098282" lon="8.66081715"><ele>1275.8020019088</ele><time>2009-08-12T12:20:08Z</time></trkpt>
<trkpt lat="46.44089890" lon="8.66056728"><ele>1274.9969482992</ele><time>2009-08-12T12:20:10Z</time></trkpt>
<trkpt lat="46.44070816" lon="8.66038990"><ele>1271.735961984</ele><time>2009-08-12T12:20:13Z</time></trkpt>
<trkpt lat="46.43998718" lon="8.66062355"><ele>1261.0799561688</ele><time>2009-08-12T12:20:18Z</time></trkpt>
<trkpt lat="46.43945694" lon="8.66063118"><ele>1254.3020018304</ele><time>2009-08-12T12:20:22Z</time></trkpt>
<trkpt lat="46.43920135" lon="8.66073513"><ele>1252.4659424088</ele><time>2009-08-12T12:20:24Z</time></trkpt>
<trkpt lat="46.43862152" lon="8.66112614"><ele>1245.9229736304</ele><time>2009-08-12T12:20:29Z</time></trkpt>
<trkpt lat="46.43840790" lon="8.66110134"><ele>1242.645019404</ele><time>2009-08-12T12:20:32Z</time></trkpt>
<trkpt lat="46.43830490" lon="8.66110134"><ele>1241.1450196608</ele><time>2009-08-12T12:20:35Z</time></trkpt>
<trkpt lat="46.43839645" lon="8.66126060"><ele>1240.8430177248</ele><time>2009-08-12T12:20:38Z</time></trkpt>
<trkpt lat="46.43856812" lon="8.66132641"><ele>1240.2869872392</ele><time>2009-08-12T12:20:41Z</time></trkpt>
<trkpt lat="46.43864822" lon="8.66132259"><ele>1239.901001016</ele><time>2009-08-12T12:20:42Z</time></trkpt>
<trkpt lat="46.43907547" lon="8.66129589"><ele>1236.4329832632</ele><time>2009-08-12T12:20:47Z</time></trkpt>
<trkpt lat="46.43913651" lon="8.66137409"><ele>1234.7149658712</ele><time>2009-08-12T12:20:50Z</time></trkpt>
<trkpt lat="46.43905640" lon="8.66140556"><ele>1232.9610594984</ele><time>2009-08-12T12:20:52Z</time></trkpt>
<trkpt lat="46.43870926" lon="8.66147900"><ele>1231.1230469184</ele><time>2009-08-12T12:20:57Z</time></trkpt>
<trkpt lat="46.43819427" lon="8.66174316"><ele>1225.7030027928</ele><time>2009-08-12T12:21:03Z</time></trkpt>
<trkpt lat="46.43800735" lon="8.66170311"><ele>1222.7440184136</ele><time>2009-08-12T12:21:06Z</time></trkpt>
<trkpt lat="46.43798828" lon="8.66138268"><ele>1220.7760010136</ele><time>2009-08-12T12:21:09Z</time></trkpt>
<trkpt lat="46.43796539" lon="8.66129208"><ele>1220.329956084</ele><time>2009-08-12T12:21:11Z</time></trkpt>
<trkpt lat="46.43790817" lon="8.66136456"><ele>1220.0040282624</ele><time>2009-08-12T12:21:13Z</time></trkpt>
<trkpt lat="46.43786240" lon="8.66157246"><ele>1223.2220460072</ele><time>2009-08-12T12:21:16Z</time></trkpt>
<trkpt lat="46.43791962" lon="8.66184521"><ele>1225.5660399984</ele><time>2009-08-12T12:21:19Z</time></trkpt>
<trkpt lat="46.43802643" lon="8.66221714"><ele>1223.1540527472</ele><time>2009-08-12T12:21:22Z</time></trkpt>
<trkpt lat="46.43794632" lon="8.66246796"><ele>1221.61596672</ele><time>2009-08-12T12:21:24Z</time></trkpt>
<trkpt lat="46.43787384" lon="8.66257668"><ele>1220.6639403792</ele><time>2009-08-12T12:21:25Z</time></trkpt>
<trkpt lat="46.43756866" lon="8.66304016"><ele>1217.7929688288</ele><time>2009-08-12T12:21:29Z</time></trkpt>
<trkpt lat="46.43717957" lon="8.66338921"><ele>1214.3339844336</ele><time>2009-08-12T12:21:33Z</time></trkpt>
<trkpt lat="46.43696213" lon="8.66350079"><ele>1211.7540283032</ele><time>2009-08-12T12:21:35Z</time></trkpt>
<trkpt lat="46.43638229" lon="8.66356182"><ele>1209.764038176</ele><time>2009-08-12T12:21:40Z</time></trkpt>
<trkpt lat="46.43625641" lon="8.66355324"><ele>1210.913940372</ele><time>2009-08-12T12:21:41Z</time></trkpt>
<trkpt lat="46.43585587" lon="8.66332817"><ele>1214.5450438032</ele><time>2009-08-12T12:21:45Z</time></trkpt>
<trkpt lat="46.43561554" lon="8.66309166"><ele>1212.2810058624</ele><time>2009-08-12T12:21:48Z</time></trkpt>
<trkpt lat="46.43535233" lon="8.66304970"><ele>1211.3220215472</ele><time>2009-08-12T12:21:51Z</time></trkpt>
<trkpt lat="46.43522263" lon="8.66320324"><ele>1211.2080077544</ele><time>2009-08-12T12:21:53Z</time></trkpt>
<trkpt lat="46.43508530" lon="8.66338730"><ele>1211.20104978</ele><time>2009-08-12T12:21:55Z</time></trkpt>
<trkpt lat="46.43480682" lon="8.66351700"><ele>1210.5579833496</ele><time>2009-08-12T12:21:58Z</time></trkpt>
<trkpt lat="46.43470383" lon="8.66348934"><ele>1209.6729736896</ele><time>2009-08-12T12:21:59Z</time></trkpt>
<trkpt lat="46.43438339" lon="8.66337395"><ele>1208.5810548168</ele><time>2009-08-12T12:22:02Z</time></trkpt>
<trkpt lat="46.43386841" lon="8.66335201"><ele>1213.57104504</ele><time>2009-08-12T12:22:06Z</time></trkpt>
<trkpt lat="46.43351364" lon="8.66321278"><ele>1212.7070312232</ele><time>2009-08-12T12:22:09Z</time></trkpt>
<trkpt lat="46.43321609" lon="8.66288185"><ele>1210.8430176792</ele><time>2009-08-12T12:22:12Z</time></trkpt>
<trkpt lat="46.43289948" lon="8.66248417"><ele>1208.0959473288</ele><time>2009-08-12T12:22:16Z</time></trkpt>
<trkpt lat="46.43253708" lon="8.66220474"><ele>1213.1350097424</ele><time>2009-08-12T12:22:20Z</time></trkpt>
<trkpt lat="46.43238831" lon="8.66228676"><ele>1212.5980225512</ele><time>2009-08-12T12:22:24Z</time></trkpt>
<trkpt lat="46.43234634" lon="8.66236401"><ele>1212.217041144</ele><time>2009-08-12T12:22:26Z</time></trkpt>
<trkpt lat="46.43225098" lon="8.66256142"><ele>1206.9739989504</ele><time>2009-08-12T12:22:32Z</time></trkpt>
<trkpt lat="46.43209839" lon="8.66275692"><ele>1202.7629394528</ele><time>2009-08-12T12:22:39Z</time></trkpt>
<trkpt lat="46.43191528" lon="8.66296768"><ele>1201.754028288</ele><time>2009-08-12T12:22:46Z</time></trkpt>
<trkpt lat="46.43168640" lon="8.66325188"><ele>1201.3470459168</ele><time>2009-08-12T12:22:54Z</time></trkpt>
<trkpt lat="46.43145752" lon="8.66346359"><ele>1201.1269531896</ele><time>2009-08-12T12:23:01Z</time></trkpt>
<trkpt lat="46.43124771" lon="8.66362858"><ele>1201.6409910744</ele><time>2009-08-12T12:23:08Z</time></trkpt>
<trkpt lat="46.43106461" lon="8.66371918"><ele>1202.4919432968</ele><time>2009-08-12T12:23:14Z</time></trkpt>
<trkpt lat="46.43090820" lon="8.66369343"><ele>1204.7359619736</ele><time>2009-08-12T12:23:20Z</time></trkpt>
<trkpt lat="46.43076706" lon="8.66356468"><ele>1208.7139893744</ele><time>2009-08-12T12:23:26Z</time></trkpt>
<trkpt lat="46.43068314" lon="8.66349316"><ele>1213.0799561568</ele><time>2009-08-12T12:23:32Z</time></trkpt>
<trkpt lat="46.43067932" lon="8.66349125"><ele>1213.623046968</ele><time>2009-08-12T12:23:34Z</time></trkpt>
<trkpt lat="46.43081284" lon="8.66356087"><ele>1192.2159423096</ele><time>2009-08-12T12:29:34Z</time></trkpt>
<trkpt lat="46.43087769" lon="8.66364956"><ele>1192.848999108</ele><time>2009-08-12T12:29:39Z</time></trkpt>
<trkpt lat="46.43103409" lon="8.66373825"><ele>1192.0040282808</ele><time>2009-08-12T12:29:44Z</time></trkpt>
<trkpt lat="46.43127441" lon="8.66368484"><ele>1191.3780516816</ele><time>2009-08-12T12:29:49Z</time></trkpt>
<trkpt lat="46.43132782" lon="8.66365242"><ele>1191.0579833352</ele><time>2009-08-12T12:29:50Z</time></trkpt>
<trkpt lat="46.43171310" lon="8.66332817"><ele>1189.7840577144</ele><time>2009-08-12T12:29:58Z</time></trkpt>
<trkpt lat="46.43179321" lon="8.66325283"><ele>1189.7409669192</ele><time>2009-08-12T12:30:02Z</time></trkpt>
<trkpt lat="46.43190765" lon="8.66311359"><ele>1190.0930176248</ele><time>2009-08-12T12:30:08Z</time></trkpt>
<trkpt lat="46.43203735" lon="8.66299057"><ele>1191.9439695744</ele><time>2009-08-12T12:30:13Z</time></trkpt>
<trkpt lat="46.43223953" lon="8.66280365"><ele>1191.90600582</ele><time>2009-08-12T12:30:18Z</time></trkpt>
<trkpt lat="46.43254852" lon="8.66246605"><ele>1190.177001912</ele><time>2009-08-12T12:30:25Z</time></trkpt>
<trkpt lat="46.43276978" lon="8.66227913"><ele>1187.885986428</ele><time>2009-08-12T12:30:29Z</time></trkpt>
<trkpt lat="46.43290710" lon="8.66234016"><ele>1186.1340332136</ele><time>2009-08-12T12:30:32Z</time></trkpt>
<trkpt lat="46.43302155" lon="8.66232777"><ele>1184.7800293176</ele><time>2009-08-12T12:30:34Z</time></trkpt>
<trkpt lat="46.43312454" lon="8.66219330"><ele>1183.8489991248</ele><time>2009-08-12T12:30:36Z</time></trkpt>
<trkpt lat="46.43322372" lon="8.66185188"><ele>1183.1750488344</ele><time>2009-08-12T12:30:39Z</time></trkpt>
<trkpt lat="46.43316269" lon="8.66146755"><ele>1182.4570311696</ele><time>2009-08-12T12:30:42Z</time></trkpt>
<trkpt lat="46.43292618" lon="8.66115665"><ele>1182.646972776</ele><time>2009-08-12T12:30:45Z</time></trkpt>
<trkpt lat="46.43284607" lon="8.66106892"><ele>1182.6789551352</ele><time>2009-08-12T12:30:46Z</time></trkpt>
<trkpt lat="46.43259811" lon="8.66083145"><ele>1182.5360106408</ele><time>2009-08-12T12:30:49Z</time></trkpt>
<trkpt lat="46.43224335" lon="8.66063404"><ele>1182.0539551152</ele><time>2009-08-12T12:30:53Z</time></trkpt>
<trkpt lat="46.43206024" lon="8.66062641"><ele>1181.3769531672</ele><time>2009-08-12T12:30:55Z</time></trkpt>
<trkpt lat="46.43187332" lon="8.66063404"><ele>1181.1889647192</ele><time>2009-08-12T12:30:57Z</time></trkpt>
<trkpt lat="46.43154526" lon="8.66049957"><ele>1180.8530272656</ele><time>2009-08-12T12:31:01Z</time></trkpt>
<trkpt lat="46.43114471" lon="8.66008091"><ele>1180.3900147296</ele><time>2009-08-12T12:31:07Z</time></trkpt>
<trkpt lat="46.43073654" lon="8.65966129"><ele>1181.7629393904</ele><time>2009-08-12T12:31:13Z</time></trkpt>
<trkpt lat="46.43019485" lon="8.65908241"><ele>1182.4720459224</ele><time>2009-08-12T12:31:22Z</time></trkpt>
<trkpt lat="46.42996979" lon="8.65885067"><ele>1182.9840087288</ele><time>2009-08-12T12:31:26Z</time></trkpt>
<trkpt lat="46.42978287" lon="8.65877724"><ele>1180.5649412784</ele><time>2009-08-12T12:31:30Z</time></trkpt>
<trkpt lat="46.42951584" lon="8.65878296"><ele>1179.7540281936</ele><time>2009-08-12T12:31:36Z</time></trkpt>
<trkpt lat="46.42927170" lon="8.65868759"><ele>1178.4350586192</ele><time>2009-08-12T12:31:42Z</time></trkpt>
<trkpt lat="46.42894363" lon="8.65841770"><ele>1179.5140381224</ele><time>2009-08-12T12:31:52Z</time></trkpt>
<trkpt lat="46.42888260" lon="8.65828896"><ele>1178.8819579032</ele><time>2009-08-12T12:31:55Z</time></trkpt>
<trkpt lat="46.42880249" lon="8.65793610"><ele>1177.5090332424</ele><time>2009-08-12T12:32:00Z</time></trkpt>
<trkpt lat="46.42868805" lon="8.65760040"><ele>1177.9219970088</ele><time>2009-08-12T12:32:04Z</time></trkpt>
<trkpt lat="46.42842865" lon="8.65724182"><ele>1177.8210448104</ele><time>2009-08-12T12:32:09Z</time></trkpt>
<trkpt lat="46.42836380" lon="8.65717793"><ele>1177.5520018128</ele><time>2009-08-12T12:32:10Z</time></trkpt>
<trkpt lat="46.42812347" lon="8.65712547"><ele>1177.6689453432</ele><time>2009-08-12T12:32:13Z</time></trkpt>
<trkpt lat="46.42785645" lon="8.65718555"><ele>1173.8740234944</ele><time>2009-08-12T12:32:16Z</time></trkpt>
<trkpt lat="46.42773819" lon="8.65701580"><ele>1172.4100340424</ele><time>2009-08-12T12:32:18Z</time></trkpt>
<trkpt lat="46.42764664" lon="8.65678692"><ele>1170.7550047896</ele><time>2009-08-12T12:32:20Z</time></trkpt>
<trkpt lat="46.42745209" lon="8.65644169"><ele>1167.3179931216</ele><time>2009-08-12T12:32:23Z</time></trkpt>
<trkpt lat="46.42740250" lon="8.65594101"><ele>1163.8280029464</ele><time>2009-08-12T12:32:27Z</time></trkpt>
<trkpt lat="46.42728043" lon="8.65579224"><ele>1161.4820557968</ele><time>2009-08-12T12:32:29Z</time></trkpt>
<trkpt lat="46.42701721" lon="8.65579128"><ele>1159.6409912544</ele><time>2009-08-12T12:32:32Z</time></trkpt>
<trkpt lat="46.42653275" lon="8.65606117"><ele>1154.1350096832</ele><time>2009-08-12T12:32:36Z</time></trkpt>
<trkpt lat="46.42615891" lon="8.65614033"><ele>1151.0520018792</ele><time>2009-08-12T12:32:39Z</time></trkpt>
<trkpt lat="46.42545319" lon="8.65602016"><ele>1146.6330565896</ele><time>2009-08-12T12:32:44Z</time></trkpt>
<trkpt lat="46.42475510" lon="8.65578461"><ele>1142.9449464144</ele><time>2009-08-12T12:32:49Z</time></trkpt>
<trkpt lat="46.42461777" lon="8.65571880"><ele>1142.5500487536</ele><time>2009-08-12T12:32:50Z</time></trkpt>
<trkpt lat="46.42408752" lon="8.65569782"><ele>1140.7159424904</ele><time>2009-08-12T12:32:54Z</time></trkpt>
<trkpt lat="46.42382050" lon="8.65572453"><ele>1139.8780518624</ele><time>2009-08-12T12:32:56Z</time></trkpt>
<trkpt lat="46.42318344" lon="8.65558243"><ele>1138.6340332176</ele><time>2009-08-12T12:33:01Z</time></trkpt>
<trkpt lat="46.42259979" lon="8.65538788"><ele>1137.8609619672</ele><time>2009-08-12T12:33:06Z</time></trkpt>
<trkpt lat="46.42222977" lon="8.65503025"><ele>1137.593994048</ele><time>2009-08-12T12:33:10Z</time></trkpt>
<trkpt lat="46.42177582" lon="8.65432453"><ele>1138.8220213608</ele><time>2009-08-12T12:33:17Z</time></trkpt>
<trkpt lat="46.42141342" lon="8.65381622"><ele>1138.4470213488</ele><time>2009-08-12T12:33:23Z</time></trkpt>
<trkpt lat="46.42119598" lon="8.65348625"><ele>1138.3790283936</ele><time>2009-08-12T12:33:27Z</time></trkpt>
<trkpt lat="46.42101669" lon="8.65335560"><ele>1134.6719971488</ele><time>2009-08-12T12:33:31Z</time></trkpt>
<trkpt lat="46.42088318" lon="8.65335941"><ele>1135.7440186776</ele><time>2009-08-12T12:33:33Z</time></trkpt>
<trkpt lat="46.42045593" lon="8.65326023"><ele>1133.5660401024</ele><time>2009-08-12T12:33:38Z</time></trkpt>
<trkpt lat="46.42005157" lon="8.65311623"><ele>1133.2850343144</ele><time>2009-08-12T12:33:42Z</time></trkpt>
<trkpt lat="46.41996002" lon="8.65306759"><ele>1132.6550291736</ele><time>2009-08-12T12:33:43Z</time></trkpt>
<trkpt lat="46.41953659" lon="8.65266323"><ele>1129.2850341864</ele><time>2009-08-12T12:33:48Z</time></trkpt>
<trkpt lat="46.41928482" lon="8.65230370"><ele>1125.6350096856</ele><time>2009-08-12T12:33:52Z</time></trkpt>
<trkpt lat="46.41910934" lon="8.65225792"><ele>1124.4310301784</ele><time>2009-08-12T12:33:55Z</time></trkpt>
<trkpt lat="46.41890717" lon="8.65213490"><ele>1122.1979980176</ele><time>2009-08-12T12:33:57Z</time></trkpt>
<trkpt lat="46.41882324" lon="8.65203667"><ele>1121.3580323112</ele><time>2009-08-12T12:33:58Z</time></trkpt>
<trkpt lat="46.41858292" lon="8.65174866"><ele>1120.0560303432</ele><time>2009-08-12T12:34:01Z</time></trkpt>
<trkpt lat="46.41821289" lon="8.65148067"><ele>1118.5100097624</ele><time>2009-08-12T12:34:05Z</time></trkpt>
<trkpt lat="46.41790009" lon="8.65137959"><ele>1117.3630369992</ele><time>2009-08-12T12:34:08Z</time></trkpt>
<trkpt lat="46.41751862" lon="8.65106583"><ele>1116.1560058344</ele><time>2009-08-12T12:34:12Z</time></trkpt>
<trkpt lat="46.41743088" lon="8.65096188"><ele>1115.764038216</ele><time>2009-08-12T12:34:13Z</time></trkpt>
<trkpt lat="46.41719818" lon="8.65060139"><ele>1114.9449464328</ele><time>2009-08-12T12:34:16Z</time></trkpt>
<trkpt lat="46.41685486" lon="8.65040302"><ele>1107.2769776184</ele><time>2009-08-12T12:34:19Z</time></trkpt>
<trkpt lat="46.41674042" lon="8.65038109"><ele>1104.6180420168</ele><time>2009-08-12T12:34:20Z</time></trkpt>
<trkpt lat="46.41629791" lon="8.65053368"><ele>1094.7020262888</ele><time>2009-08-12T12:34:24Z</time></trkpt>
<trkpt lat="46.41619492" lon="8.65061855"><ele>1093.5670166208</ele><time>2009-08-12T12:34:25Z</time></trkpt>
<trkpt lat="46.41585922" lon="8.65071106"><ele>1091.015991192</ele><time>2009-08-12T12:34:28Z</time></trkpt>
<trkpt lat="46.41576767" lon="8.65065384"><ele>1089.8530274016</ele><time>2009-08-12T12:34:29Z</time></trkpt>
<trkpt lat="46.41524124" lon="8.65039158"><ele>1085.6429444832</ele><time>2009-08-12T12:34:34Z</time></trkpt>
<trkpt lat="46.41484070" lon="8.65037155"><ele>1083.6949463472</ele><time>2009-08-12T12:34:37Z</time></trkpt>
<trkpt lat="46.41444778" lon="8.65044498"><ele>1082.1639405192</ele><time>2009-08-12T12:34:40Z</time></trkpt>
<trkpt lat="46.41413116" lon="8.65059757"><ele>1080.4110107256</ele><time>2009-08-12T12:34:43Z</time></trkpt>
<trkpt lat="46.41404343" lon="8.65064526"><ele>1079.9880370224</ele><time>2009-08-12T12:34:45Z</time></trkpt>
<trkpt lat="46.41405869" lon="8.65054321"><ele>1080.38696292</ele><time>2009-08-12T12:34:48Z</time></trkpt>
<trkpt lat="46.41416168" lon="8.65048695"><ele>1081.0240479552</ele><time>2009-08-12T12:34:50Z</time></trkpt>
<trkpt lat="46.41436386" lon="8.65039158"><ele>1080.1149901848</ele><time>2009-08-12T12:34:53Z</time></trkpt>
<trkpt lat="46.41445160" lon="8.65022373"><ele>1080.1269529752</ele><time>2009-08-12T12:34:56Z</time></trkpt>
<trkpt lat="46.41436005" lon="8.65021610"><ele>1080.3270264384</ele><time>2009-08-12T12:34:58Z</time></trkpt>
<trkpt lat="46.41429901" lon="8.65024090"><ele>1080.1259767008</ele><time>2009-08-12T12:34:59Z</time></trkpt>
<trkpt lat="46.41389084" lon="8.65043640"><ele>1079.626953264</ele><time>2009-08-12T12:35:04Z</time></trkpt>
<trkpt lat="46.41354752" lon="8.65084743"><ele>1081.3990479672</ele><time>2009-08-12T12:35:08Z</time></trkpt>
<trkpt lat="46.41346741" lon="8.65096855"><ele>1080.5610351144</ele><time>2009-08-12T12:35:09Z</time></trkpt>
<trkpt lat="46.41301346" lon="8.65132141"><ele>1075.6409913096</ele><time>2009-08-12T12:35:13Z</time></trkpt>
<trkpt lat="46.41260910" lon="8.65138245"><ele>1070.85095202</ele><time>2009-08-12T12:35:16Z</time></trkpt>
<trkpt lat="46.41247177" lon="8.65133381"><ele>1068.5780029464</ele><time>2009-08-12T12:35:17Z</time></trkpt>
<trkpt lat="46.41172791" lon="8.65124512"><ele>1058.3609618616</ele><time>2009-08-12T12:35:22Z</time></trkpt>
<trkpt lat="46.41133118" lon="8.65110874"><ele>1052.2719725664</ele><time>2009-08-12T12:35:25Z</time></trkpt>
<trkpt lat="46.41123581" lon="8.65105724"><ele>1050.8100584976</ele><time>2009-08-12T12:35:26Z</time></trkpt>
<trkpt lat="46.41116333" lon="8.65090561"><ele>1048.1590577544</ele><time>2009-08-12T12:35:29Z</time></trkpt>
<trkpt lat="46.41131592" lon="8.65094471"><ele>1044.7340088768</ele><time>2009-08-12T12:35:32Z</time></trkpt>
<trkpt lat="46.41139221" lon="8.65098095"><ele>1042.6639404744</ele><time>2009-08-12T12:35:33Z</time></trkpt>
<trkpt lat="46.41176605" lon="8.65098763"><ele>1039.2070311576</ele><time>2009-08-12T12:35:37Z</time></trkpt>
<trkpt lat="46.41188431" lon="8.65083122"><ele>1036.9990233816</ele><time>2009-08-12T12:35:40Z</time></trkpt>
<trkpt lat="46.41180420" lon="8.65082645"><ele>1036.1719970448</ele><time>2009-08-12T12:35:42Z</time></trkpt>
<trkpt lat="46.41142654" lon="8.65078163"><ele>1030.3420411152</ele><time>2009-08-12T12:35:47Z</time></trkpt>
<trkpt lat="46.41099548" lon="8.65055180"><ele>1025.3499755088</ele><time>2009-08-12T12:35:51Z</time></trkpt>
<trkpt lat="46.41069412" lon="8.65062523"><ele>1022.7600097464</ele><time>2009-08-12T12:35:54Z</time></trkpt>
<trkpt lat="46.41060638" lon="8.65071297"><ele>1022.0510254392</ele><time>2009-08-12T12:35:55Z</time></trkpt>
<trkpt lat="46.41032028" lon="8.65089607"><ele>1019.6929932744</ele><time>2009-08-12T12:35:58Z</time></trkpt>
<trkpt lat="46.40983963" lon="8.65131092"><ele>1014.9550171776</ele><time>2009-08-12T12:36:03Z</time></trkpt>
<trkpt lat="46.40975189" lon="8.65139198"><ele>1015.1359863864</ele><time>2009-08-12T12:36:04Z</time></trkpt>
<trkpt lat="46.40969467" lon="8.65141964"><ele>1015.5570069312</ele><time>2009-08-12T12:36:07Z</time></trkpt>
<trkpt lat="46.40980530" lon="8.65128231"><ele>1014.1970213352</ele><time>2009-08-12T12:36:11Z</time></trkpt>
<trkpt lat="46.40995789" lon="8.65098953"><ele>1011.843017712</ele><time>2009-08-12T12:36:15Z</time></trkpt>
<trkpt lat="46.41001892" lon="8.65078259"><ele>1011.1719971592</ele><time>2009-08-12T12:36:17Z</time></trkpt>
<trkpt lat="46.41019440" lon="8.65042782"><ele>1008.5050047792</ele><time>2009-08-12T12:36:21Z</time></trkpt>
<trkpt lat="46.41012192" lon="8.65039825"><ele>1008.2620240104</ele><time>2009-08-12T12:36:23Z</time></trkpt>
<trkpt lat="46.41004562" lon="8.65049267"><ele>1006.5089722968</ele><time>2009-08-12T12:36:25Z</time></trkpt>
<trkpt lat="46.40980148" lon="8.65088463"><ele>1003.2800293008</ele><time>2009-08-12T12:36:30Z</time></trkpt>
<trkpt lat="46.40945816" lon="8.65114594"><ele>1000.7219849376</ele><time>2009-08-12T12:36:34Z</time></trkpt>
<trkpt lat="46.40922546" lon="8.65102673"><ele>999.0070188984</ele><time>2009-08-12T12:36:36Z</time></trkpt>
<trkpt lat="46.40912628" lon="8.65093231"><ele>977.6129761392</ele><time>2009-08-12T12:36:39Z</time></trkpt>
<trkpt lat="46.40904617" lon="8.65088177"><ele>975.5050049424</ele><time>2009-08-12T12:36:41Z</time></trkpt>
<trkpt lat="46.40913010" lon="8.65084934"><ele>973.0529785536</ele><time>2009-08-12T12:36:44Z</time></trkpt>
<trkpt lat="46.40933228" lon="8.65091038"><ele>970.8900147312</ele><time>2009-08-12T12:36:47Z</time></trkpt>
<trkpt lat="46.40955734" lon="8.65083694"><ele>969.7780150248</ele><time>2009-08-12T12:36:50Z</time></trkpt>
<trkpt lat="46.40962219" lon="8.65073395"><ele>969.4829710632</ele><time>2009-08-12T12:36:51Z</time></trkpt>
<trkpt lat="46.40985107" lon="8.65003967"><ele>966.5349732</ele><time>2009-08-12T12:36:56Z</time></trkpt>
<trkpt lat="46.40993500" lon="8.64983940"><ele>965.1680299344</ele><time>2009-08-12T12:36:58Z</time></trkpt>
<trkpt lat="46.40988159" lon="8.64972591"><ele>962.4080199096</ele><time>2009-08-12T12:37:01Z</time></trkpt>
<trkpt lat="46.40980530" lon="8.64984894"><ele>960.8829954768</ele><time>2009-08-12T12:37:03Z</time></trkpt>
<trkpt lat="46.40971756" lon="8.65002060"><ele>960.6279906528</ele><time>2009-08-12T12:37:05Z</time></trkpt>
<trkpt lat="46.40940094" lon="8.65043354"><ele>957.2709959952</ele><time>2009-08-12T12:37:10Z</time></trkpt>
<trkpt lat="46.40917969" lon="8.65050030"><ele>956.1749879256</ele><time>2009-08-12T12:37:12Z</time></trkpt>
<trkpt lat="46.40906906" lon="8.65049934"><ele>955.8679808688</ele><time>2009-08-12T12:37:13Z</time></trkpt>
<trkpt lat="46.40901184" lon="8.65041065"><ele>944.323974696</ele><time>2009-08-12T12:37:17Z</time></trkpt>
<trkpt lat="46.40911102" lon="8.65042305"><ele>942.3930054312</ele><time>2009-08-12T12:37:19Z</time></trkpt>
<trkpt lat="46.40928268" lon="8.65037060"><ele>940.189025892</ele><time>2009-08-12T12:37:22Z</time></trkpt>
<trkpt lat="46.40939331" lon="8.65022564"><ele>938.4559937472</ele><time>2009-08-12T12:37:24Z</time></trkpt>
<trkpt lat="46.40964127" lon="8.64982128"><ele>936.9730225704</ele><time>2009-08-12T12:37:29Z</time></trkpt>
<trkpt lat="46.40955353" lon="8.64974880"><ele>935.5139769744</ele><time>2009-08-12T12:37:31Z</time></trkpt>
<trkpt lat="46.40943146" lon="8.64981937"><ele>933.6870118704</ele><time>2009-08-12T12:37:33Z</time></trkpt>
<trkpt lat="46.40898132" lon="8.65009499"><ele>930.1320191328</ele><time>2009-08-12T12:37:38Z</time></trkpt>
<trkpt lat="46.40858459" lon="8.65012646"><ele>920.0889892824</ele><time>2009-08-12T12:37:42Z</time></trkpt>
<trkpt lat="46.40846252" lon="8.65009308"><ele>918.4249879368</ele><time>2009-08-12T12:37:43Z</time></trkpt>
<trkpt lat="46.40803528" lon="8.65004635"><ele>914.6149903752</ele><time>2009-08-12T12:37:46Z</time></trkpt>
<trkpt lat="46.40771484" lon="8.64994335"><ele>910.7260130376</ele><time>2009-08-12T12:37:49Z</time></trkpt>
<trkpt lat="46.40764999" lon="8.64982128"><ele>907.8820190304</ele><time>2009-08-12T12:37:52Z</time></trkpt>
<trkpt lat="46.40777206" lon="8.64988041"><ele>905.9459839896</ele><time>2009-08-12T12:37:55Z</time></trkpt>
<trkpt lat="46.40790939" lon="8.64991665"><ele>904.026000936</ele><time>2009-08-12T12:37:57Z</time></trkpt>
<trkpt lat="46.40808105" lon="8.64991570"><ele>902.4310303896</ele><time>2009-08-12T12:37:59Z</time></trkpt>
<trkpt lat="46.40845490" lon="8.64973545"><ele>897.8259888504</ele><time>2009-08-12T12:38:03Z</time></trkpt>
<trkpt lat="46.40869522" lon="8.64940643"><ele>894.5939941968</ele><time>2009-08-12T12:38:06Z</time></trkpt>
<trkpt lat="46.40892029" lon="8.64908791"><ele>891.9730223496</ele><time>2009-08-12T12:38:09Z</time></trkpt>
<trkpt lat="46.40896606" lon="8.64894295"><ele>890.7369995232</ele><time>2009-08-12T12:38:11Z</time></trkpt>
<trkpt lat="46.40889359" lon="8.64890575"><ele>888.0100097016</ele><time>2009-08-12T12:38:13Z</time></trkpt>
<trkpt lat="46.40884781" lon="8.64894009"><ele>887.1710205744</ele><time>2009-08-12T12:38:14Z</time></trkpt>
<trkpt lat="46.40849686" lon="8.64921284"><ele>883.7969970456</ele><time>2009-08-12T12:38:19Z</time></trkpt>
<trkpt lat="46.40832138" lon="8.64934254"><ele>882.549011124</ele><time>2009-08-12T12:38:21Z</time></trkpt>
<trkpt lat="46.40792084" lon="8.64939022"><ele>887.0250244224</ele><time>2009-08-12T12:38:24Z</time></trkpt>
<trkpt lat="46.40782928" lon="8.64934444"><ele>885.8900147544</ele><time>2009-08-12T12:38:25Z</time></trkpt>
<trkpt lat="46.40780258" lon="8.64913559"><ele>878.8319702472</ele><time>2009-08-12T12:38:29Z</time></trkpt>
<trkpt lat="46.40786362" lon="8.64910507"><ele>877.6400147952</ele><time>2009-08-12T12:38:30Z</time></trkpt>
<trkpt lat="46.40818024" lon="8.64867783"><ele>871.919982852</ele><time>2009-08-12T12:38:35Z</time></trkpt>
<trkpt lat="46.40846252" lon="8.64804840"><ele>866.5650025536</ele><time>2009-08-12T12:38:40Z</time></trkpt>
<trkpt lat="46.40851212" lon="8.64795685"><ele>865.4459839128</ele><time>2009-08-12T12:38:41Z</time></trkpt>
<trkpt lat="46.40841293" lon="8.64782906"><ele>863.0029905768</ele><time>2009-08-12T12:38:44Z</time></trkpt>
<trkpt lat="46.40834808" lon="8.64783001"><ele>862.177002084</ele><time>2009-08-12T12:38:45Z</time></trkpt>
<trkpt lat="46.40791702" lon="8.64788914"><ele>858.0770263368</ele><time>2009-08-12T12:38:50Z</time></trkpt>
<trkpt lat="46.40782166" lon="8.64791107"><ele>856.9439698272</ele><time>2009-08-12T12:38:51Z</time></trkpt>
<trkpt lat="46.40749359" lon="8.64813042"><ele>852.838989264</ele><time>2009-08-12T12:38:55Z</time></trkpt>
<trkpt lat="46.40744400" lon="8.64806557"><ele>851.4409789536</ele><time>2009-08-12T12:38:57Z</time></trkpt>
<trkpt lat="46.40749359" lon="8.64794159"><ele>850.8090209592</ele><time>2009-08-12T12:38:59Z</time></trkpt>
<trkpt lat="46.40755844" lon="8.64778328"><ele>849.6190186656</ele><time>2009-08-12T12:39:01Z</time></trkpt>
<trkpt lat="46.40764236" lon="8.64748001"><ele>848.0609740296</ele><time>2009-08-12T12:39:04Z</time></trkpt>
<trkpt lat="46.40762711" lon="8.64724731"><ele>845.7390137256</ele><time>2009-08-12T12:39:07Z</time></trkpt>
<trkpt lat="46.40737534" lon="8.64717197"><ele>842.9970091512</ele><time>2009-08-12T12:39:10Z</time></trkpt>
<trkpt lat="46.40718460" lon="8.64726353"><ele>841.1030273664</ele><time>2009-08-12T12:39:12Z</time></trkpt>
<trkpt lat="46.40678024" lon="8.64752197"><ele>835.7139893256</ele><time>2009-08-12T12:39:16Z</time></trkpt>
<trkpt lat="46.40642929" lon="8.64787674"><ele>831.6770020224</ele><time>2009-08-12T12:39:20Z</time></trkpt>
<trkpt lat="46.40613556" lon="8.64794731"><ele>828.2410278936</ele><time>2009-08-12T12:39:23Z</time></trkpt>
<trkpt lat="46.40600586" lon="8.64789963"><ele>828.7189942224</ele><time>2009-08-12T12:39:24Z</time></trkpt>
<trkpt lat="46.40559387" lon="8.64792919"><ele>823.9790040072</ele><time>2009-08-12T12:39:28Z</time></trkpt>
<trkpt lat="46.40530396" lon="8.64815235"><ele>821.2470093696</ele><time>2009-08-12T12:39:31Z</time></trkpt>
<trkpt lat="46.40493393" lon="8.64862728"><ele>818.5759887528</ele><time>2009-08-12T12:39:35Z</time></trkpt>
<trkpt lat="46.40467453" lon="8.64898300"><ele>814.0969847568</ele><time>2009-08-12T12:39:38Z</time></trkpt>
<trkpt lat="46.40444565" lon="8.64900303"><ele>812.447998164</ele><time>2009-08-12T12:39:40Z</time></trkpt>
<trkpt lat="46.40362930" lon="8.64894485"><ele>806.2080079008</ele><time>2009-08-12T12:39:47Z</time></trkpt>
<trkpt lat="46.40350723" lon="8.64895916"><ele>805.0490110824</ele><time>2009-08-12T12:39:48Z</time></trkpt>
<trkpt lat="46.40300369" lon="8.64922047"><ele>801.531982404</ele><time>2009-08-12T12:39:52Z</time></trkpt>
<trkpt lat="46.40287781" lon="8.64935780"><ele>801.0440064432</ele><time>2009-08-12T12:39:53Z</time></trkpt>
<trkpt lat="46.40266800" lon="8.64960384"><ele>798.2499999408</ele><time>2009-08-12T12:39:55Z</time></trkpt>
<trkpt lat="46.40217972" lon="8.65032768"><ele>790.6339720944</ele><time>2009-08-12T12:40:00Z</time></trkpt>
<trkpt lat="46.40169907" lon="8.65063953"><ele>785.6989744968</ele><time>2009-08-12T12:40:04Z</time></trkpt>
<trkpt lat="46.40145493" lon="8.65075111"><ele>782.8790282952</ele><time>2009-08-12T12:40:06Z</time></trkpt>
<trkpt lat="46.40091324" lon="8.65126228"><ele>780.3499755936</ele><time>2009-08-12T12:40:11Z</time></trkpt>
<trkpt lat="46.40034103" lon="8.65196037"><ele>777.226989612</ele><time>2009-08-12T12:40:17Z</time></trkpt>
<trkpt lat="46.39995193" lon="8.65254116"><ele>774.7670286696</ele><time>2009-08-12T12:40:22Z</time></trkpt>
<trkpt lat="46.39960480" lon="8.65291119"><ele>772.48297116</ele><time>2009-08-12T12:40:26Z</time></trkpt>
<trkpt lat="46.39951706" lon="8.65299129"><ele>771.6939698424</ele><time>2009-08-12T12:40:27Z</time></trkpt>
<trkpt lat="46.39894104" lon="8.65330029"><ele>767.9240111136</ele><time>2009-08-12T12:40:33Z</time></trkpt>
<trkpt lat="46.39805984" lon="8.65369129"><ele>763.3599852912</ele><time>2009-08-12T12:40:42Z</time></trkpt>
<trkpt lat="46.39735794" lon="8.65391254"><ele>761.2160034984</ele><time>2009-08-12T12:40:49Z</time></trkpt>
<trkpt lat="46.39675140" lon="8.65413189"><ele>759.0859986144</ele><time>2009-08-12T12:40:55Z</time></trkpt>
<trkpt lat="46.39635468" lon="8.65417767"><ele>757.9730223288</ele><time>2009-08-12T12:40:59Z</time></trkpt>
<trkpt lat="46.39625931" lon="8.65417862"><ele>758.010986388</ele><time>2009-08-12T12:41:00Z</time></trkpt>
<trkpt lat="46.39592743" lon="8.65431881"><ele>758.4390258672</ele><time>2009-08-12T12:41:04Z</time></trkpt>
<trkpt lat="46.39585495" lon="8.65438557"><ele>758.6950072704</ele><time>2009-08-12T12:41:05Z</time></trkpt>
<trkpt lat="46.39529800" lon="8.65501213"><ele>762.0560301648</ele><time>2009-08-12T12:41:13Z</time></trkpt>
<trkpt lat="46.39521790" lon="8.65509224"><ele>763.2150269832</ele><time>2009-08-12T12:41:14Z</time></trkpt>
<trkpt lat="46.39490509" lon="8.65528679"><ele>764.2399901352</ele><time>2009-08-12T12:41:18Z</time></trkpt>
<trkpt lat="46.39467239" lon="8.65517616"><ele>762.4450073904</ele><time>2009-08-12T12:41:21Z</time></trkpt>
<trkpt lat="46.39448929" lon="8.65522194"><ele>761.4140015784</ele><time>2009-08-12T12:41:23Z</time></trkpt>
<trkpt lat="46.39430618" lon="8.65555191"><ele>760.1480102064</ele><time>2009-08-12T12:41:26Z</time></trkpt>
<trkpt lat="46.39425659" lon="8.65568542"><ele>759.2910156288</ele><time>2009-08-12T12:41:27Z</time></trkpt>
<trkpt lat="46.39380646" lon="8.65662766"><ele>755.2180177296</ele><time>2009-08-12T12:41:34Z</time></trkpt>
<trkpt lat="46.39344788" lon="8.65729141"><ele>752.14202886</ele><time>2009-08-12T12:41:39Z</time></trkpt>
<trkpt lat="46.39309311" lon="8.65774536"><ele>749.54302974</ele><time>2009-08-12T12:41:43Z</time></trkpt>
<trkpt lat="46.39262772" lon="8.65822792"><ele>746.271972528</ele><time>2009-08-12T12:41:48Z</time></trkpt>
<trkpt lat="46.39203644" lon="8.65870667"><ele>743.7169801272</ele><time>2009-08-12T12:41:54Z</time></trkpt>
<trkpt lat="46.39136124" lon="8.65923691"><ele>742.3400269248</ele><time>2009-08-12T12:42:01Z</time></trkpt>
<trkpt lat="46.39094925" lon="8.65975285"><ele>741.8469848832</ele><time>2009-08-12T12:42:06Z</time></trkpt>
<trkpt lat="46.39084244" lon="8.65997410"><ele>738.3599854056</ele><time>2009-08-12T12:42:08Z</time></trkpt>
<trkpt lat="46.39027023" lon="8.66051674"><ele>739.2620239368</ele><time>2009-08-12T12:42:14Z</time></trkpt>
<trkpt lat="46.38957977" lon="8.66104794"><ele>739.523010156</ele><time>2009-08-12T12:42:21Z</time></trkpt>
<trkpt lat="46.38928986" lon="8.66137409"><ele>735.6909789072</ele><time>2009-08-12T12:42:25Z</time></trkpt>
<trkpt lat="46.38883591" lon="8.66154957"><ele>729.2769774096</ele><time>2009-08-12T12:42:30Z</time></trkpt>
<trkpt lat="46.38815689" lon="8.66176128"><ele>724.2479858928</ele><time>2009-08-12T12:42:37Z</time></trkpt>
<trkpt lat="46.38761902" lon="8.66202545"><ele>721.119018516</ele><time>2009-08-12T12:42:43Z</time></trkpt>
<trkpt lat="46.38710403" lon="8.66229916"><ele>720.9609986136</ele><time>2009-08-12T12:42:49Z</time></trkpt>
<trkpt lat="46.38702011" lon="8.66234970"><ele>721.1459960592</ele><time>2009-08-12T12:42:50Z</time></trkpt>
<trkpt lat="46.38645554" lon="8.66279602"><ele>721.4270018472</ele><time>2009-08-12T12:42:57Z</time></trkpt>
<trkpt lat="46.38624191" lon="8.66298103"><ele>722.9169922632</ele><time>2009-08-12T12:43:00Z</time></trkpt>
<trkpt lat="46.38579559" lon="8.66311932"><ele>715.2420045144</ele><time>2009-08-12T12:43:05Z</time></trkpt>
<trkpt lat="46.38528824" lon="8.66308689"><ele>708.98498538</ele><time>2009-08-12T12:43:10Z</time></trkpt>
<trkpt lat="46.38442612" lon="8.66295719"><ele>704.9210205336</ele><time>2009-08-12T12:43:19Z</time></trkpt>
<trkpt lat="46.38397980" lon="8.66289520"><ele>707.8140257712</ele><time>2009-08-12T12:43:24Z</time></trkpt>
<trkpt lat="46.38356400" lon="8.66277885"><ele>711.4819947624</ele><time>2009-08-12T12:43:29Z</time></trkpt>
<trkpt lat="46.38312531" lon="8.66262054"><ele>715.95300294</ele><time>2009-08-12T12:43:35Z</time></trkpt>
<trkpt lat="46.38262939" lon="8.66242218"><ele>719.4600219864</ele><time>2009-08-12T12:43:43Z</time></trkpt>
<trkpt lat="46.38250351" lon="8.66237545"><ele>719.2069703208</ele><time>2009-08-12T12:43:45Z</time></trkpt>
<trkpt lat="46.38222504" lon="8.66226387"><ele>719.6799927936</ele><time>2009-08-12T12:43:51Z</time></trkpt>
<trkpt lat="46.38211060" lon="8.66222191"><ele>718.979004</ele><time>2009-08-12T12:43:54Z</time></trkpt>
<trkpt lat="46.38180161" lon="8.66209888"><ele>720.9639893112</ele><time>2009-08-12T12:44:01Z</time></trkpt>
<trkpt lat="46.38153076" lon="8.66199970"><ele>724.7219849448</ele><time>2009-08-12T12:44:07Z</time></trkpt>
<trkpt lat="46.38122177" lon="8.66189671"><ele>728.1589966128</ele><time>2009-08-12T12:44:13Z</time></trkpt>
<trkpt lat="46.38092422" lon="8.66178036"><ele>730.4539793736</ele><time>2009-08-12T12:44:18Z</time></trkpt>
<trkpt lat="46.38061523" lon="8.66166782"><ele>732.039978132</ele><time>2009-08-12T12:44:23Z</time></trkpt>
<trkpt lat="46.38035965" lon="8.66159821"><ele>742.3759765608</ele><time>2009-08-12T12:44:29Z</time></trkpt>
<trkpt lat="46.37999344" lon="8.66145611"><ele>746.153015184</ele><time>2009-08-12T12:44:35Z</time></trkpt>
<trkpt lat="46.37965393" lon="8.66132641"><ele>750.1279906224</ele><time>2009-08-12T12:44:41Z</time></trkpt>
<trkpt lat="46.37930298" lon="8.66118908"><ele>753.6719971488</ele><time>2009-08-12T12:44:47Z</time></trkpt>
<trkpt lat="46.37899780" lon="8.66106415"><ele>754.2000122472</ele><time>2009-08-12T12:44:53Z</time></trkpt>
<trkpt lat="46.37868118" lon="8.66094398"><ele>754.937988216</ele><time>2009-08-12T12:44:59Z</time></trkpt>
<trkpt lat="46.37836456" lon="8.66079712"><ele>744.2739868872</ele><time>2009-08-12T12:45:05Z</time></trkpt>
<trkpt lat="46.37797928" lon="8.66063404"><ele>735.9110106744</ele><time>2009-08-12T12:45:13Z</time></trkpt>
<trkpt lat="46.37762451" lon="8.66049004"><ele>735.5100096984</ele><time>2009-08-12T12:45:19Z</time></trkpt>
<trkpt lat="46.37726593" lon="8.66034222"><ele>734.1270141408</ele><time>2009-08-12T12:45:26Z</time></trkpt>
<trkpt lat="46.37722015" lon="8.66032505"><ele>727.461975096</ele><time>2009-08-12T12:45:31Z</time></trkpt>
<trkpt lat="46.37715912" lon="8.66029263"><ele>724.478027292</ele><time>2009-08-12T12:45:34Z</time></trkpt>
<trkpt lat="46.37704468" lon="8.66023636"><ele>721.6040037792</ele><time>2009-08-12T12:45:40Z</time></trkpt>
<trkpt lat="46.37688065" lon="8.66013241"><ele>723.8350218216</ele><time>2009-08-12T12:45:45Z</time></trkpt>
<trkpt lat="46.37676239" lon="8.66003704"><ele>720.8259886728</ele><time>2009-08-12T12:45:50Z</time></trkpt>
<trkpt lat="46.37660980" lon="8.66001892"><ele>723.681030156</ele><time>2009-08-12T12:45:55Z</time></trkpt>
<trkpt lat="46.37622452" lon="8.65981579"><ele>729.8150024448</ele><time>2009-08-12T12:46:02Z</time></trkpt>
<trkpt lat="46.37596130" lon="8.65973663"><ele>733.523986848</ele><time>2009-08-12T12:46:06Z</time></trkpt>
<trkpt lat="46.37577057" lon="8.65972424"><ele>735.200988828</ele><time>2009-08-12T12:46:09Z</time></trkpt>
<trkpt lat="46.37521362" lon="8.65969086"><ele>735.4589843496</ele><time>2009-08-12T12:46:16Z</time></trkpt>
<trkpt lat="46.37475204" lon="8.65963078"><ele>738.1190184504</ele><time>2009-08-12T12:46:21Z</time></trkpt>
<trkpt lat="46.37415314" lon="8.65948105"><ele>738.3809815536</ele><time>2009-08-12T12:46:27Z</time></trkpt>
<trkpt lat="46.37375259" lon="8.65939045"><ele>739.070007252</ele><time>2009-08-12T12:46:31Z</time></trkpt>
<trkpt lat="46.37320328" lon="8.65918541"><ele>739.950012096</ele><time>2009-08-12T12:46:36Z</time></trkpt>
<trkpt lat="46.37263489" lon="8.65890789"><ele>741.002014056</ele><time>2009-08-12T12:46:41Z</time></trkpt>
<trkpt lat="46.37210846" lon="8.65853310"><ele>741.7020262704</ele><time>2009-08-12T12:46:46Z</time></trkpt>
<trkpt lat="46.37168121" lon="8.65830612"><ele>741.7169800632</ele><time>2009-08-12T12:46:50Z</time></trkpt>
<trkpt lat="46.37104416" lon="8.65802860"><ele>741.2429810112</ele><time>2009-08-12T12:46:56Z</time></trkpt>
<trkpt lat="46.37050629" lon="8.65776253"><ele>740.9000243184</ele><time>2009-08-12T12:47:01Z</time></trkpt>
<trkpt lat="46.36998749" lon="8.65745354"><ele>742.9940186064</ele><time>2009-08-12T12:47:06Z</time></trkpt>
<trkpt lat="46.36919403" lon="8.65695095"><ele>741.8690185704</ele><time>2009-08-12T12:47:13Z</time></trkpt>
<trkpt lat="46.36864090" lon="8.65648270"><ele>735.6530151528</ele><time>2009-08-12T12:47:18Z</time></trkpt>
<trkpt lat="46.36814117" lon="8.65617561"><ele>735.0369872256</ele><time>2009-08-12T12:47:22Z</time></trkpt>
<trkpt lat="46.36728668" lon="8.65566826"><ele>734.8709718096</ele><time>2009-08-12T12:47:29Z</time></trkpt>
<trkpt lat="46.36677170" lon="8.65534019"><ele>733.5689698416</ele><time>2009-08-12T12:47:34Z</time></trkpt>
<trkpt lat="46.36624527" lon="8.65495491"><ele>727.3969725336</ele><time>2009-08-12T12:47:39Z</time></trkpt>
<trkpt lat="46.36548233" lon="8.65434837"><ele>705.922973724</ele><time>2009-08-12T12:47:47Z</time></trkpt>
<trkpt lat="46.36485672" lon="8.65371323"><ele>694.9379884296</ele><time>2009-08-12T12:47:55Z</time></trkpt>
<trkpt lat="46.36449432" lon="8.65316582"><ele>689.0620116624</ele><time>2009-08-12T12:48:01Z</time></trkpt>
<trkpt lat="46.36396027" lon="8.65225887"><ele>681.6350098032</ele><time>2009-08-12T12:48:11Z</time></trkpt>
<trkpt lat="46.36354446" lon="8.65134335"><ele>657.995971788</ele><time>2009-08-12T12:48:22Z</time></trkpt>
<trkpt lat="46.36315536" lon="8.65077972"><ele>651.5029908192</ele><time>2009-08-12T12:48:29Z</time></trkpt>
<trkpt lat="46.36261749" lon="8.65017414"><ele>650.6710206264</ele><time>2009-08-12T12:48:37Z</time></trkpt>
<trkpt lat="46.36190414" lon="8.64956379"><ele>649.8629760144</ele><time>2009-08-12T12:48:47Z</time></trkpt>
<trkpt lat="46.36140442" lon="8.64925671"><ele>648.3209839752</ele><time>2009-08-12T12:48:54Z</time></trkpt>
<trkpt lat="46.36092377" lon="8.64898491"><ele>648.3920288928</ele><time>2009-08-12T12:49:01Z</time></trkpt>
<trkpt lat="46.36052322" lon="8.64867401"><ele>648.4409788584</ele><time>2009-08-12T12:49:07Z</time></trkpt>
<trkpt lat="46.36016846" lon="8.64825726"><ele>646.9799804088</ele><time>2009-08-12T12:49:13Z</time></trkpt>
<trkpt lat="46.35978317" lon="8.64771461"><ele>646.5499877712</ele><time>2009-08-12T12:49:19Z</time></trkpt>
<trkpt lat="46.35965347" lon="8.64750862"><ele>645.929015988</ele><time>2009-08-12T12:49:21Z</time></trkpt>
<trkpt lat="46.35944366" lon="8.64684772"><ele>643.101989892</ele><time>2009-08-12T12:49:26Z</time></trkpt>
<trkpt lat="46.35934830" lon="8.64608955"><ele>640.601989812</ele><time>2009-08-12T12:49:31Z</time></trkpt>
<trkpt lat="46.35932541" lon="8.64531136"><ele>640.7139891816</ele><time>2009-08-12T12:49:36Z</time></trkpt>
<trkpt lat="46.35933304" lon="8.64499855"><ele>640.3419798672</ele><time>2009-08-12T12:49:38Z</time></trkpt>
<trkpt lat="46.35867310" lon="8.64335442"><ele>637.268982</ele><time>2009-08-12T12:49:51Z</time></trkpt>
<trkpt lat="46.35858917" lon="8.64294338"><ele>635.280029412</ele><time>2009-08-12T12:49:54Z</time></trkpt>
<trkpt lat="46.35864639" lon="8.64280987"><ele>630.5339965368</ele><time>2009-08-12T12:49:55Z</time></trkpt>
<trkpt lat="46.35871124" lon="8.64204407"><ele>623.8809815472</ele><time>2009-08-12T12:50:00Z</time></trkpt>
<trkpt lat="46.35859299" lon="8.64156818"><ele>622.6580200104</ele><time>2009-08-12T12:50:03Z</time></trkpt>
<trkpt lat="46.35821533" lon="8.64067459"><ele>622.2680052456</ele><time>2009-08-12T12:50:09Z</time></trkpt>
<trkpt lat="46.35773468" lon="8.63991737"><ele>620.9400023136</ele><time>2009-08-12T12:50:15Z</time></trkpt>
<trkpt lat="46.35731888" lon="8.63936710"><ele>625.6929931632</ele><time>2009-08-12T12:50:20Z</time></trkpt>
<trkpt lat="46.35721588" lon="8.63924694"><ele>629.060974032</ele><time>2009-08-12T12:50:21Z</time></trkpt>
<trkpt lat="46.35684967" lon="8.63847923"><ele>637.8439942104</ele><time>2009-08-12T12:50:27Z</time></trkpt>
<trkpt lat="46.35679626" lon="8.63836193"><ele>638.2620240576</ele><time>2009-08-12T12:50:28Z</time></trkpt>
<trkpt lat="46.35647964" lon="8.63789177"><ele>638.0800170048</ele><time>2009-08-12T12:50:33Z</time></trkpt>
<trkpt lat="46.35615921" lon="8.63739109"><ele>629.8980103056</ele><time>2009-08-12T12:50:39Z</time></trkpt>
<trkpt lat="46.35590744" lon="8.63690281"><ele>615.3619995504</ele><time>2009-08-12T12:50:45Z</time></trkpt>
<trkpt lat="46.35561752" lon="8.63648129"><ele>608.8729858584</ele><time>2009-08-12T12:50:50Z</time></trkpt>
<trkpt lat="46.35556412" lon="8.63639259"><ele>607.9030150272</ele><time>2009-08-12T12:50:51Z</time></trkpt>
<trkpt lat="46.35535049" lon="8.63585281"><ele>604.5620117016</ele><time>2009-08-12T12:50:56Z</time></trkpt>
<trkpt lat="46.35506821" lon="8.63509083"><ele>601.9530029496</ele><time>2009-08-12T12:51:02Z</time></trkpt>
<trkpt lat="46.35485077" lon="8.63428974"><ele>600.3959961576</ele><time>2009-08-12T12:51:08Z</time></trkpt>
<trkpt lat="46.35437012" lon="8.63323689"><ele>598.0479736248</ele><time>2009-08-12T12:51:17Z</time></trkpt>
<trkpt lat="46.35396576" lon="8.63239384"><ele>596.6140136784</ele><time>2009-08-12T12:51:24Z</time></trkpt>
<trkpt lat="46.35385513" lon="8.63214970"><ele>596.846008236</ele><time>2009-08-12T12:51:26Z</time></trkpt>
<trkpt lat="46.35373688" lon="8.63159561"><ele>594.8750001384</ele><time>2009-08-12T12:51:30Z</time></trkpt>
<trkpt lat="46.35373306" lon="8.63093376"><ele>594.893005284</ele><time>2009-08-12T12:51:35Z</time></trkpt>
<trkpt lat="46.35374451" lon="8.63057899"><ele>595.5380248728</ele><time>2009-08-12T12:51:38Z</time></trkpt>
<trkpt lat="46.35365677" lon="8.63005447"><ele>595.52301012</ele><time>2009-08-12T12:51:43Z</time></trkpt>
<trkpt lat="46.35353470" lon="8.62962246"><ele>596.1339722712</ele><time>2009-08-12T12:51:48Z</time></trkpt>
<trkpt lat="46.35337830" lon="8.62932968"><ele>598.5830079624</ele><time>2009-08-12T12:51:53Z</time></trkpt>
<trkpt lat="46.35335159" lon="8.62927246"><ele>598.9119874416</ele><time>2009-08-12T12:51:54Z</time></trkpt>
<trkpt lat="46.35326004" lon="8.62887764"><ele>597.6229858032</ele><time>2009-08-12T12:52:00Z</time></trkpt>
<trkpt lat="46.35325241" lon="8.62874699"><ele>596.122009176</ele><time>2009-08-12T12:52:02Z</time></trkpt>
<trkpt lat="46.35314941" lon="8.62814617"><ele>595.0410155544</ele><time>2009-08-12T12:52:12Z</time></trkpt>
<trkpt lat="46.35313416" lon="8.62784290"><ele>596.6870117544</ele><time>2009-08-12T12:52:18Z</time></trkpt>
<trkpt lat="46.35319138" lon="8.62748909"><ele>600.0349730544</ele><time>2009-08-12T12:52:26Z</time></trkpt>
<trkpt lat="46.35322952" lon="8.62727165"><ele>599.9899903656</ele><time>2009-08-12T12:52:31Z</time></trkpt>
<trkpt lat="46.35317230" lon="8.62699890"><ele>599.8790282304</ele><time>2009-08-12T12:52:37Z</time></trkpt>
<trkpt lat="46.35309982" lon="8.62661076"><ele>599.0720214624</ele><time>2009-08-12T12:52:44Z</time></trkpt>
<trkpt lat="46.35298157" lon="8.62619686"><ele>598.2810057216</ele><time>2009-08-12T12:52:50Z</time></trkpt>
<trkpt lat="46.35294724" lon="8.62602043"><ele>597.8590089024</ele><time>2009-08-12T12:52:52Z</time></trkpt>
<trkpt lat="46.35294724" lon="8.62551212"><ele>596.9340210648</ele><time>2009-08-12T12:52:57Z</time></trkpt>
<trkpt lat="46.35296631" lon="8.62540817"><ele>596.9279784048</ele><time>2009-08-12T12:52:58Z</time></trkpt>
<trkpt lat="46.35311890" lon="8.62486172"><ele>596.0469969816</ele><time>2009-08-12T12:53:03Z</time></trkpt>
<trkpt lat="46.35311127" lon="8.62431145"><ele>594.2760010824</ele><time>2009-08-12T12:53:07Z</time></trkpt>
<trkpt lat="46.35306549" lon="8.62416744"><ele>593.7379760472</ele><time>2009-08-12T12:53:08Z</time></trkpt>
<trkpt lat="46.35292435" lon="8.62371254"><ele>592.5609740832</ele><time>2009-08-12T12:53:11Z</time></trkpt>
<trkpt lat="46.35294342" lon="8.62324524"><ele>591.1820067624</ele><time>2009-08-12T12:53:14Z</time></trkpt>
<trkpt lat="46.35308456" lon="8.62267399"><ele>589.2020262672</ele><time>2009-08-12T12:53:18Z</time></trkpt>
<trkpt lat="46.35300827" lon="8.62239838"><ele>588.502990632</ele><time>2009-08-12T12:53:20Z</time></trkpt>
<trkpt lat="46.35268784" lon="8.62149906"><ele>586.2390136512</ele><time>2009-08-12T12:53:26Z</time></trkpt>
<trkpt lat="46.35259628" lon="8.62096882"><ele>583.8850097232</ele><time>2009-08-12T12:53:29Z</time></trkpt>
<trkpt lat="46.35242081" lon="8.62046528"><ele>582.2059936248</ele><time>2009-08-12T12:53:32Z</time></trkpt>
<trkpt lat="46.35206604" lon="8.61988068"><ele>578.0399780808</ele><time>2009-08-12T12:53:36Z</time></trkpt>
<trkpt lat="46.35188675" lon="8.61938286"><ele>575.588012652</ele><time>2009-08-12T12:53:39Z</time></trkpt>
<trkpt lat="46.35172272" lon="8.61889553"><ele>573.390014508</ele><time>2009-08-12T12:53:42Z</time></trkpt>
<trkpt lat="46.35146713" lon="8.61850166"><ele>571.3829955096</ele><time>2009-08-12T12:53:45Z</time></trkpt>
<trkpt lat="46.35115051" lon="8.61824512"><ele>569.0130005544</ele><time>2009-08-12T12:53:48Z</time></trkpt>
<trkpt lat="46.35106659" lon="8.61812210"><ele>568.0399780656</ele><time>2009-08-12T12:53:49Z</time></trkpt>
<trkpt lat="46.35091400" lon="8.61785603"><ele>566.1699828216</ele><time>2009-08-12T12:53:51Z</time></trkpt>
<trkpt lat="46.35040665" lon="8.61730862"><ele>561.4879759296</ele><time>2009-08-12T12:53:56Z</time></trkpt>
<trkpt lat="46.34981155" lon="8.61681175"><ele>556.7239991736</ele><time>2009-08-12T12:54:01Z</time></trkpt>
<trkpt lat="46.34951401" lon="8.61655903"><ele>553.1550292224</ele><time>2009-08-12T12:54:04Z</time></trkpt>
<trkpt lat="46.34937668" lon="8.61663246"><ele>552.4680176424</ele><time>2009-08-12T12:54:07Z</time></trkpt>
<trkpt lat="46.34949112" lon="8.61677265"><ele>549.768005364</ele><time>2009-08-12T12:54:10Z</time></trkpt>
<trkpt lat="46.34955978" lon="8.61681747"><ele>549.3239745528</ele><time>2009-08-12T12:54:11Z</time></trkpt>
<trkpt lat="46.34969330" lon="8.61692238"><ele>548.8159790232</ele><time>2009-08-12T12:54:13Z</time></trkpt>
<trkpt lat="46.34975433" lon="8.61706448"><ele>548.2509764448</ele><time>2009-08-12T12:54:16Z</time></trkpt>
<trkpt lat="46.34968185" lon="8.61701965"><ele>546.5709837672</ele><time>2009-08-12T12:54:18Z</time></trkpt>
<trkpt lat="46.34962845" lon="8.61698055"><ele>545.8690186992</ele><time>2009-08-12T12:54:19Z</time></trkpt>
<trkpt lat="46.34925461" lon="8.61672688"><ele>542.8699951824</ele><time>2009-08-12T12:54:24Z</time></trkpt>
<trkpt lat="46.34886551" lon="8.61640739"><ele>546.299987916</ele><time>2009-08-12T12:54:28Z</time></trkpt>
<trkpt lat="46.34849167" lon="8.61600971"><ele>543.8449708296</ele><time>2009-08-12T12:54:32Z</time></trkpt>
<trkpt lat="46.34839630" lon="8.61563969"><ele>539.1510008424</ele><time>2009-08-12T12:54:35Z</time></trkpt>
<trkpt lat="46.34842682" lon="8.61550713"><ele>537.8599853904</ele><time>2009-08-12T12:54:36Z</time></trkpt>
<trkpt lat="46.34849548" lon="8.61523438"><ele>535.530029268</ele><time>2009-08-12T12:54:38Z</time></trkpt>
<trkpt lat="46.34841156" lon="8.61465263"><ele>531.6959839008</ele><time>2009-08-12T12:54:42Z</time></trkpt>
<trkpt lat="46.34831238" lon="8.61451626"><ele>530.9459838768</ele><time>2009-08-12T12:54:43Z</time></trkpt>
<trkpt lat="46.34794235" lon="8.61384487"><ele>527.4489744624</ele><time>2009-08-12T12:54:48Z</time></trkpt>
<trkpt lat="46.34772110" lon="8.61323738"><ele>523.880004816</ele><time>2009-08-12T12:54:52Z</time></trkpt>
<trkpt lat="46.34740448" lon="8.61275482"><ele>518.9039918064</ele><time>2009-08-12T12:54:56Z</time></trkpt>
<trkpt lat="46.34721756" lon="8.61255741"><ele>516.0100096848</ele><time>2009-08-12T12:54:58Z</time></trkpt>
<trkpt lat="46.34644318" lon="8.61203480"><ele>508.6350097536</ele><time>2009-08-12T12:55:05Z</time></trkpt>
<trkpt lat="46.34587097" lon="8.61167336"><ele>498.492004284</ele><time>2009-08-12T12:55:11Z</time></trkpt>
<trkpt lat="46.34540939" lon="8.61138344"><ele>492.6679992696</ele><time>2009-08-12T12:55:16Z</time></trkpt>
<trkpt lat="46.34473801" lon="8.61095619"><ele>484.8649903392</ele><time>2009-08-12T12:55:23Z</time></trkpt>
<trkpt lat="46.34411240" lon="8.61055660"><ele>477.6849974856</ele><time>2009-08-12T12:55:30Z</time></trkpt>
<trkpt lat="46.34352493" lon="8.61017513"><ele>474.0150146808</ele><time>2009-08-12T12:55:37Z</time></trkpt>
<trkpt lat="46.34292221" lon="8.60980225"><ele>470.812988268</ele><time>2009-08-12T12:55:44Z</time></trkpt>
<trkpt lat="46.34246445" lon="8.60961914"><ele>468.4840087248</ele><time>2009-08-12T12:55:49Z</time></trkpt>
<trkpt lat="46.34188843" lon="8.60952854"><ele>463.886993484</ele><time>2009-08-12T12:55:55Z</time></trkpt>
<trkpt lat="46.34167862" lon="8.60951042"><ele>464.6809996176</ele><time>2009-08-12T12:55:57Z</time></trkpt>
<trkpt lat="46.34118652" lon="8.60926056"><ele>461.1960142584</ele><time>2009-08-12T12:56:02Z</time></trkpt>
<trkpt lat="46.34110641" lon="8.60917568"><ele>460.516998192</ele><time>2009-08-12T12:56:03Z</time></trkpt>
<trkpt lat="46.34081650" lon="8.60883045"><ele>457.3059996864</ele><time>2009-08-12T12:56:07Z</time></trkpt>
<trkpt lat="46.34061813" lon="8.60839653"><ele>456.4739990136</ele><time>2009-08-12T12:56:11Z</time></trkpt>
<trkpt lat="46.34052658" lon="8.60801888"><ele>456.9230041608</ele><time>2009-08-12T12:56:14Z</time></trkpt>
<trkpt lat="46.34046936" lon="8.60769558"><ele>456.1780089528</ele><time>2009-08-12T12:56:17Z</time></trkpt>
<trkpt lat="46.34031296" lon="8.60758877"><ele>455.5549925712</ele><time>2009-08-12T12:56:20Z</time></trkpt>
<trkpt lat="46.33995056" lon="8.60758591"><ele>454.8599854776</ele><time>2009-08-12T12:56:24Z</time></trkpt>
<trkpt lat="46.33943558" lon="8.60749722"><ele>452.7349854096</ele><time>2009-08-12T12:56:30Z</time></trkpt>
<trkpt lat="46.33889008" lon="8.60731983"><ele>452.1719969496</ele><time>2009-08-12T12:56:37Z</time></trkpt>
<trkpt lat="46.33833313" lon="8.60702515"><ele>450.6140135784</ele><time>2009-08-12T12:56:45Z</time></trkpt>
<trkpt lat="46.33789063" lon="8.60679913"><ele>449.8750000704</ele><time>2009-08-12T12:56:52Z</time></trkpt>
<trkpt lat="46.33745193" lon="8.60665035"><ele>450.289001376</ele><time>2009-08-12T12:56:59Z</time></trkpt>
<trkpt lat="46.33689880" lon="8.60656643"><ele>449.7770080896</ele><time>2009-08-12T12:57:08Z</time></trkpt>
<trkpt lat="46.33632278" lon="8.60642338"><ele>448.924987848</ele><time>2009-08-12T12:57:17Z</time></trkpt>
<trkpt lat="46.33575058" lon="8.60635281"><ele>451.8439940496</ele><time>2009-08-12T12:57:25Z</time></trkpt>
<trkpt lat="46.33517456" lon="8.60631561"><ele>451.5660094392</ele><time>2009-08-12T12:57:33Z</time></trkpt>
<trkpt lat="46.33464432" lon="8.60630226"><ele>450.6549988152</ele><time>2009-08-12T12:57:40Z</time></trkpt>
<trkpt lat="46.33415222" lon="8.60628986"><ele>450.3970032936</ele><time>2009-08-12T12:57:46Z</time></trkpt>
<trkpt lat="46.33332062" lon="8.60627460"><ele>444.2820130344</ele><time>2009-08-12T12:57:56Z</time></trkpt>
<trkpt lat="46.33295441" lon="8.60632038"><ele>442.024994028</ele><time>2009-08-12T12:58:01Z</time></trkpt>
<trkpt lat="46.33243942" lon="8.60637379"><ele>439.457000688</ele><time>2009-08-12T12:58:09Z</time></trkpt>
<trkpt lat="46.33184814" lon="8.60645294"><ele>437.6799926088</ele><time>2009-08-12T12:58:18Z</time></trkpt>
<trkpt lat="46.33125687" lon="8.60652542"><ele>436.269989028</ele><time>2009-08-12T12:58:27Z</time></trkpt>
<trkpt lat="46.33051682" lon="8.60660362"><ele>436.1929931952</ele><time>2009-08-12T12:58:38Z</time></trkpt>
<trkpt lat="46.32987213" lon="8.60665417"><ele>437.446990992</ele><time>2009-08-12T12:58:48Z</time></trkpt>
<trkpt lat="46.32950974" lon="8.60660458"><ele>439.60299684</ele><time>2009-08-12T12:58:54Z</time></trkpt>
<trkpt lat="46.32899475" lon="8.60651779"><ele>445.4509887</ele><time>2009-08-12T12:59:03Z</time></trkpt>
<trkpt lat="46.32850647" lon="8.60640430"><ele>447.3619996608</ele><time>2009-08-12T12:59:12Z</time></trkpt>
<trkpt lat="46.32818985" lon="8.60624599"><ele>448.0690003296</ele><time>2009-08-12T12:59:17Z</time></trkpt>
<trkpt lat="46.32767487" lon="8.60594177"><ele>448.0750122048</ele><time>2009-08-12T12:59:24Z</time></trkpt>
<trkpt lat="46.32710648" lon="8.60562420"><ele>448.4450074008</ele><time>2009-08-12T12:59:32Z</time></trkpt>
<trkpt lat="46.32672119" lon="8.60554409"><ele>450.1549987992</ele><time>2009-08-12T12:59:37Z</time></trkpt>
<trkpt lat="46.32620621" lon="8.60548782"><ele>441.4979859888</ele><time>2009-08-12T12:59:44Z</time></trkpt>
<trkpt lat="46.32612610" lon="8.60547638"><ele>441.5419920984</ele><time>2009-08-12T12:59:45Z</time></trkpt>
<trkpt lat="46.32583618" lon="8.60534191"><ele>440.7609862944</ele><time>2009-08-12T12:59:49Z</time></trkpt>
<trkpt lat="46.32519150" lon="8.60479641"><ele>437.4909974064</ele><time>2009-08-12T12:59:59Z</time></trkpt>
<trkpt lat="46.32457733" lon="8.60428143"><ele>433.6929931152</ele><time>2009-08-12T13:00:08Z</time></trkpt>
<trkpt lat="46.32397079" lon="8.60378075"><ele>433.3030091352</ele><time>2009-08-12T13:00:17Z</time></trkpt>
<trkpt lat="46.32327271" lon="8.60320854"><ele>434.5690002024</ele><time>2009-08-12T13:00:28Z</time></trkpt>
<trkpt lat="46.32279205" lon="8.60281658"><ele>435.701995752</ele><time>2009-08-12T13:00:36Z</time></trkpt>
<trkpt lat="46.32273102" lon="8.60277367"><ele>435.842987088</ele><time>2009-08-12T13:00:37Z</time></trkpt>
<trkpt lat="46.32229996" lon="8.60261440"><ele>436.2380066688</ele><time>2009-08-12T13:00:44Z</time></trkpt>
<trkpt lat="46.32169724" lon="8.60244465"><ele>437.2160034936</ele><time>2009-08-12T13:00:54Z</time></trkpt>
<trkpt lat="46.32122803" lon="8.60235310"><ele>436.7940063696</ele><time>2009-08-12T13:01:02Z</time></trkpt>
<trkpt lat="46.32062912" lon="8.60228157"><ele>438.2470093056</ele><time>2009-08-12T13:01:11Z</time></trkpt>
<trkpt lat="46.32010269" lon="8.60223579"><ele>433.5220030584</ele><time>2009-08-12T13:01:19Z</time></trkpt>
<trkpt lat="46.31947327" lon="8.60218143"><ele>427.5230102304</ele><time>2009-08-12T13:01:29Z</time></trkpt>
<trkpt lat="46.31890869" lon="8.60212708"><ele>424.4410094856</ele><time>2009-08-12T13:01:38Z</time></trkpt>
<trkpt lat="46.31828690" lon="8.60206795"><ele>426.9360047496</ele><time>2009-08-12T13:01:47Z</time></trkpt>
<trkpt lat="46.31821823" lon="8.60206413"><ele>426.510986448</ele><time>2009-08-12T13:01:48Z</time></trkpt>
<trkpt lat="46.31776428" lon="8.60218716"><ele>425.7160034304</ele><time>2009-08-12T13:01:55Z</time></trkpt>
<trkpt lat="46.31738663" lon="8.60231304"><ele>425.1659851248</ele><time>2009-08-12T13:02:02Z</time></trkpt>
<trkpt lat="46.31694031" lon="8.60247707"><ele>424.4920043544</ele><time>2009-08-12T13:02:11Z</time></trkpt>
<trkpt lat="46.31644821" lon="8.60268784"><ele>423.7799988696</ele><time>2009-08-12T13:02:20Z</time></trkpt>
<trkpt lat="46.31588364" lon="8.60295010"><ele>423.4719847536</ele><time>2009-08-12T13:02:30Z</time></trkpt>
<trkpt lat="46.31541824" lon="8.60325813"><ele>424.4570008176</ele><time>2009-08-12T13:02:39Z</time></trkpt>
<trkpt lat="46.31489944" lon="8.60365009"><ele>425.5769957328</ele><time>2009-08-12T13:02:49Z</time></trkpt>
<trkpt lat="46.31438446" lon="8.60408115"><ele>426.3659973552</ele><time>2009-08-12T13:02:59Z</time></trkpt>
<trkpt lat="46.31413269" lon="8.60430622"><ele>427.953002868</ele><time>2009-08-12T13:03:04Z</time></trkpt>
<trkpt lat="46.31400681" lon="8.60446358"><ele>431.1889952784</ele><time>2009-08-12T13:03:07Z</time></trkpt>
<trkpt lat="46.31364059" lon="8.60476208"><ele>431.8500061992</ele><time>2009-08-12T13:03:15Z</time></trkpt>
<trkpt lat="46.31319427" lon="8.60511589"><ele>431.6019898296</ele><time>2009-08-12T13:03:24Z</time></trkpt>
<trkpt lat="46.31314468" lon="8.60515404"><ele>431.4989930328</ele><time>2009-08-12T13:03:25Z</time></trkpt>
<trkpt lat="46.31277466" lon="8.60547256"><ele>429.2520141384</ele><time>2009-08-12T13:03:33Z</time></trkpt>
<trkpt lat="46.31272125" lon="8.60552025"><ele>429.1659852528</ele><time>2009-08-12T13:03:34Z</time></trkpt>
<trkpt lat="46.31235504" lon="8.60580826"><ele>427.2850037976</ele><time>2009-08-12T13:03:41Z</time></trkpt>
<trkpt lat="46.31201935" lon="8.60608673"><ele>426.8900146968</ele><time>2009-08-12T13:03:48Z</time></trkpt>
<trkpt lat="46.31152725" lon="8.60649967"><ele>426.4490050632</ele><time>2009-08-12T13:03:58Z</time></trkpt>
<trkpt lat="46.31108856" lon="8.60686874"><ele>425.7080079168</ele><time>2009-08-12T13:04:07Z</time></trkpt>
<trkpt lat="46.31058884" lon="8.60729313"><ele>424.7009886456</ele><time>2009-08-12T13:04:17Z</time></trkpt>
<trkpt lat="46.31017303" lon="8.60761642"><ele>424.2879943992</ele><time>2009-08-12T13:04:25Z</time></trkpt>
<trkpt lat="46.30982971" lon="8.60782909"><ele>423.725006244</ele><time>2009-08-12T13:04:31Z</time></trkpt>
<trkpt lat="46.30959320" lon="8.60810375"><ele>424.5150146208</ele><time>2009-08-12T13:04:36Z</time></trkpt>
<trkpt lat="46.30932236" lon="8.60855389"><ele>428.4190064064</ele><time>2009-08-12T13:04:43Z</time></trkpt>
<trkpt lat="46.30908966" lon="8.60899925"><ele>430.1289978048</ele><time>2009-08-12T13:04:50Z</time></trkpt>
<trkpt lat="46.30902863" lon="8.60932827"><ele>430.290984984</ele><time>2009-08-12T13:04:55Z</time></trkpt>
<trkpt lat="46.30903625" lon="8.60980225"><ele>430.1799926736</ele><time>2009-08-12T13:05:03Z</time></trkpt>
<trkpt lat="46.30904388" lon="8.61019707"><ele>429.8030090232</ele><time>2009-08-12T13:05:09Z</time></trkpt>
<trkpt lat="46.30896378" lon="8.61043072"><ele>429.5289916896</ele><time>2009-08-12T13:05:13Z</time></trkpt>
<trkpt lat="46.30883026" lon="8.61046791"><ele>428.1069945336</ele><time>2009-08-12T13:05:16Z</time></trkpt>
<trkpt lat="46.30840302" lon="8.61045170"><ele>423.756012024</ele><time>2009-08-12T13:05:24Z</time></trkpt>
<trkpt lat="46.30821609" lon="8.61050797"><ele>422.3949888888</ele><time>2009-08-12T13:05:27Z</time></trkpt>
<trkpt lat="46.30785751" lon="8.61077690"><ele>421.661987256</ele><time>2009-08-12T13:05:33Z</time></trkpt>
<trkpt lat="46.30755234" lon="8.61112499"><ele>420.4190064552</ele><time>2009-08-12T13:05:39Z</time></trkpt>
<trkpt lat="46.30723572" lon="8.61147308"><ele>421.3349914152</ele><time>2009-08-12T13:05:46Z</time></trkpt>
<trkpt lat="46.30683899" lon="8.61192989"><ele>424.3269959976</ele><time>2009-08-12T13:05:56Z</time></trkpt>
<trkpt lat="46.30658722" lon="8.61237907"><ele>424.5180053184</ele><time>2009-08-12T13:06:04Z</time></trkpt>
<trkpt lat="46.30643082" lon="8.61286545"><ele>422.9349975624</ele><time>2009-08-12T13:06:12Z</time></trkpt>
<trkpt lat="46.30632019" lon="8.61345291"><ele>422.5780030008</ele><time>2009-08-12T13:06:21Z</time></trkpt>
<trkpt lat="46.30621719" lon="8.61411381"><ele>423.355011048</ele><time>2009-08-12T13:06:30Z</time></trkpt>
<trkpt lat="46.30612946" lon="8.61445332"><ele>423.9010011168</ele><time>2009-08-12T13:06:35Z</time></trkpt>
<trkpt lat="46.30591583" lon="8.61491013"><ele>426.9660034704</ele><time>2009-08-12T13:06:43Z</time></trkpt>
<trkpt lat="46.30564499" lon="8.61533833"><ele>427.0769957808</ele><time>2009-08-12T13:06:51Z</time></trkpt>
<trkpt lat="46.30530930" lon="8.61585331"><ele>427.6050108792</ele><time>2009-08-12T13:07:00Z</time></trkpt>
<trkpt lat="46.30519485" lon="8.61603642"><ele>427.093994172</ele><time>2009-08-12T13:07:03Z</time></trkpt>
<trkpt lat="46.30498123" lon="8.61635399"><ele>426.4289854944</ele><time>2009-08-12T13:07:08Z</time></trkpt>
<trkpt lat="46.30461121" lon="8.61694431"><ele>424.24999986</ele><time>2009-08-12T13:07:16Z</time></trkpt>
<trkpt lat="46.30421829" lon="8.61737633"><ele>424.0230101184</ele><time>2009-08-12T13:07:23Z</time></trkpt>
<trkpt lat="46.30373383" lon="8.61800385"><ele>423.6010132992</ele><time>2009-08-12T13:07:32Z</time></trkpt>
<trkpt lat="46.30343628" lon="8.61832714"><ele>421.7470093872</ele><time>2009-08-12T13:07:37Z</time></trkpt>
<trkpt lat="46.30300522" lon="8.61859035"><ele>418.0929871296</ele><time>2009-08-12T13:07:43Z</time></trkpt>
<trkpt lat="46.30286407" lon="8.61867523"><ele>417.1759948056</ele><time>2009-08-12T13:07:45Z</time></trkpt>
<trkpt lat="46.30246353" lon="8.61910439"><ele>414.7739867064</ele><time>2009-08-12T13:07:52Z</time></trkpt>
<trkpt lat="46.30199814" lon="8.61980343"><ele>414.4620056184</ele><time>2009-08-12T13:08:01Z</time></trkpt>
<trkpt lat="46.30146790" lon="8.62063026"><ele>408.6709900224</ele><time>2009-08-12T13:08:11Z</time></trkpt>
<trkpt lat="46.30100632" lon="8.62140560"><ele>396.4400024448</ele><time>2009-08-12T13:08:21Z</time></trkpt>
<trkpt lat="46.30060196" lon="8.62208843"><ele>388.8420105288</ele><time>2009-08-12T13:08:30Z</time></trkpt>
<trkpt lat="46.30009842" lon="8.62294769"><ele>381.0169983912</ele><time>2009-08-12T13:08:41Z</time></trkpt>
<trkpt lat="46.29967117" lon="8.62364674"><ele>377.1759947448</ele><time>2009-08-12T13:08:50Z</time></trkpt>
<trkpt lat="46.29936218" lon="8.62420082"><ele>377.0029908744</ele><time>2009-08-12T13:08:57Z</time></trkpt>
<trkpt lat="46.29891205" lon="8.62491035"><ele>376.13598636</ele><time>2009-08-12T13:09:07Z</time></trkpt>
<trkpt lat="46.29851151" lon="8.62568188"><ele>372.2420045112</ele><time>2009-08-12T13:09:17Z</time></trkpt>
<trkpt lat="46.29810333" lon="8.62648678"><ele>371.5669862016</ele><time>2009-08-12T13:09:27Z</time></trkpt>
<trkpt lat="46.29777527" lon="8.62717819"><ele>370.234985208</ele><time>2009-08-12T13:09:36Z</time></trkpt>
<trkpt lat="46.29755783" lon="8.62780380"><ele>367.7820130248</ele><time>2009-08-12T13:09:43Z</time></trkpt>
<trkpt lat="46.29726410" lon="8.62867641"><ele>365.6700132864</ele><time>2009-08-12T13:09:52Z</time></trkpt>
<trkpt lat="46.29686356" lon="8.62976360"><ele>369.042999276</ele><time>2009-08-12T13:10:04Z</time></trkpt>
<trkpt lat="46.29660416" lon="8.63043976"><ele>371.5459900536</ele><time>2009-08-12T13:10:12Z</time></trkpt>
<trkpt lat="46.29629898" lon="8.63129807"><ele>374.5429991472</ele><time>2009-08-12T13:10:22Z</time></trkpt>
<trkpt lat="46.29589844" lon="8.63241577"><ele>376.82299794</ele><time>2009-08-12T13:10:35Z</time></trkpt>
<trkpt lat="46.29547501" lon="8.63352776"><ele>380.6950073664</ele><time>2009-08-12T13:10:48Z</time></trkpt>
<trkpt lat="46.29513550" lon="8.63445473"><ele>383.3890074648</ele><time>2009-08-12T13:10:59Z</time></trkpt>
<trkpt lat="46.29475784" lon="8.63550568"><ele>384.8510132784</ele><time>2009-08-12T13:11:12Z</time></trkpt>
<trkpt lat="46.29446411" lon="8.63632584"><ele>384.5870055768</ele><time>2009-08-12T13:11:22Z</time></trkpt>
<trkpt lat="46.29409790" lon="8.63739967"><ele>383.854003944</ele><time>2009-08-12T13:11:35Z</time></trkpt>
<trkpt lat="46.29380798" lon="8.63822556"><ele>383.4849853272</ele><time>2009-08-12T13:11:45Z</time></trkpt>
<trkpt lat="46.29355621" lon="8.63895226"><ele>383.1149901312</ele><time>2009-08-12T13:11:54Z</time></trkpt>
<trkpt lat="46.29344559" lon="8.63950920"><ele>382.8919981464</ele><time>2009-08-12T13:12:01Z</time></trkpt>
<trkpt lat="46.29348373" lon="8.64010906"><ele>382.2630003696</ele><time>2009-08-12T13:12:08Z</time></trkpt>
<trkpt lat="46.29362869" lon="8.64060307"><ele>381.9339904104</ele><time>2009-08-12T13:12:14Z</time></trkpt>
<trkpt lat="46.29384995" lon="8.64102554"><ele>382.526001012</ele><time>2009-08-12T13:12:20Z</time></trkpt>
<trkpt lat="46.29411316" lon="8.64143658"><ele>382.1579894544</ele><time>2009-08-12T13:12:26Z</time></trkpt>
<trkpt lat="46.29418945" lon="8.64176941"><ele>381.0220032072</ele><time>2009-08-12T13:12:30Z</time></trkpt>
<trkpt lat="46.29407120" lon="8.64241123"><ele>379.5090028296</ele><time>2009-08-12T13:12:37Z</time></trkpt>
<trkpt lat="46.29386902" lon="8.64295483"><ele>379.0740050712</ele><time>2009-08-12T13:12:43Z</time></trkpt>
<trkpt lat="46.29350281" lon="8.64390373"><ele>379.6950073344</ele><time>2009-08-12T13:12:53Z</time></trkpt>
<trkpt lat="46.29322052" lon="8.64441204"><ele>380.4150086376</ele><time>2009-08-12T13:12:59Z</time></trkpt>
<trkpt lat="46.29291153" lon="8.64478016"><ele>381.2040099552</ele><time>2009-08-12T13:13:05Z</time></trkpt>
<trkpt lat="46.29262161" lon="8.64511681"><ele>380.2099913184</ele><time>2009-08-12T13:13:11Z</time></trkpt>
<trkpt lat="46.29239655" lon="8.64555931"><ele>378.6809996088</ele><time>2009-08-12T13:13:17Z</time></trkpt>
<trkpt lat="46.29237366" lon="8.64562321"><ele>378.0490111344</ele><time>2009-08-12T13:13:18Z</time></trkpt>
<trkpt lat="46.29233170" lon="8.64576912"><ele>377.0039979336</ele><time>2009-08-12T13:13:20Z</time></trkpt>
<trkpt lat="46.29225159" lon="8.64632320"><ele>378.43798836</ele><time>2009-08-12T13:13:27Z</time></trkpt>
<trkpt lat="46.29218674" lon="8.64691830"><ele>379.1780089272</ele><time>2009-08-12T13:13:34Z</time></trkpt>
<trkpt lat="46.29201126" lon="8.64780998"><ele>378.0880127328</ele><time>2009-08-12T13:13:44Z</time></trkpt>
<trkpt lat="46.29176331" lon="8.64869881"><ele>377.1640014744</ele><time>2009-08-12T13:13:54Z</time></trkpt>
<trkpt lat="46.29149246" lon="8.64939022"><ele>378.3670044024</ele><time>2009-08-12T13:14:02Z</time></trkpt>
<trkpt lat="46.29114914" lon="8.65003395"><ele>380.4710083224</ele><time>2009-08-12T13:14:10Z</time></trkpt>
<trkpt lat="46.29067612" lon="8.65082836"><ele>383.7219850056</ele><time>2009-08-12T13:14:20Z</time></trkpt>
<trkpt lat="46.29016876" lon="8.65156937"><ele>387.5969848248</ele><time>2009-08-12T13:14:30Z</time></trkpt>
<trkpt lat="46.28969955" lon="8.65234470"><ele>389.6390076648</ele><time>2009-08-12T13:14:40Z</time></trkpt>
<trkpt lat="46.28965378" lon="8.65242290"><ele>389.635009908</ele><time>2009-08-12T13:14:41Z</time></trkpt>
<trkpt lat="46.28937531" lon="8.65297031"><ele>384.915985056</ele><time>2009-08-12T13:14:48Z</time></trkpt>
<trkpt lat="46.28922272" lon="8.65350914"><ele>381.1099852512</ele><time>2009-08-12T13:14:54Z</time></trkpt>
<trkpt lat="46.28909302" lon="8.65416527"><ele>377.4419860848</ele><time>2009-08-12T13:15:01Z</time></trkpt>
<trkpt lat="46.28899765" lon="8.65492535"><ele>375.0950010912</ele><time>2009-08-12T13:15:09Z</time></trkpt>
<trkpt lat="46.28894043" lon="8.65546989"><ele>375.0090026856</ele><time>2009-08-12T13:15:16Z</time></trkpt>
<trkpt lat="46.28893280" lon="8.65554142"><ele>375.032012952</ele><time>2009-08-12T13:15:17Z</time></trkpt>
<trkpt lat="46.28887177" lon="8.65598965"><ele>374.5700074752</ele><time>2009-08-12T13:15:24Z</time></trkpt>
<trkpt lat="46.28879547" lon="8.65647411"><ele>375.4819946784</ele><time>2009-08-12T13:15:33Z</time></trkpt>
<trkpt lat="46.28871536" lon="8.65694141"><ele>376.3460081904</ele><time>2009-08-12T13:15:42Z</time></trkpt>
<trkpt lat="46.28861618" lon="8.65741062"><ele>377.0509947408</ele><time>2009-08-12T13:15:51Z</time></trkpt>
<trkpt lat="46.28849411" lon="8.65791702"><ele>376.9179992232</ele><time>2009-08-12T13:16:00Z</time></trkpt>
<trkpt lat="46.28834152" lon="8.65847015"><ele>376.416992148</ele><time>2009-08-12T13:16:09Z</time></trkpt>
<trkpt lat="46.28818130" lon="8.65897846"><ele>376.126007208</ele><time>2009-08-12T13:16:17Z</time></trkpt>
<trkpt lat="46.28800201" lon="8.65954018"><ele>374.895995952</ele><time>2009-08-12T13:16:26Z</time></trkpt>
<trkpt lat="46.28778839" lon="8.66016197"><ele>373.8880004064</ele><time>2009-08-12T13:16:35Z</time></trkpt>
<trkpt lat="46.28753281" lon="8.66062832"><ele>373.6369933392</ele><time>2009-08-12T13:16:43Z</time></trkpt>
<trkpt lat="46.28721619" lon="8.66100883"><ele>373.9630126008</ele><time>2009-08-12T13:16:51Z</time></trkpt>
<trkpt lat="46.28689957" lon="8.66138458"><ele>373.8120116328</ele><time>2009-08-12T13:16:59Z</time></trkpt>
<trkpt lat="46.28662109" lon="8.66182613"><ele>373.4039917224</ele><time>2009-08-12T13:17:07Z</time></trkpt>
<trkpt lat="46.28644943" lon="8.66236210"><ele>373.3779907584</ele><time>2009-08-12T13:17:15Z</time></trkpt>
<trkpt lat="46.28638077" lon="8.66287994"><ele>372.704009988</ele><time>2009-08-12T13:17:22Z</time></trkpt>
<trkpt lat="46.28631592" lon="8.66348171"><ele>372.3179932848</ele><time>2009-08-12T13:17:29Z</time></trkpt>
<trkpt lat="46.28620911" lon="8.66437626"><ele>372.9790039008</ele><time>2009-08-12T13:17:38Z</time></trkpt>
<trkpt lat="46.28607178" lon="8.66497993"><ele>373.7160032904</ele><time>2009-08-12T13:17:44Z</time></trkpt>
<trkpt lat="46.28585052" lon="8.66552639"><ele>373.9410093936</ele><time>2009-08-12T13:17:50Z</time></trkpt>
<trkpt lat="46.28552628" lon="8.66623211"><ele>373.7260132272</ele><time>2009-08-12T13:17:59Z</time></trkpt>
<trkpt lat="46.28523254" lon="8.66687489"><ele>373.4509888344</ele><time>2009-08-12T13:18:08Z</time></trkpt>
<trkpt lat="46.28487396" lon="8.66761971"><ele>372.0159913488</ele><time>2009-08-12T13:18:19Z</time></trkpt>
<trkpt lat="46.28444672" lon="8.66834641"><ele>369.8309935344</ele><time>2009-08-12T13:18:31Z</time></trkpt>
<trkpt lat="46.28402328" lon="8.66900730"><ele>368.61099252</ele><time>2009-08-12T13:18:42Z</time></trkpt>
<trkpt lat="46.28359985" lon="8.66947365"><ele>369.00100698</ele><time>2009-08-12T13:18:51Z</time></trkpt>
<trkpt lat="46.28313065" lon="8.66987228"><ele>369.1640015232</ele><time>2009-08-12T13:19:00Z</time></trkpt>
<trkpt lat="46.28265381" lon="8.67023659"><ele>368.4930114504</ele><time>2009-08-12T13:19:09Z</time></trkpt>
<trkpt lat="46.28204727" lon="8.67065144"><ele>368.6539915704</ele><time>2009-08-12T13:19:20Z</time></trkpt>
<trkpt lat="46.28146744" lon="8.67098808"><ele>367.8529966776</ele><time>2009-08-12T13:19:30Z</time></trkpt>
<trkpt lat="46.28081894" lon="8.67133904"><ele>368.3469848184</ele><time>2009-08-12T13:19:42Z</time></trkpt>
<trkpt lat="46.28042221" lon="8.67163658"><ele>369.3569944824</ele><time>2009-08-12T13:19:50Z</time></trkpt>
<trkpt lat="46.28015900" lon="8.67197418"><ele>371.121002232</ele><time>2009-08-12T13:19:56Z</time></trkpt>
<trkpt lat="46.27990341" lon="8.67240047"><ele>372.0239868624</ele><time>2009-08-12T13:20:03Z</time></trkpt>
<trkpt lat="46.27954483" lon="8.67291927"><ele>375.1229856936</ele><time>2009-08-12T13:20:12Z</time></trkpt>
<trkpt lat="46.27927399" lon="8.67324829"><ele>370.8569945304</ele><time>2009-08-12T13:20:19Z</time></trkpt>
<trkpt lat="46.27877045" lon="8.67359447"><ele>368.2499998968</ele><time>2009-08-12T13:20:29Z</time></trkpt>
<trkpt lat="46.27831650" lon="8.67375374"><ele>367.6520082048</ele><time>2009-08-12T13:20:37Z</time></trkpt>
<trkpt lat="46.27785492" lon="8.67384815"><ele>366.8540040096</ele><time>2009-08-12T13:20:45Z</time></trkpt>
<trkpt lat="46.27743912" lon="8.67397976"><ele>366.47000112</ele><time>2009-08-12T13:20:52Z</time></trkpt>
<trkpt lat="46.27689743" lon="8.67417526"><ele>365.3800049256</ele><time>2009-08-12T13:21:01Z</time></trkpt>
<trkpt lat="46.27636719" lon="8.67442322"><ele>365.5509949824</ele><time>2009-08-12T13:21:10Z</time></trkpt>
<trkpt lat="46.27599335" lon="8.67474174"><ele>364.8500061888</ele><time>2009-08-12T13:21:17Z</time></trkpt>
<trkpt lat="46.27567673" lon="8.67514515"><ele>364.299011304</ele><time>2009-08-12T13:21:24Z</time></trkpt>
<trkpt lat="46.27545547" lon="8.67554665"><ele>363.6879881928</ele><time>2009-08-12T13:21:30Z</time></trkpt>
<trkpt lat="46.27524948" lon="8.67606926"><ele>364.023010332</ele><time>2009-08-12T13:21:36Z</time></trkpt>
<trkpt lat="46.27506256" lon="8.67665386"><ele>363.74099718</ele><time>2009-08-12T13:21:43Z</time></trkpt>
<trkpt lat="46.27498245" lon="8.67690945"><ele>363.622009356</ele><time>2009-08-12T13:21:46Z</time></trkpt>
<trkpt lat="46.27473831" lon="8.67744255"><ele>363.2189942616</ele><time>2009-08-12T13:21:53Z</time></trkpt>
<trkpt lat="46.27470398" lon="8.67751503"><ele>363.3009949104</ele><time>2009-08-12T13:21:54Z</time></trkpt>
<trkpt lat="46.27428055" lon="8.67813873"><ele>363.9259949304</ele><time>2009-08-12T13:22:04Z</time></trkpt>
<trkpt lat="46.27387619" lon="8.67872334"><ele>363.8949891504</ele><time>2009-08-12T13:22:14Z</time></trkpt>
<trkpt lat="46.27357864" lon="8.67913246"><ele>365.6560058976</ele><time>2009-08-12T13:22:21Z</time></trkpt>
<trkpt lat="46.27315140" lon="8.67973042"><ele>366.153015216</ele><time>2009-08-12T13:22:31Z</time></trkpt>
<trkpt lat="46.27266693" lon="8.68038273"><ele>364.9249879032</ele><time>2009-08-12T13:22:42Z</time></trkpt>
<trkpt lat="46.27227402" lon="8.68102932"><ele>363.7890013512</ele><time>2009-08-12T13:22:52Z</time></trkpt>
<trkpt lat="46.27207565" lon="8.68131638"><ele>366.4209898896</ele><time>2009-08-12T13:22:57Z</time></trkpt>
<trkpt lat="46.27184677" lon="8.68166924"><ele>365.3200071792</ele><time>2009-08-12T13:23:03Z</time></trkpt>
<trkpt lat="46.27153015" lon="8.68204880"><ele>363.1780090248</ele><time>2009-08-12T13:23:11Z</time></trkpt>
<trkpt lat="46.27119064" lon="8.68231678"><ele>360.7980041328</ele><time>2009-08-12T13:23:18Z</time></trkpt>
<trkpt lat="46.27070236" lon="8.68253040"><ele>358.658996676</ele><time>2009-08-12T13:23:27Z</time></trkpt>
<trkpt lat="46.27013016" lon="8.68267441"><ele>356.992004328</ele><time>2009-08-12T13:23:37Z</time></trkpt>
<trkpt lat="46.26966858" lon="8.68275738"><ele>356.0989991544</ele><time>2009-08-12T13:23:45Z</time></trkpt>
<trkpt lat="46.26914215" lon="8.68287754"><ele>354.9219971904</ele><time>2009-08-12T13:23:54Z</time></trkpt>
<trkpt lat="46.26850128" lon="8.68313503"><ele>352.9960022616</ele><time>2009-08-12T13:24:05Z</time></trkpt>
<trkpt lat="46.26811981" lon="8.68342304"><ele>351.1050108696</ele><time>2009-08-12T13:24:12Z</time></trkpt>
<trkpt lat="46.26776886" lon="8.68385124"><ele>350.0509947912</ele><time>2009-08-12T13:24:19Z</time></trkpt>
<trkpt lat="46.26742554" lon="8.68433094"><ele>349.9330140264</ele><time>2009-08-12T13:24:26Z</time></trkpt>
<trkpt lat="46.26708603" lon="8.68478775"><ele>349.7659912464</ele><time>2009-08-12T13:24:33Z</time></trkpt>
<trkpt lat="46.26666641" lon="8.68535614"><ele>349.2929992536</ele><time>2009-08-12T13:24:42Z</time></trkpt>
<trkpt lat="46.26626587" lon="8.68589497"><ele>350.8789977072</ele><time>2009-08-12T13:24:51Z</time></trkpt>
<trkpt lat="46.26600647" lon="8.68623638"><ele>352.0620118512</ele><time>2009-08-12T13:24:57Z</time></trkpt>
<trkpt lat="46.26568222" lon="8.68658543"><ele>351.9729919632</ele><time>2009-08-12T13:25:04Z</time></trkpt>
<trkpt lat="46.26564026" lon="8.68663979"><ele>351.5830076784</ele><time>2009-08-12T13:25:05Z</time></trkpt>
<trkpt lat="46.26556396" lon="8.68675518"><ele>352.3980102648</ele><time>2009-08-12T13:25:07Z</time></trkpt>
<trkpt lat="46.26546478" lon="8.68690777"><ele>352.6990051416</ele><time>2009-08-12T13:25:10Z</time></trkpt>
<trkpt lat="46.26519775" lon="8.68718147"><ele>352.049987796</ele><time>2009-08-12T13:25:17Z</time></trkpt>
<trkpt lat="46.26485825" lon="8.68749619"><ele>351.9949951704</ele><time>2009-08-12T13:25:25Z</time></trkpt>
<trkpt lat="46.26452637" lon="8.68780994"><ele>351.5740051056</ele><time>2009-08-12T13:25:33Z</time></trkpt>
<trkpt lat="46.26413727" lon="8.68820477"><ele>351.1830140664</ele><time>2009-08-12T13:25:43Z</time></trkpt>
<trkpt lat="46.26380920" lon="8.68851089"><ele>352.57101444</ele><time>2009-08-12T13:25:52Z</time></trkpt>
<trkpt lat="46.26351547" lon="8.68880463"><ele>354.2990112888</ele><time>2009-08-12T13:26:01Z</time></trkpt>
<trkpt lat="46.26324081" lon="8.68902683"><ele>354.2730103248</ele><time>2009-08-12T13:26:10Z</time></trkpt>
<trkpt lat="46.26297379" lon="8.68917274"><ele>353.049987828</ele><time>2009-08-12T13:26:17Z</time></trkpt>
<trkpt lat="46.26264191" lon="8.68930340"><ele>352.1789855568</ele><time>2009-08-12T13:26:25Z</time></trkpt>
<trkpt lat="46.26254654" lon="8.68932629"><ele>352.080993576</ele><time>2009-08-12T13:26:27Z</time></trkpt>
<trkpt lat="46.26240540" lon="8.68934917"><ele>352.1430054408</ele><time>2009-08-12T13:26:30Z</time></trkpt>
<trkpt lat="46.26221085" lon="8.68939114"><ele>351.6900025368</ele><time>2009-08-12T13:26:34Z</time></trkpt>
<trkpt lat="46.26190567" lon="8.68957520"><ele>350.33099352</ele><time>2009-08-12T13:26:40Z</time></trkpt>
<trkpt lat="46.26165009" lon="8.68980026"><ele>349.6740111408</ele><time>2009-08-12T13:26:46Z</time></trkpt>
<trkpt lat="46.26129150" lon="8.69014740"><ele>348.488006604</ele><time>2009-08-12T13:26:54Z</time></trkpt>
<trkpt lat="46.26089478" lon="8.69050217"><ele>347.2630004688</ele><time>2009-08-12T13:27:02Z</time></trkpt>
<trkpt lat="46.26063919" lon="8.69072247"><ele>346.4939879352</ele><time>2009-08-12T13:27:07Z</time></trkpt>
<trkpt lat="46.26020050" lon="8.69104767"><ele>345.8179930464</ele><time>2009-08-12T13:27:15Z</time></trkpt>
<trkpt lat="46.25955582" lon="8.69158554"><ele>345.384002652</ele><time>2009-08-12T13:27:27Z</time></trkpt>
<trkpt lat="46.25927353" lon="8.69183254"><ele>345.8340148584</ele><time>2009-08-12T13:27:33Z</time></trkpt>
<trkpt lat="46.25883865" lon="8.69217014"><ele>346.9639892304</ele><time>2009-08-12T13:27:41Z</time></trkpt>
<trkpt lat="46.25841522" lon="8.69240856"><ele>346.5289917768</ele><time>2009-08-12T13:27:48Z</time></trkpt>
<trkpt lat="46.25800705" lon="8.69263268"><ele>345.6260071464</ele><time>2009-08-12T13:27:55Z</time></trkpt>
<trkpt lat="46.25764084" lon="8.69292259"><ele>345.248993016</ele><time>2009-08-12T13:28:02Z</time></trkpt>
<trkpt lat="46.25719452" lon="8.69339085"><ele>344.05599972</ele><time>2009-08-12T13:28:11Z</time></trkpt>
<trkpt lat="46.25677872" lon="8.69384766"><ele>342.8970032064</ele><time>2009-08-12T13:28:20Z</time></trkpt>
<trkpt lat="46.25638962" lon="8.69426346"><ele>342.2659913112</ele><time>2009-08-12T13:28:28Z</time></trkpt>
<trkpt lat="46.25592422" lon="8.69474316"><ele>341.8200073416</ele><time>2009-08-12T13:28:37Z</time></trkpt>
<trkpt lat="46.25534821" lon="8.69533062"><ele>341.170989996</ele><time>2009-08-12T13:28:48Z</time></trkpt>
<trkpt lat="46.25490952" lon="8.69585037"><ele>340.864013724</ele><time>2009-08-12T13:28:57Z</time></trkpt>
<trkpt lat="46.25466919" lon="8.69620800"><ele>340.9490050704</ele><time>2009-08-12T13:29:03Z</time></trkpt>
<trkpt lat="46.25459671" lon="8.69630623"><ele>340.9479980112</ele><time>2009-08-12T13:29:05Z</time></trkpt>
<trkpt lat="46.25431442" lon="8.69673347"><ele>341.52499386</ele><time>2009-08-12T13:29:13Z</time></trkpt>
<trkpt lat="46.25394440" lon="8.69728374"><ele>342.0989990112</ele><time>2009-08-12T13:29:22Z</time></trkpt>
<trkpt lat="46.25363159" lon="8.69775486"><ele>341.9460144048</ele><time>2009-08-12T13:29:30Z</time></trkpt>
<trkpt lat="46.25329971" lon="8.69826698"><ele>343.7590026</ele><time>2009-08-12T13:29:39Z</time></trkpt>
<trkpt lat="46.25312424" lon="8.69858932"><ele>344.4760132056</ele><time>2009-08-12T13:29:45Z</time></trkpt>
<trkpt lat="46.25295258" lon="8.69884968"><ele>343.9949952192</ele><time>2009-08-12T13:29:51Z</time></trkpt>
<trkpt lat="46.25281525" lon="8.69912338"><ele>345.14498916</ele><time>2009-08-12T13:29:57Z</time></trkpt>
<trkpt lat="46.25263214" lon="8.69928074"><ele>342.6589964688</ele><time>2009-08-12T13:30:03Z</time></trkpt>
<trkpt lat="46.25236511" lon="8.69936275"><ele>341.4649964184</ele><time>2009-08-12T13:30:10Z</time></trkpt>
<trkpt lat="46.25205994" lon="8.69955444"><ele>341.378997708</ele><time>2009-08-12T13:30:19Z</time></trkpt>
<trkpt lat="46.25179672" lon="8.69971943"><ele>339.8609925144</ele><time>2009-08-12T13:30:27Z</time></trkpt>
<trkpt lat="46.25146866" lon="8.69993401"><ele>340.8909912672</ele><time>2009-08-12T13:30:37Z</time></trkpt>
<trkpt lat="46.25118637" lon="8.70011044"><ele>341.9800108824</ele><time>2009-08-12T13:30:47Z</time></trkpt>
<trkpt lat="46.25098038" lon="8.70023537"><ele>342.7600096272</ele><time>2009-08-12T13:30:55Z</time></trkpt>
<trkpt lat="46.25073624" lon="8.70038414"><ele>343.6329955368</ele><time>2009-08-12T13:31:04Z</time></trkpt>
<trkpt lat="46.25048065" lon="8.70053959"><ele>344.6990051904</ele><time>2009-08-12T13:31:13Z</time></trkpt>
<trkpt lat="46.25019836" lon="8.70072842"><ele>346.9479978984</ele><time>2009-08-12T13:31:23Z</time></trkpt>
<trkpt lat="46.24996948" lon="8.70086670"><ele>347.878997916</ele><time>2009-08-12T13:31:31Z</time></trkpt>
<trkpt lat="46.24964905" lon="8.70106792"><ele>348.1040040192</ele><time>2009-08-12T13:31:42Z</time></trkpt>
<trkpt lat="46.24940491" lon="8.70121098"><ele>348.0270081864</ele><time>2009-08-12T13:31:50Z</time></trkpt>
<trkpt lat="46.24912262" lon="8.70138741"><ele>347.6059876416</ele><time>2009-08-12T13:31:58Z</time></trkpt>
<trkpt lat="46.24876022" lon="8.70160961"><ele>346.6010132736</ele><time>2009-08-12T13:32:07Z</time></trkpt>
<trkpt lat="46.24871445" lon="8.70163822"><ele>346.4809876056</ele><time>2009-08-12T13:32:08Z</time></trkpt>
<trkpt lat="46.24852753" lon="8.70175457"><ele>345.7950135648</ele><time>2009-08-12T13:32:12Z</time></trkpt>
<trkpt lat="46.24828720" lon="8.70191288"><ele>344.6940003744</ele><time>2009-08-12T13:32:17Z</time></trkpt>
<trkpt lat="46.24818420" lon="8.70196533"><ele>344.3779907448</ele><time>2009-08-12T13:32:19Z</time></trkpt>
<trkpt lat="46.24792862" lon="8.70215702"><ele>342.457000632</ele><time>2009-08-12T13:32:24Z</time></trkpt>
<trkpt lat="46.24779510" lon="8.70234966"><ele>340.7409973584</ele><time>2009-08-12T13:32:27Z</time></trkpt>
<trkpt lat="46.24771118" lon="8.70280266"><ele>339.4930114368</ele><time>2009-08-12T13:32:32Z</time></trkpt>
<trkpt lat="46.24783707" lon="8.70304108"><ele>338.2409972784</ele><time>2009-08-12T13:32:35Z</time></trkpt>
<trkpt lat="46.24790192" lon="8.70310402"><ele>337.7579956536</ele><time>2009-08-12T13:32:36Z</time></trkpt>
<trkpt lat="46.24811554" lon="8.70328331"><ele>336.1600036248</ele><time>2009-08-12T13:32:39Z</time></trkpt>
<trkpt lat="46.24826813" lon="8.70363331"><ele>334.281005808</ele><time>2009-08-12T13:32:42Z</time></trkpt>
<trkpt lat="46.24821854" lon="8.70389175"><ele>332.9880067176</ele><time>2009-08-12T13:32:44Z</time></trkpt>
<trkpt lat="46.24816895" lon="8.70400429"><ele>332.4800108832</ele><time>2009-08-12T13:32:45Z</time></trkpt>
<trkpt lat="46.24780655" lon="8.70468521"><ele>332.0480041272</ele><time>2009-08-12T13:32:52Z</time></trkpt>
<trkpt lat="46.24771881" lon="8.70485210"><ele>331.989990324</ele><time>2009-08-12T13:32:54Z</time></trkpt>
<trkpt lat="46.24745178" lon="8.70511246"><ele>332.0870057256</ele><time>2009-08-12T13:32:59Z</time></trkpt>
<trkpt lat="46.24703979" lon="8.70538521"><ele>332.8880006184</ele><time>2009-08-12T13:33:07Z</time></trkpt>
<trkpt lat="46.24677277" lon="8.70567417"><ele>332.3510131224</ele><time>2009-08-12T13:33:14Z</time></trkpt>
<trkpt lat="46.24646759" lon="8.70601463"><ele>332.0669861568</ele><time>2009-08-12T13:33:22Z</time></trkpt>
<trkpt lat="46.24617386" lon="8.70635700"><ele>332.6440124856</ele><time>2009-08-12T13:33:30Z</time></trkpt>
<trkpt lat="46.24610519" lon="8.70643902"><ele>332.8250121744</ele><time>2009-08-12T13:33:32Z</time></trkpt>
<trkpt lat="46.24596786" lon="8.70660114"><ele>333.4190064144</ele><time>2009-08-12T13:33:36Z</time></trkpt>
<trkpt lat="46.24575424" lon="8.70683861"><ele>334.9719849696</ele><time>2009-08-12T13:33:42Z</time></trkpt>
<trkpt lat="46.24567032" lon="8.70704079"><ele>334.6940003592</ele><time>2009-08-12T13:33:46Z</time></trkpt>
<trkpt lat="46.24566650" lon="8.70716095"><ele>335.1069946056</ele><time>2009-08-12T13:33:48Z</time></trkpt>
<trkpt lat="46.24568176" lon="8.70767117"><ele>336.6600036408</ele><time>2009-08-12T13:33:57Z</time></trkpt>
<trkpt lat="46.24570847" lon="8.70797062"><ele>336.2720032992</ele><time>2009-08-12T13:34:04Z</time></trkpt>
<trkpt lat="46.24574280" lon="8.70830345"><ele>338.3840027328</ele><time>2009-08-12T13:34:11Z</time></trkpt>
<trkpt lat="46.24576187" lon="8.70835209"><ele>338.5159911912</ele><time>2009-08-12T13:34:12Z</time></trkpt>
<trkpt lat="46.24583435" lon="8.70858860"><ele>341.071990956</ele><time>2009-08-12T13:34:16Z</time></trkpt>
<trkpt lat="46.24594116" lon="8.70885658"><ele>342.6700134648</ele><time>2009-08-12T13:34:21Z</time></trkpt>
<trkpt lat="46.24592590" lon="8.70906544"><ele>344.4719849688</ele><time>2009-08-12T13:34:24Z</time></trkpt>
<trkpt lat="46.24591827" lon="8.70921516"><ele>342.4999999872</ele><time>2009-08-12T13:34:26Z</time></trkpt>
<trkpt lat="46.24585724" lon="8.70957565"><ele>339.7890014976</ele><time>2009-08-12T13:34:32Z</time></trkpt>
<trkpt lat="46.24582291" lon="8.70987034"><ele>336.8340148752</ele><time>2009-08-12T13:34:37Z</time></trkpt>
<trkpt lat="46.24574661" lon="8.71018124"><ele>336.3999940008</ele><time>2009-08-12T13:34:42Z</time></trkpt>
<trkpt lat="46.24572754" lon="8.71031094"><ele>336.49398792</ele><time>2009-08-12T13:34:44Z</time></trkpt>
<trkpt lat="46.24574280" lon="8.71059322"><ele>331.5660095616</ele><time>2009-08-12T13:35:12Z</time></trkpt>
</trkseg></trk></gpx>